[[{"header":{"parameterUnit":"m.s-1","parameterCategory":1,"la1":30.6,"la2":28.766,"lo1":-90.7593,"lo2":-88.6598,"dy":0.0162,"dx":0.0183,"nx":116,"ny":114,"refTime":"2024-04-21T00:00:00:Z","depth":0,"parameterNumber":2,"parameterNumberName":"U-component_of_WINDS"},"data":[0.0,0.0,0.0,0.0,0.0,0.0,0.0,0.0,0.0,0.0,0.0,0.0,0.0,0.0,0.0,0.0,0.0,0.0,0.0,0.0,0.0,0.0,0.0,0.0,0.0,0.0,0.0,0.0,0.0,0.0,0.0,0.0,0.0,0.0,0.0,0.0,0.0,0.0,0.0,0.0,0.0,0.0,0.0,0.0,0.0,0.0,0.0,0.0,0.0,0.0,0.0,0.0,0.0,0.0,0.0,0.0,0.0,0.0,0.0,0.0,0.0,0.0,0.0,0.0,0.0,0.0,0.0,0.0,0.0,0.0,0.0,0.0,0.0,0.0,0.0,0.0,0.0,0.0,0.0,0.0,0.0,0.0,0.0,0.0,0.0,0.0,0.0,0.0,0.0,0.0,0.0,0.0,0.0,0.0,0.0,0.0,0.0,0.0,0.0,0.0,0.0,0.0,0.0,0.0,0.0,0.0,0.0,0.0,0.0,0.0,0.0,0.0,0.0,0.0,0.0,0.0,0.0,0.0,0.0,0.0,0.0,0.0,0.0,0.0,0.0,0.0,0.0,0.0,0.0,0.0,0.0,0.0,0.0,0.0,0.0,0.0,0.0,0.0,0.0,0.0,0.0,0.0,0.0,0.0,0.0,0.0,0.0,0.0,0.0,0.0,0.0,0.0,0.0,0.0,0.0,0.0,0.0,0.0,0.0,0.0,0.0,0.0,0.0,0.0,0.0,0.0,0.0,0.0,0.0,0.0,0.0,0.0,0.0,0.0,0.0,0.0,0.0,0.0,0.0,0.0,0.0,0.0,0.0,0.0,0.0,0.0,0.0,0.0,0.0,0.0,0.0,0.0,0.0,0.0,0.0,0.0,0.0,0.0,0.0,0.0,0.0,0.0,0.0,0.0,0.0,0.0,0.0,0.0,0.0,0.0,0.0,0.0,0.0,0.0,0.0,0.0,0.0,0.0,0.0,0.0,0.0,0.0,0.0,0.0,0.0,0.0,0.0,0.0,0.0,0.0,0.0,0.0,0.0,0.0,0.0,0.0,0.0,0.0,0.0,0.0,0.0,0.0,0.0,0.0,0.0,0.0,0.0,0.0,0.0,0.0,0.0,0.0,0.0,0.0,0.0,0.0,0.0,0.0,0.0,0.0,0.0,0.0,0.0,0.0,0.0,0.0,0.0,0.0,0.0,0.0,0.0,0.0,0.0,0.0,0.0,0.0,0.0,0.0,0.0,0.0,0.0,0.0,0.0,0.0,0.0,0.0,0.0,0.0,0.0,0.0,0.0,0.0,0.0,0.0,0.0,0.0,0.0,0.0,0.0,0.0,0.0,0.0,0.0,0.0,0.0,0.0,0.0,0.0,0.0,0.0,0.0,0.0,0.0,0.0,0.0,0.0,0.0,0.0,0.0,0.0,0.0,0.0,0.0,0.0,0.0,0.0,0.0,0.0,0.0,0.0,0.0,0.0,0.0,0.0,0.0,0.0,0.0,0.0,0.0,0.0,0.0,0.0,0.0,0.0,0.0,0.0,0.0,0.0,0.0,0.0,0.0,0.0,0.0,0.0,0.0,0.0,0.0,0.0,0.0,0.0,0.0,0.0,0.0,0.0,0.0,0.0,0.0,0.0,0.0,0.0,0.0,0.0,0.0,0.0,0.0,0.0,0.0,0.0,0.0,0.0,0.0,0.0,0.0,0.0,0.0,0.0,0.0,0.0,0.0,0.0,0.0,0.0,0.0,0.0,0.0,0.0,0.0,0.0,0.0,0.0,0.0,0.0,0.0,0.0,0.0,0.0,0.0,0.0,0.0,0.0,0.0,0.0,0.0,0.0,0.0,0.0,0.0,0.0,0.0,0.0,0.0,0.0,0.0,0.0,0.0,0.0,0.0,0.0,0.0,0.0,0.0,0.0,0.0,0.0,0.0,0.0,0.0,0.0,0.0,0.0,0.0,0.0,0.0,0.0,0.0,0.0,0.0,0.0,0.0,0.0,0.0,0.0,0.0,0.0,0.0,0.0,0.0,0.0,0.0,0.0,0.0,0.0,0.0,0.0,0.0,0.0,0.0,0.0,0.0,0.0,0.0,0.0,0.0,0.0,0.0,0.0,0.0,0.0,0.0,0.0,0.0,0.0,0.0,0.0,0.0,0.0,0.0,0.0,0.0,0.0,0.0,0.0,0.0,0.0,0.0,0.0,0.0,0.0,0.0,0.0,0.0,0.0,0.0,0.0,0.0,0.0,0.0,0.0,0.0,0.0,0.0,0.0,0.0,0.0,0.0,0.0,0.0,0.0,0.0,0.0,0.0,0.0,0.0,0.0,0.0,0.0,0.0,0.0,0.0,0.0,0.0,0.0,0.0,0.0,0.0,0.0,0.0,0.0,0.0,0.0,0.0,0.0,0.0,0.0,0.0,0.0,0.0,0.0,0.0,0.0,0.0,0.0,0.0,0.0,0.0,0.0,0.0,0.0,0.0,0.0,0.0,0.0,0.0,0.0,0.0,0.0,0.0,0.0,0.0,0.0,0.0,0.0,0.0,0.0,0.0,0.0,0.0,0.0,0.0,0.0,0.0,0.0,0.0,0.0,0.0,0.0,0.0,0.0,0.0,0.0,0.0,0.0,0.0,0.0,0.0,0.0,0.0,0.0,0.0,0.0,0.0,0.0,0.0,0.0,0.0,0.0,0.0,0.0,0.0,0.0,0.0,0.0,0.0,0.0,0.0,0.0,0.0,0.0,0.0,0.0,0.0,0.0,0.0,0.0,0.0,0.0,0.0,0.0,0.0,0.0,0.0,0.0,0.0,0.0,0.0,0.0,0.0,0.0,0.0,0.0,0.0,0.0,0.0,0.0,0.0,0.0,0.0,0.0,0.0,0.0,0.0,0.0,0.0,0.0,0.0,0.0,0.0,0.0,0.0,0.0,0.0,0.0,0.0,0.0,0.0,0.0,0.0,0.0,0.0,0.0,0.0,0.0,0.0,0.0,0.0,0.0,0.0,0.0,0.0,0.0,0.0,0.0,0.0,0.0,0.0,0.0,0.0,0.0,0.0,0.0,0.0,0.0,0.0,0.0,0.0,0.0,0.0,0.0,0.0,0.0,0.0,0.0,0.0,0.0,0.0,0.0,0.0,0.0,0.0,0.0,0.0,0.0,0.0,0.0,0.0,0.0,0.0,0.0,0.0,0.0,0.0,0.0,0.0,0.0,0.0,0.0,0.0,0.0,0.0,0.0,0.0,0.0,0.0,0.0,0.0,0.0,0.0,0.0,0.0,0.0,0.0,0.0,0.0,0.0,0.0,0.0,0.0,0.0,0.0,0.0,0.0,0.0,0.0,0.0,0.0,0.0,0.0,0.0,0.0,0.0,0.0,0.0,0.0,0.0,0.0,0.0,0.0,0.0,0.0,0.0,0.0,0.0,0.0,0.0,0.0,0.0,0.0,0.0,0.0,0.0,0.0,0.0,0.0,0.0,0.0,0.0,0.0,0.0,0.0,0.0,0.0,0.0,0.0,0.0,0.0,0.0,0.0,0.0,0.0,0.0,0.0,0.0,0.0,0.0,0.0,0.0,0.0,0.0,0.0,0.0,0.0,0.0,0.0,0.0,0.0,0.0,0.0,0.0,0.0,0.0,0.0,0.0,0.0,0.0,0.0,0.0,0.0,0.0,0.0,0.0,0.0,0.0,0.0,0.0,0.0,0.0,0.0,0.0,0.0,0.0,0.0,0.0,0.0,0.0,0.0,0.0,0.0,0.0,0.0,0.0,0.0,0.0,0.0,0.0,0.0,0.0,0.0,0.0,0.0,0.0,0.0,0.0,0.0,0.0,0.0,0.0,0.0,0.0,0.0,0.0,0.0,0.0,0.0,0.0,0.0,0.0,0.0,0.0,0.0,0.0,0.0,0.0,0.0,0.0,0.0,0.0,0.0,0.0,0.0,0.0,0.0,0.0,0.0,0.0,0.0,0.0,0.0,0.0,0.0,0.0,0.0,0.0,0.0,0.0,0.0,0.0,0.0,0.0,0.0,0.0,0.0,0.0,0.0,0.0,0.0,0.0,0.0,0.0,0.0,0.0,0.0,0.0,0.0,0.0,0.0,0.0,0.0,0.0,0.0,0.0,0.0,0.0,0.0,0.0,0.0,0.0,0.0,0.0,0.0,0.0,0.0,0.0,0.0,0.0,0.0,0.0,0.0,0.0,0.0,0.0,0.0,0.0,0.0,0.0,0.0,0.0,0.0,0.0,0.0,0.0,0.0,0.0,0.0,0.0,0.0,0.0,0.0,0.0,0.0,0.0,0.0,0.0,0.0,0.0,0.0,0.0,0.0,0.0,0.0,0.0,0.0,0.0,0.0,0.0,0.0,0.0,0.0,0.0,0.0,0.0,0.0,0.0,0.0,0.0,0.0,0.0,0.0,0.0,0.0,0.0,0.0,0.0,0.0,0.0,0.0,0.0,0.0,0.0,0.0,0.0,0.0,0.0,0.0,0.0,0.0,0.0,0.0,0.0,0.0,0.0,0.0,0.0,0.0,0.0,0.0,0.0,0.0,0.0,0.0,0.0,0.0,0.0,0.0,0.0,0.0,0.0,0.0,0.0,0.0,0.0,0.0,0.0,0.0,0.0,0.0,0.0,0.0,0.0,0.0,0.0,0.0,0.0,0.0,0.0,0.0,0.0,0.0,0.0,0.0,0.0,0.0,0.0,0.0,0.0,0.0,0.0,0.0,0.0,0.0,0.0,0.0,0.0,0.0,0.0,0.0,0.0,0.0,0.0,0.0,0.0,0.0,0.0,0.0,0.0,0.0,0.0,0.0,0.0,0.0,0.0,0.0,0.0,0.0,0.0,0.0,0.0,0.0,0.0,0.0,0.0,0.0,0.0,0.0,0.0,0.0,0.0,0.0,0.0,0.0,0.0,0.0,0.0,0.0,0.0,0.0,0.0,0.0,0.0,0.0,0.0,0.0,0.0,0.0,0.0,0.0,0.0,0.0,0.0,0.0,0.0,0.0,0.0,0.0,0.0,0.0,0.0,0.0,0.0,0.0,0.0,0.0,0.0,0.0,0.0,0.0,0.0,0.0,0.0,0.0,0.0,0.0,0.0,0.0,0.0,0.0,0.0,0.0,0.0,0.0,0.0,0.0,0.0,0.0,0.0,0.0,0.0,0.0,0.0,0.0,0.0,0.0,0.0,0.0,0.0,0.0,0.0,0.0,0.0,0.0,0.0,0.0,0.0,0.0,0.0,0.0,0.0,0.0,0.0,0.0,0.0,0.0,0.0,0.0,0.0,0.0,0.0,0.0,0.0,0.0,0.0,0.0,0.0,0.0,0.0,0.0,0.0,0.0,0.0,0.0,0.0,0.0,0.0,0.0,0.0,0.0,0.0,0.0,0.0,0.0,0.0,0.0,0.0,0.0,0.0,0.0,0.0,0.0,0.0,0.0,0.0,0.0,0.0,0.0,0.0,0.0,0.0,0.0,0.0,0.0,0.0,0.0,0.0,0.0,0.0,0.0,0.0,0.0,0.0,0.0,0.0,0.0,0.0,0.0,0.0,0.0,0.0,0.0,0.0,0.0,0.0,0.0,0.0,0.0,0.0,0.0,0.0,0.0,0.0,0.0,0.0,0.0,0.0,0.0,0.0,0.0,0.0,0.0,0.0,0.0,0.0,0.0,0.0,0.0,0.0,0.0,0.0,0.0,0.0,0.0,0.0,0.0,0.0,0.0,0.0,0.0,0.0,0.0,0.0,0.0,0.0,0.0,0.0,0.0,0.0,0.0,0.0,0.0,0.0,0.0,0.0,0.0,0.0,0.0,0.0,0.0,0.0,0.0,0.0,0.0,0.0,0.0,0.0,0.0,0.0,0.0,0.0,0.0,0.0,0.0,0.0,0.0,0.0,0.0,0.0,0.0,0.0,0.0,0.0,0.0,0.0,0.0,0.0,0.0,0.0,0.0,0.0,0.0,0.0,0.0,0.0,0.0,0.0,0.0,0.0,0.0,0.0,0.0,0.0,0.0,0.0,0.0,0.0,0.0,0.0,0.0,0.0,0.0,0.0,0.0,0.0,0.0,0.0,0.0,0.0,0.0,0.0,0.0,0.0,0.0,0.0,-2.0619,-1.851,0.0,0.0,0.0,0.0,0.0,0.0,0.0,0.0,0.0,0.0,0.0,0.0,0.0,0.0,0.0,0.0,0.0,0.0,0.0,0.0,0.0,0.0,0.0,-1.6338,-1.6757,-1.6889,-1.7181,-1.7405,-1.7486,0.0,0.0,0.0,0.0,0.0,-1.6868,-1.6577,-1.6906,-1.7946,-1.7308,-1.765,-1.8909,-1.7658,-1.6611,-1.5709,0.0,0.0,0.0,0.0,0.0,0.0,0.0,0.0,0.0,0.0,0.0,0.0,0.0,0.0,0.0,0.0,0.0,0.0,0.0,0.0,0.0,0.0,0.0,0.0,0.0,0.0,0.0,0.0,0.0,0.0,0.0,0.0,0.0,0.0,0.0,0.0,0.0,0.0,0.0,0.0,0.0,0.0,0.0,0.0,0.0,0.0,0.0,0.0,0.0,0.0,0.0,0.0,0.0,0.0,0.0,0.0,0.0,0.0,0.0,0.0,0.0,0.0,0.0,0.0,0.0,0.0,0.0,0.0,0.0,0.0,-2.4988,-2.2848,0.0,0.0,0.0,0.0,0.0,0.0,0.0,0.0,0.0,0.0,0.0,0.0,0.0,0.0,0.0,0.0,0.0,0.0,0.0,0.0,0.0,-1.5302,-1.6315,-1.7338,-1.7933,-1.7888,-1.8288,-1.8574,-1.8582,-1.8045,0.0,0.0,0.0,-1.7583,-1.7802,-1.7718,-1.8466,-2.0061,-1.9834,-2.0368,-2.1565,-2.2177,-2.1613,-1.999,-1.8,0.0,0.0,0.0,0.0,0.0,0.0,0.0,0.0,0.0,0.0,0.0,0.0,0.0,0.0,0.0,0.0,0.0,0.0,0.0,0.0,0.0,0.0,0.0,0.0,0.0,0.0,0.0,0.0,0.0,0.0,0.0,0.0,0.0,0.0,0.0,0.0,0.0,0.0,0.0,0.0,0.0,0.0,0.0,0.0,0.0,0.0,0.0,0.0,0.0,0.0,0.0,0.0,0.0,0.0,0.0,0.0,0.0,0.0,0.0,0.0,0.0,0.0,0.0,-3.3141,-3.3513,-3.332,-3.4011,-3.3948,-3.3159,-3.0254,-2.8373,-2.723,-2.5267,0.0,0.0,0.0,0.0,0.0,0.0,0.0,0.0,0.0,0.0,0.0,0.0,0.0,0.0,0.0,0.0,0.0,0.0,0.0,-1.6428,-1.8208,-1.8569,-1.9381,-2.1191,-2.095,-2.077,-2.0941,-1.9811,-1.8927,-1.8484,-1.7836,-1.8064,-1.9289,-1.876,-1.9707,-2.2293,-2.3887,-2.503,-2.58,-2.6458,-2.6662,-2.6213,-2.1912,-2.0537,-2.1257,0.0,0.0,0.0,0.0,0.0,0.0,0.0,0.0,0.0,0.0,0.0,0.0,0.0,0.0,0.0,0.0,0.0,0.0,0.0,0.0,0.0,0.0,0.0,0.0,0.0,0.0,0.0,0.0,0.0,0.0,0.0,0.0,0.0,0.0,0.0,0.0,0.0,0.0,0.0,0.0,0.0,-2.1144,-2.2505,0.0,0.0,0.0,0.0,0.0,0.0,0.0,0.0,0.0,0.0,0.0,0.0,0.0,-3.2683,-3.407,-3.662,-3.7653,-3.7153,-3.9219,-3.9502,-3.8371,-3.9219,-3.9219,-3.8524,-3.8497,0.0,-3.0427,-2.9452,0.0,0.0,0.0,0.0,0.0,0.0,0.0,0.0,0.0,0.0,0.0,0.0,0.0,0.0,0.0,0.0,0.0,0.0,0.0,0.0,0.0,-2.0806,-2.1953,-2.2571,-2.3479,-2.3452,-2.2064,-2.1454,-2.0675,-1.9612,-1.9022,-1.9165,-2.0098,-2.065,-2.2392,-2.5458,-2.738,-2.8517,-2.8816,-2.9475,-2.9804,-2.9684,-2.6852,-2.4871,-2.3406,-2.0439,0.0,0.0,0.0,0.0,0.0,0.0,0.0,0.0,0.0,0.0,0.0,0.0,0.0,0.0,0.0,0.0,0.0,0.0,0.0,0.0,0.0,0.0,0.0,0.0,0.0,0.0,0.0,0.0,0.0,0.0,0.0,0.0,0.0,0.0,0.0,0.0,0.0,0.0,0.0,-2.1838,-2.4621,-2.484,-2.4775,-2.4237,0.0,0.0,0.0,0.0,0.0,0.0,0.0,0.0,0.0,-3.4252,-3.5872,-3.717,-3.8211,-4.0164,-4.0982,-4.0699,-4.2023,-4.2372,-4.1805,-4.2187,-4.2189,-4.1871,-4.2088,-4.0449,-3.7421,-3.4516,-3.1768,-2.9226,0.0,0.0,0.0,0.0,-2.7394,-2.757,0.0,0.0,0.0,0.0,0.0,0.0,0.0,0.0,0.0,0.0,0.0,0.0,-2.0839,-2.2965,-2.4364,-2.4429,-2.5756,-2.5794,-2.3911,-2.3203,-2.231,-2.1129,-2.0397,-2.0374,-2.1107,-2.3215,-2.5664,-2.8493,-3.027,-3.1204,-3.1384,-3.1925,-3.2165,-3.2105,-3.1172,-2.9079,-2.6117,-2.3355,-2.1178,-1.936,0.0,0.0,0.0,0.0,0.0,0.0,0.0,0.0,0.0,0.0,0.0,0.0,0.0,0.0,0.0,0.0,0.0,0.0,0.0,0.0,0.0,0.0,0.0,0.0,0.0,0.0,0.0,0.0,0.0,0.0,0.0,0.0,0.0,0.0,0.0,0.0,0.0,-2.486,-2.752,-2.6995,-2.7807,-2.7525,0.0,0.0,0.0,0.0,0.0,0.0,-3.2966,-3.5394,-3.7354,-3.8807,-4.0135,-4.1083,-4.1652,-4.2884,-4.3485,-4.3485,-4.399,-4.4243,-4.4208,-4.4208,-4.4208,-4.4208,-4.4208,-4.3864,-4.2916,-3.9031,-3.6303,-3.4422,-3.2804,-3.1608,-3.0986,-3.2309,-3.2309,-3.2037,0.0,0.0,0.0,0.0,0.0,0.0,0.0,0.0,0.0,0.0,0.0,-2.1111,-2.3603,-2.4687,-2.6017,-2.7951,-2.7654,-2.7399,-2.7525,-2.5153,-2.348,-2.2899,-2.1626,-2.1535,-2.2859,-2.6684,-2.9381,-3.084,-3.2209,-3.3211,-3.3818,-3.3879,-3.3879,-3.3879,-3.3818,-3.2823,-3.0853,-2.6296,-2.4633,-2.4693,-2.0179,0.0,0.0,0.0,0.0,0.0,0.0,0.0,0.0,0.0,0.0,0.0,0.0,0.0,0.0,0.0,0.0,0.0,0.0,0.0,0.0,0.0,0.0,0.0,0.0,0.0,0.0,0.0,0.0,0.0,0.0,0.0,0.0,0.0,0.0,0.0,0.0,0.0,0.0,-2.9799,-3.1117,0.0,0.0,0.0,0.0,-3.0788,-3.2835,-3.5236,-3.8017,-3.9534,-4.0988,-4.2378,-4.3737,-4.4464,-4.4496,-4.5254,-4.5665,-4.5665,-4.5697,-4.5697,-4.5697,-4.5697,-4.5697,-4.5697,-4.5697,-4.5286,-4.4433,-4.2252,-4.0482,-3.9092,-3.8335,-3.7229,-3.6124,-3.688,-3.6722,-3.6187,0.0,0.0,0.0,0.0,0.0,-1.5324,-1.5856,-1.665,-1.748,-1.8379,-2.0624,-2.2637,-2.3971,-2.6401,-2.8396,-2.9525,-2.9876,-2.9719,-2.9015,-2.6928,-2.5854,-2.6075,-2.4052,-2.4368,-2.7437,-2.9346,-3.1384,-3.3574,-3.406,-3.485,-3.5944,-3.5944,-3.5944,-3.5914,-3.5489,-3.4697,-3.3517,-2.9546,-2.725,-2.595,-2.2978,-2.0482,0.0,0.0,0.0,0.0,0.0,0.0,0.0,0.0,0.0,0.0,0.0,0.0,0.0,0.0,0.0,0.0,0.0,0.0,0.0,0.0,0.0,0.0,0.0,0.0,0.0,0.0,0.0,0.0,0.0,0.0,0.0,0.0,0.0,0.0,0.0,0.0,0.0,-3.3382,-3.3945,0.0,-3.1634,-3.2487,-3.3561,-3.4482,-3.6911,-3.9187,-4.1114,-4.2505,-4.3895,-4.5286,-4.5792,-4.6297,-4.6771,-4.655,-4.6455,-4.6455,-4.6013,-4.5823,-4.5823,-4.5823,-4.5823,-4.5823,-4.5823,-4.5918,-4.5981,-4.5254,-4.3611,-4.1525,-4.1304,-4.0609,-3.9787,-4.004,-4.0261,-4.0482,0.0,0.0,0.0,0.0,0.0,-1.5324,-1.5876,-1.6901,-1.7975,-1.8987,-2.1674,-2.4001,-2.534,-2.8198,-3.0235,-3.0651,-3.1393,-3.139,-3.0396,-2.8287,-2.7308,-2.786,-2.6282,-2.7106,-3.0727,-3.1705,-3.3293,-3.5522,-3.5522,-3.6072,-3.717,-3.717,-3.717,-3.714,-3.6712,-3.6223,-3.5551,-3.2786,-3.0374,-2.8171,-2.6117,-2.3969,-2.1934,0.0,0.0,0.0,0.0,0.0,0.0,0.0,0.0,0.0,0.0,0.0,0.0,0.0,0.0,0.0,0.0,0.0,0.0,0.0,0.0,0.0,0.0,0.0,0.0,0.0,0.0,0.0,0.0,0.0,0.0,0.0,0.0,0.0,0.0,-3.2335,-3.4952,-3.5647,-3.6342,-3.6121,-3.451,-3.5616,-3.6817,-3.7735,-3.9756,-4.1746,-4.3643,-4.4591,-4.5765,-4.7231,-4.7262,-4.7553,-4.8104,-4.7553,-4.7262,-4.7262,-4.6745,-4.6392,-4.6139,-4.6139,-4.6139,-4.6139,-4.6139,-4.655,-4.715,-4.6898,-4.5855,-4.4433,-4.418,-4.3485,-4.2631,-4.2631,-4.2823,-4.3178,0.0,0.0,0.0,0.0,0.0,-1.4834,-1.5754,-1.6553,-1.7956,-2.0526,-2.2767,-2.5145,-2.7827,-3.0033,-3.1366,-3.1511,-3.2108,-3.2287,-3.186,-2.9245,-2.7821,-2.8056,-2.832,-2.97,-3.2475,-3.3858,-3.5213,-3.6507,-3.6507,-3.6846,-3.7492,-3.7523,-3.7523,-3.7523,-3.7523,-3.7396,-3.7113,-3.5798,-3.3968,-3.1766,-2.9555,-2.7914,-2.6363,0.0,0.0,0.0,0.0,0.0,0.0,0.0,0.0,0.0,0.0,0.0,0.0,0.0,0.0,0.0,0.0,0.0,0.0,0.0,0.0,0.0,0.0,0.0,0.0,0.0,0.0,0.0,0.0,0.0,0.0,0.0,0.0,0.0,-3.1444,-3.4952,-3.7291,-3.6658,-3.8302,-3.8744,-3.6724,-3.7766,-3.9187,-4.0546,-4.1336,-4.2916,-4.5665,-4.5855,-4.6597,-4.8185,-4.8216,-4.836,-4.8578,-4.836,-4.8216,-4.8248,-4.8023,-4.753,-4.6834,-4.6834,-4.6834,-4.6834,-4.6834,-4.7245,-4.7877,-4.7119,-4.7245,-4.7814,-4.7056,-4.595,-4.478,-4.4749,-4.4446,-4.4081,0.0,0.0,0.0,-1.4123,-1.481,-1.5379,-1.5839,-1.6895,-1.81,-1.9363,-2.2615,-2.5345,-2.6672,-2.95,-3.1544,-3.2168,-3.1959,-3.1928,-3.2287,-2.9883,-2.8776,-2.9571,-3.2087,-3.4077,-3.5337,-3.5306,-3.5861,-3.7215,-3.6722,-3.6846,-3.7523,-3.8015,-3.8231,-3.8231,-3.8231,-3.7921,-3.7335,-3.635,-3.5584,-3.476,-3.2122,-2.9843,-2.7944,0.0,0.0,0.0,0.0,0.0,0.0,0.0,0.0,0.0,0.0,0.0,0.0,0.0,0.0,0.0,0.0,0.0,0.0,0.0,0.0,0.0,0.0,0.0,0.0,0.0,0.0,0.0,0.0,0.0,0.0,0.0,-3.1507,-3.4817,-3.6483,-3.7601,-3.8774,-4.0198,-3.9881,-3.9503,-3.9471,-4.023,-4.1114,-4.2031,-4.3674,-4.5041,-4.5945,-4.6998,-4.8025,-4.9106,-4.9143,-4.9431,-5.0051,-4.9279,-4.891,-4.891,-4.8244,-4.7782,-4.7593,-4.7593,-4.7593,-4.7593,-4.7749,-4.8124,-4.8611,-4.8035,-4.7913,-4.7939,-4.6587,-4.6139,-4.6171,-4.5841,-4.5702,-4.5623,0.0,0.0,0.0,-1.3625,-1.4296,-1.489,-1.535,-1.665,-1.7956,-1.9181,-2.2403,-2.5238,-2.6908,-2.9563,-3.1456,-3.2049,-3.1989,-3.1839,-3.1689,-3.0363,-3.0223,-3.1713,-3.4144,-3.5892,-3.6907,-3.6815,-3.7123,-3.7923,-3.7246,-3.7246,-3.7923,-3.8323,-3.8662,-3.8939,-3.8939,-3.8569,-3.7892,-3.7089,-3.6534,-3.6012,-3.3903,-3.23,-3.1052,-3.0061,-2.8581,-2.6928,-2.5984,-2.5349,-2.4791,-2.3695,0.0,0.0,0.0,0.0,0.0,0.0,0.0,0.0,0.0,0.0,0.0,0.0,0.0,0.0,0.0,0.0,0.0,0.0,0.0,0.0,0.0,0.0,0.0,0.0,-3.3719,-3.7189,-3.9751,-4.0198,-4.0736,-4.207,-4.1654,-4.143,-4.1873,-4.2252,-4.2758,-4.3485,-4.4938,-4.6117,-4.6943,-4.8025,-4.9062,-5.0069,-5.0101,-5.0332,-5.0858,-5.0211,-4.9873,-4.9757,-4.9183,-4.8719,-4.832,-4.832,-4.832,-4.832,-4.8441,-4.8814,-4.9236,-4.8441,-4.8225,-4.8314,0.0,0.0,0.0,0.0,-4.6621,-4.6442,0.0,0.0,0.0,-1.2799,-1.3341,-1.3956,-1.4693,-1.5986,-1.7577,-1.9448,-2.2069,-2.4854,-2.7653,-2.9687,-3.1013,-3.1333,-3.19,-3.178,-3.0702,-3.096,-3.1976,-3.3879,-3.4881,-3.6013,-3.7429,-3.8012,-3.8413,-3.8508,-3.786,-3.7891,-3.8508,-3.86,-3.8939,-3.949,-3.949,-3.9154,-3.8477,-3.78,-3.6997,-3.6135,-3.5123,-3.4729,-3.4544,-3.2786,-3.2029,-3.1615,-2.9416,-2.8586,-2.816,-2.5848,0.0,0.0,0.0,0.0,0.0,0.0,0.0,0.0,0.0,0.0,0.0,0.0,0.0,0.0,0.0,0.0,0.0,0.0,0.0,0.0,0.0,0.0,0.0,0.0,-3.5454,-3.8614,-4.1469,-4.2417,-4.2821,-4.2823,-4.3358,-4.3703,-4.3797,-4.3801,-4.4085,-4.478,-4.5602,-4.6692,-4.819,-4.8948,0.0,0.0,0.0,-5.101,-5.1199,-5.101,-5.082,-5.0628,-5.0434,-4.985,-4.9054,-4.9054,-4.9015,-4.9015,-4.9054,-4.9402,-4.9805,-4.8579,-4.8358,-4.8814,-4.8269,-4.7371,-4.6433,-4.7284,-4.7162,-4.6749,0.0,0.0,-1.266,-1.3785,-1.3833,-1.3941,-1.4603,-1.5507,-1.6821,-1.8827,-2.1369,-2.3867,-2.618,-2.814,-2.9659,-3.0446,-3.0653,-3.0888,-3.1301,-3.2495,-3.3427,-3.3819,-3.5154,-3.6315,-3.7237,-3.729,-3.7691,-3.8508,-3.819,-3.819,-3.8508,-3.9062,-3.94,-3.949,-3.949,-3.9154,-3.8477,-3.78,-3.7092,-3.6445,-3.6199,-3.5615,-3.482,-3.3479,-3.2815,-3.2581,-3.2181,-3.1637,-3.1039,-3.063,-2.9407,-2.7911,-2.6998,0.0,0.0,0.0,0.0,0.0,0.0,0.0,0.0,0.0,0.0,0.0,0.0,0.0,0.0,0.0,0.0,0.0,0.0,0.0,0.0,-3.4352,-3.6753,-3.9092,-4.1338,-4.2728,-4.3585,-4.3725,-4.3746,-4.3892,-4.4464,-4.4527,-4.4812,-4.5539,-4.6771,-4.7743,-4.8408,-4.9655,-5.0583,-5.1092,-5.1162,-5.1162,-5.1199,-5.101,-5.0858,-5.082,-5.0473,0.0,-5.0016,-4.9821,-4.971,-4.971,-4.9938,-4.9962,-4.9868,-4.9202,-4.8789,-4.8493,-4.7649,-4.6997,-4.658,-4.6743,-4.6816,-4.6858,0.0,-1.1675,-1.2136,-1.3182,-1.3207,-1.3367,-1.4126,-1.5161,-1.6451,-1.8133,-2.0407,-2.2634,-2.479,-2.6184,-2.7339,-2.8228,-2.8664,-2.9607,-3.1362,-3.2615,-3.3728,-3.4724,-3.5879,-3.6675,-3.7075,-3.7375,-3.7623,-3.7855,-3.8126,-3.8343,-3.8508,-3.9216,-3.9674,-3.9982,-3.9982,-3.9613,-3.897,-3.8292,-3.7615,-3.6938,-3.6168,-3.5615,-3.5217,-3.482,-3.4638,-3.4425,-3.3816,-3.3418,-3.2991,-3.2038,-3.127,-3.0475,-2.9128,-2.7132,-2.5023,0.0,0.0,0.0,0.0,0.0,0.0,0.0,0.0,0.0,0.0,0.0,0.0,0.0,0.0,-2.8876,-2.9571,0.0,-3.4261,-3.5679,-3.7954,-4.004,-4.1399,-4.3105,-4.4246,-4.4351,-4.4563,-4.4907,-4.5223,-4.557,-4.576,-4.5823,-4.7403,-4.8377,-4.8328,-4.9675,-5.0589,-5.0896,-5.0896,-5.0972,-5.1048,-5.0934,-5.0896,-5.0896,-5.0705,-5.0512,-5.0317,-5.0168,-5.005,-4.9931,-5.005,-5.001,-4.9868,-4.9406,-4.8972,-4.8593,-4.813,-4.7666,-4.7303,-4.7303,-4.7147,-4.6925,0.0,0.0,-1.1481,-1.2219,-1.244,-1.2799,-1.3636,-1.4817,-1.6123,-1.7604,-1.9266,-2.1124,-2.3333,-2.4095,-2.4886,-2.5968,-2.698,-2.8657,-3.1274,-3.2376,-3.3728,-3.5595,-3.6328,-3.6728,-3.673,-3.7364,-3.7524,-3.714,-3.7842,-3.8244,-3.8409,-3.8962,-3.9514,-4.0002,-4.0002,-3.9668,-3.8992,-3.844,-3.7826,-3.7089,-3.5706,-3.5248,-3.5431,-3.5645,-3.5766,-3.5676,-3.4545,-3.4023,-3.3646,-3.2232,-3.1863,-3.1767,-3.0284,-2.899,-2.7696,-2.6342,-2.4968,0.0,0.0,0.0,0.0,0.0,0.0,0.0,0.0,0.0,-2.8483,-2.9817,-3.1602,-3.2956,-3.3082,-3.5236,-3.704,-3.7198,-3.9345,-4.1272,-4.2094,-4.3769,-4.497,-4.5096,-4.5634,-4.6013,-4.6013,-4.6487,-4.6582,-4.6044,-4.7561,-4.8403,-4.8216,-4.9394,-5.0236,-5.0589,-5.0589,-5.0666,-5.082,-5.0858,-5.0896,-5.0896,-5.0896,-5.0705,-5.0356,-5.0317,-5.0129,-4.9892,-4.9971,-4.9971,-4.9947,-4.9642,-4.9309,-4.9001,-4.907,-4.8691,-4.8188,-4.8058,-4.754,-4.6957,0.0,0.0,0.0,-1.2101,-1.2396,-1.2756,-1.3518,-1.4302,-1.5551,-1.7529,-1.8,-1.9151,-2.1744,-2.2178,-2.3065,-2.5062,-2.7004,-2.9028,-3.1188,-3.2526,-3.3928,-3.5462,-3.5612,-3.5709,-3.584,-3.6403,-3.677,-3.704,-3.751,-3.7876,-3.8077,-3.8138,-3.8229,-3.829,-3.829,-3.7925,-3.7286,-3.7225,-3.6799,-3.6129,-3.5337,-3.5033,-3.4972,-3.4334,-3.4213,-3.4362,-3.412,-3.2962,-3.1732,-3.2678,-3.1965,-3.072,-3.1221,-3.0768,-2.973,-2.8031,0.0,-2.5155,-2.461,-2.5579,-2.6819,-2.7246,-2.8541,-3.0132,0.0,0.0,-3.2051,-3.3275,-3.4333,-3.5236,-3.5808,-3.7701,-3.9376,-4.004,-4.143,-4.2916,-4.418,-4.5128,-4.5918,-4.6487,-4.6645,-4.6676,-4.6676,-4.6771,-4.6771,-4.6708,-4.6898,-4.7389,-4.8185,-4.891,-4.9726,-5.0557,-5.0589,-5.0628,-5.0628,-5.082,-5.0896,-5.0896,-5.0896,-5.0781,-5.055,-5.0395,-5.0129,-4.9931,-5.0129,-5.0278,-5.0285,-5.057,-5.0311,-4.971,-4.9858,-4.9511,-4.8799,-4.822,-4.754,-4.6892,0.0,0.0,0.0,-1.1029,-1.201,-1.2838,-1.2947,-1.3814,-1.4959,-1.6336,-1.6892,-1.7746,-1.9312,-1.991,-2.0619,-2.157,-2.42,-2.671,-2.8764,-3.1278,-3.333,-3.4671,-3.5215,-3.5522,-3.5557,-3.5791,-3.6009,-3.6239,-3.6806,-3.7204,-3.7433,-3.7828,-3.801,-3.801,-3.801,-3.7828,-3.7555,-3.716,-3.6613,-3.5944,-3.5151,-3.4455,-3.3757,-3.2943,-3.2517,-3.2385,-3.2724,-3.2112,0.0,0.0,-3.1313,-3.1028,-3.1385,-3.1041,-3.0412,-2.9744,-2.8849,0.0,-2.9454,0.0,0.0,0.0,-3.3035,-3.4924,-3.4467,-3.4865,-3.5458,-3.5969,-3.6977,-3.7859,-3.8175,-3.9945,-4.1588,0.0,-4.3579,-4.4843,-4.5792,-4.6202,-4.6487,-4.6771,-4.6803,-4.6803,-4.6803,-4.6803,-4.6645,-4.6266,-4.6992,-4.7409,-4.7395,-4.8441,-4.9208,-4.9603,-4.9985,-5.0246,-5.0434,-5.0512,-5.0628,-5.0743,-5.0743,-5.0666,-5.0589,-5.0395,-5.0207,-5.0129,-5.0395,-5.055,-5.0666,-5.082,-5.0779,-5.0601,-5.0709,-5.0293,-4.9548,-4.8868,-4.8414,-4.8123,0.0,0.0,0.0,-1.0648,-1.2043,-1.2999,-1.2519,-1.3498,-1.4599,-1.5391,-1.5893,-1.6451,-1.7206,-1.7967,-1.8631,-1.9109,-2.1791,-2.4452,-2.6743,-2.986,-3.2227,-3.3561,-3.4582,-3.5155,-3.5155,-3.5367,-3.5554,-3.5653,-3.6135,-3.6441,-3.6602,-3.7056,-3.7298,-3.7298,-3.7298,-3.7298,-3.7268,-3.6604,-3.6029,-3.5483,-3.427,-3.3427,-3.2731,-3.1618,-3.0953,-3.0643,-3.1028,-3.0708,0.0,0.0,-2.9838,-3.0346,-3.0608,-3.0629,-3.0675,-3.1097,-3.0936,-3.0998,-3.2588,0.0,0.0,-3.4415,-3.6785,-3.8649,-3.6911,-3.748,-3.8427,-3.8617,-3.9566,-4.0451,-4.064,-4.2094,-4.3421,-4.3927,-4.5001,-4.5981,-4.6455,-4.6676,-4.6803,-4.6803,-4.6803,-4.6803,-4.6803,-4.6803,-4.6613,-4.6108,-4.6866,-4.7182,-4.6803,-4.794,-4.8699,-4.8889,-4.9552,-5.001,-5.0168,-5.0246,-5.0395,-5.0512,-5.0589,-5.0589,-5.0512,-5.0395,-5.0356,-5.0363,-5.0589,-5.0743,-5.0896,-5.0972,-5.1086,-5.1199,-5.1199,-5.0876,-5.0325,-4.9807,-4.9354,-4.8994,0.0,0.0,0.0,0.0,-1.2727,-1.3282,-1.2441,-1.3437,-1.455,-1.5206,-1.4976,-1.5073,-1.5872,-1.661,-1.7601,-1.8891,-2.0819,-2.3159,-2.5937,-2.8521,-3.0632,-3.2106,-3.3502,-3.4218,-3.4218,-3.5063,-3.5519,-3.5519,-3.5519,-3.5549,-3.5549,-3.5549,-3.5579,-3.5579,-3.5579,-3.5579,-3.5519,-3.4863,-3.4563,-3.4354,-3.2407,-3.1988,-3.2317,-3.04,-2.9651,-2.9589,-2.9221,0.0,0.0,-2.7222,-2.7347,-2.7689,-2.8591,-2.9688,0.0,-3.1943,-3.226,-3.2228,0.0,0.0,-3.6472,-3.7196,-3.8965,-4.0324,-3.9566,-3.9945,-4.0704,-4.1336,-4.2062,-4.2789,-4.345,-4.418,-4.4654,-4.4685,-4.5317,-4.5823,-4.5855,-4.6392,-4.6803,-4.6803,-4.6803,-4.6803,0.0,-4.6803,-4.6803,-4.6771,-4.6202,-4.6139,-4.6771,-4.753,-4.8225,-4.8857,-4.9552,-4.9892,-4.9931,-5.0168,-5.0317,-5.0285,-5.0512,-5.0512,-5.0317,-5.0317,-5.0434,-5.0589,-5.0781,-5.0896,-5.0896,-5.1124,-5.1167,-5.1199,-5.1199,-5.1167,-5.1135,-5.1135,-5.0228,-4.8994,0.0,0.0,0.0,0.0,0.0,-1.2152,-1.1579,-1.2935,-1.4169,-1.4522,-1.4878,0.0,0.0,0.0,0.0,0.0,-1.9342,-2.1434,-2.3629,-2.6352,-2.8526,-2.9841,-3.1751,-3.2818,-3.2818,-3.3502,-3.3921,-3.4046,-3.4046,-3.4079,-3.4173,-3.4173,-3.4173,-3.4173,-3.4173,-3.4173,-3.4143,-3.3455,-3.2916,-3.2377,-3.0851,-3.0372,-3.0402,-2.8873,-2.8004,-2.749,0.0,0.0,-2.5636,-2.5299,-2.5531,-2.6156,-2.6993,-2.7619,-2.8397,-3.0329,-3.188,-3.3467,0.0,0.0,-3.8744,-3.9914,-4.1462,-4.2505,-4.1778,-4.2157,-4.2726,-4.2947,-4.2853,-4.2884,-4.3576,-4.3895,-4.4338,-4.5286,-4.6013,-4.6645,-4.7119,-4.6961,-4.6803,-4.6803,-4.6424,0.0,0.0,0.0,0.0,-4.6139,-4.595,-4.5918,-4.6139,-4.6803,-4.7498,-4.8193,-4.8889,-4.9457,-4.9892,-5.001,-5.005,-5.005,-5.0434,-5.055,-5.0512,-5.0781,-5.0858,-5.082,-5.101,-5.1124,-5.1086,-5.101,-5.101,-5.0972,-5.0858,-5.0896,-5.101,-5.101,-5.072,-5.03,0.0,0.0,0.0,0.0,0.0,0.0,0.0,0.0,0.0,0.0,0.0,0.0,0.0,0.0,0.0,0.0,0.0,-1.9798,-2.1498,-2.3952,-2.593,-2.7231,-2.8934,-3.0073,-3.0543,-3.1043,-3.1575,-3.2198,-3.2198,-3.2347,-3.2646,-3.2884,-3.3003,-3.3003,-3.3303,-3.3273,-3.3034,-3.2407,-3.163,-3.0702,-2.9146,-2.8517,-2.8342,-2.6752,-2.5884,0.0,0.0,0.0,-2.3404,-2.3234,-2.3969,-2.5025,-2.5617,-2.7105,-2.8858,-3.0195,-3.2392,-3.5015,0.0,-3.9376,-4.0577,-4.1999,-4.3232,-4.3861,-4.32,-4.3579,-4.405,-4.405,-4.3137,-4.26,-4.3513,-4.3105,-4.32,-4.5096,-4.6013,-4.6613,-4.7087,-4.6961,-4.6613,-4.6108,-4.5918,-4.5823,0.0,0.0,0.0,-4.5823,-4.5823,-4.5823,-4.5823,-4.6455,-4.715,-4.7877,-4.8541,-4.9205,-4.986,-4.9892,-4.9971,-5.005,-5.0356,-5.0589,-5.0705,-5.0972,-5.1048,-5.101,-5.1162,-5.1162,-5.1086,-5.0934,-5.0858,-5.0781,-5.0666,-5.0666,-5.0781,-5.0781,-5.0781,-5.082,0.0,0.0,0.0,0.0,0.0,0.0,0.0,0.0,0.0,0.0,0.0,0.0,0.0,0.0,0.0,0.0,0.0,0.0,-1.9684,-2.1448,-2.2992,-2.4275,-2.5292,-2.6374,-2.7569,-2.7868,-2.8621,-2.9921,-2.9921,-3.0216,-3.0807,-3.1486,-3.1811,-3.184,-3.2613,-3.2644,-3.202,-3.1453,-3.0524,-2.9205,-2.723,-2.6404,-2.6152,-2.4253,0.0,0.0,0.0,0.0,0.0,0.0,0.0,0.0,-2.4689,-2.8131,-3.2017,-3.1552,-3.3819,-3.6819,-3.8303,-4.0198,-4.2062,-4.3421,-4.4243,-4.4527,-4.3829,-4.4243,-4.4685,-4.4559,-4.2884,-4.181,0.0,0.0,-4.1304,-4.3959,-4.5128,-4.5697,-4.5697,-4.6234,-4.6171,0.0,0.0,0.0,0.0,0.0,0.0,-4.5823,-4.5823,-4.5823,-4.5823,-4.6392,-4.7087,-4.7877,-4.8509,-4.9173,-4.986,-4.9892,-5.005,-5.0317,-5.0317,-5.055,-5.0896,-5.0896,-5.101,-5.1199,-5.1199,-5.1086,-5.0896,-5.0858,-5.0743,-5.0589,-5.0589,-5.0589,-5.0589,-5.0589,-5.0589,-5.0628,0.0,0.0,0.0,0.0,0.0,0.0,0.0,0.0,0.0,0.0,0.0,0.0,0.0,0.0,0.0,0.0,0.0,0.0,-1.9284,-1.995,-2.0876,-2.2215,-2.3493,-2.436,-2.4677,-2.5189,-2.5694,-2.6196,-2.6221,-2.641,-2.6714,-2.744,-2.7791,-2.782,-2.8471,-2.8648,-2.8471,-2.7843,-2.7098,-2.6268,0.0,-2.414,-2.4081,0.0,0.0,0.0,0.0,0.0,0.0,0.0,0.0,0.0,0.0,-3.0018,-3.2316,-3.372,-3.5943,-3.8523,-4.0956,-4.2758,-4.399,-4.4369,-4.4591,-4.4527,-4.3829,-4.4243,-4.4275,-4.2695,-4.0735,-3.9092,0.0,0.0,0.0,-3.9914,-4.2442,0.0,-4.4211,-4.4369,0.0,-4.4685,0.0,-4.5223,-4.576,-4.5823,0.0,0.0,-4.5823,-4.5823,-4.5823,-4.5981,-4.6613,-4.7846,-4.8067,-4.8731,-4.986,-4.9892,-5.0129,-5.0512,-5.0512,-5.0743,-5.1124,-5.1124,-5.1162,-5.1167,-5.1048,-5.0934,-5.0858,-5.0589,-5.0434,-5.0356,-5.0168,-5.0207,-5.0395,-5.0395,-5.0395,-5.0395,0.0,0.0,0.0,0.0,0.0,0.0,0.0,0.0,0.0,0.0,0.0,0.0,0.0,0.0,0.0,0.0,0.0,0.0,0.0,-1.8775,-1.9445,-2.0535,-2.114,-2.1712,-2.2232,-2.2363,-2.277,-2.3432,-2.3479,0.0,-2.4177,-2.4844,-2.5184,-2.5262,-2.5957,-2.6129,-2.5835,-2.5525,0.0,0.0,0.0,0.0,0.0,0.0,0.0,0.0,0.0,0.0,0.0,0.0,0.0,-2.9193,-3.0866,-3.273,-3.4635,-3.6019,0.0,-4.0767,-4.2631,-4.4148,-4.5128,-4.478,-4.4496,-4.3892,-4.2631,-4.2378,-4.1841,-3.9756,-3.7417,0.0,-3.4731,0.0,0.0,0.0,0.0,0.0,-4.3234,-4.3516,-4.3703,0.0,-4.4338,0.0,-4.5286,-4.5634,-4.5823,0.0,-4.5823,-4.5823,-4.5823,-4.5823,-4.6455,-4.7846,-4.7909,-4.8541,-4.986,-5.001,-5.0246,-5.0589,-5.0705,-5.0896,-5.1199,-5.1124,-5.1086,-5.1048,-5.0858,-5.0705,-5.0628,-5.0395,-5.0207,-5.0089,-4.9971,-5.001,-5.0129,-5.0129,-5.0129,-5.0129,0.0,0.0,0.0,0.0,0.0,0.0,0.0,0.0,0.0,0.0,-1.4113,0.0,0.0,0.0,0.0,0.0,0.0,0.0,0.0,0.0,0.0,-1.9215,-1.8877,-1.9163,-2.0217,-1.9831,-2.0169,0.0,0.0,0.0,0.0,0.0,0.0,0.0,0.0,0.0,0.0,0.0,0.0,0.0,0.0,0.0,0.0,0.0,0.0,0.0,0.0,0.0,0.0,0.0,-2.9561,-3.1512,-3.3382,-3.5691,-3.7837,-3.8529,-4.0668,-4.2979,-4.3769,-4.4839,-4.5602,-4.478,-4.405,-4.3011,-4.083,-3.9756,-3.8555,-3.6187,0.0,-3.1785,-3.1501,-3.2139,-3.3403,-3.5398,0.0,-4.1304,-4.2031,-4.2821,-4.3137,-4.26,-4.3674,-4.4496,-4.4685,-4.5286,-4.5697,-4.5792,-4.5823,-4.5823,-4.5823,-4.5823,-4.6455,-4.7846,-4.8105,-4.8769,-4.9939,-5.0207,-5.0434,-5.0628,-5.082,-5.0972,-5.1162,-5.0972,-5.0858,-5.0858,-5.0666,-5.0473,-5.0317,-5.0246,-5.0089,-4.9892,-4.9892,-4.9892,-4.9892,-4.9892,-4.9892,-4.9892,0.0,0.0,0.0,0.0,0.0,0.0,0.0,0.0,0.0,0.0,-1.538,-1.533,0.0,0.0,0.0,0.0,0.0,0.0,0.0,0.0,0.0,0.0,-1.8506,-1.8621,-1.8846,0.0,0.0,0.0,0.0,0.0,0.0,0.0,0.0,0.0,0.0,0.0,0.0,0.0,0.0,0.0,0.0,0.0,0.0,0.0,0.0,0.0,0.0,0.0,0.0,0.0,-3.1159,-3.407,-3.5552,-3.7717,-4.0004,-4.1093,-4.2425,-4.3835,-4.5096,-4.5634,-4.5507,-4.4211,-4.339,-4.2157,-3.9503,-3.8333,0.0,0.0,-3.0788,-2.9114,-2.7399,-2.8577,-3.0314,-3.183,0.0,0.0,0.0,0.0,-4.1304,0.0,0.0,0.0,0.0,0.0,0.0,0.0,-4.5823,-4.5823,-4.5823,-4.5823,-4.6455,-4.7846,-4.9208,-4.9985,-5.0207,-5.0434,-5.0666,-5.0858,-5.0858,-5.0896,-5.0934,-5.0896,-5.082,-5.0628,-5.0434,-5.0356,-5.0285,-5.005,-4.9931,-4.9892,-4.9892,-4.9892,-4.9892,-4.9892,-4.9892,-4.9892,0.0,0.0,0.0,0.0,0.0,0.0,0.0,-1.687,-1.7726,-1.8345,-1.8304,-1.7786,-1.6632,-1.6087,-1.6201,0.0,0.0,0.0,0.0,0.0,0.0,0.0,0.0,0.0,0.0,0.0,0.0,0.0,0.0,0.0,0.0,0.0,0.0,0.0,0.0,0.0,0.0,0.0,0.0,0.0,0.0,0.0,0.0,0.0,0.0,0.0,0.0,0.0,0.0,0.0,-2.975,-3.3769,-3.6261,-3.8805,-4.1007,-4.1872,-4.3113,-4.4433,-4.5507,-4.5823,-4.5476,-4.405,-4.2663,-4.0672,-3.7133,0.0,0.0,0.0,-2.7146,-2.5862,-2.4176,0.0,0.0,0.0,0.0,0.0,0.0,0.0,0.0,0.0,0.0,0.0,0.0,0.0,-4.5033,-4.576,-4.5823,-4.5823,-4.5823,-4.6487,-4.7409,-4.8536,-4.9699,-5.0356,-5.0473,-5.0666,-5.0781,-5.0896,-5.0896,-5.0896,-5.0896,-5.0666,-5.055,-5.0434,-5.0168,-5.0089,-5.0089,-4.9971,-4.9892,-4.9892,-4.9892,-4.9892,-4.9892,-4.9892,-4.9892,-4.9892,0.0,0.0,0.0,0.0,0.0,0.0,0.0,-1.8345,-1.9449,-2.0518,-2.0725,-1.9965,-1.7983,-1.7036,-1.683,0.0,0.0,0.0,0.0,0.0,0.0,0.0,0.0,0.0,0.0,0.0,0.0,0.0,0.0,0.0,0.0,0.0,0.0,0.0,0.0,0.0,0.0,0.0,0.0,0.0,0.0,0.0,0.0,0.0,0.0,0.0,0.0,0.0,0.0,0.0,-2.751,-3.1331,-3.5001,-3.843,-4.1225,-4.1747,-4.3204,-4.4804,-4.5566,-4.5697,-4.5286,-4.4022,-4.1998,-3.9282,-3.5208,-3.1994,0.0,0.0,-2.4043,-2.3096,-2.209,0.0,-2.6577,0.0,0.0,0.0,0.0,0.0,0.0,0.0,0.0,0.0,0.0,0.0,0.0,-4.5728,-4.595,-4.6013,-4.6013,-4.7214,-4.8308,-4.9165,-4.9974,-5.0473,-5.0666,-5.0858,-5.0934,-5.0896,-5.0896,-5.0858,-5.0743,-5.0434,-5.0246,-5.0207,-5.001,-4.9892,-4.9892,-4.9892,-4.9892,-4.9892,-4.9892,-4.9892,-4.9892,-4.9892,-4.9892,-4.9892,0.0,0.0,0.0,0.0,0.0,0.0,0.0,-1.8074,-1.9772,-2.0421,-2.0725,-2.0535,-1.9679,-1.9208,-1.8682,0.0,0.0,0.0,0.0,0.0,0.0,0.0,0.0,0.0,0.0,0.0,0.0,0.0,0.0,0.0,0.0,0.0,0.0,0.0,0.0,0.0,0.0,0.0,0.0,0.0,0.0,0.0,0.0,0.0,0.0,0.0,0.0,0.0,0.0,0.0,0.0,-2.6303,-3.0483,-3.5672,-4.0341,-4.0995,0.0,0.0,-4.5597,-4.5317,-4.4622,-4.3864,-4.1521,-3.8496,-3.5005,0.0,0.0,-2.4587,-2.2828,-2.1872,-2.1834,-2.2627,-2.4144,0.0,0.0,-3.1918,0.0,0.0,0.0,0.0,0.0,0.0,0.0,0.0,-4.4334,-4.5728,-4.636,-4.6708,-4.6708,-4.7466,-4.8308,-4.9165,-5.009,-5.0666,-5.0858,-5.1086,-5.1086,-5.0896,-5.0896,-5.0705,-5.0356,-5.0317,-5.0168,-4.9931,-4.9931,-4.9892,-4.9892,-4.9892,-4.9892,-4.9892,-4.9892,-4.9892,-4.9892,-4.9892,-4.9892,-4.9892,0.0,0.0,0.0,0.0,0.0,0.0,-1.6447,-1.7822,-1.9272,-2.0886,-2.1511,-2.1458,-2.0488,-2.027,-1.9515,-1.7737,0.0,0.0,0.0,0.0,0.0,0.0,0.0,0.0,0.0,0.0,-1.8147,-1.8234,-1.8301,0.0,0.0,0.0,0.0,0.0,0.0,0.0,0.0,0.0,0.0,0.0,0.0,0.0,0.0,0.0,0.0,0.0,0.0,0.0,0.0,0.0,0.0,0.0,-2.5804,-2.9547,0.0,0.0,-4.0252,-4.183,-4.3952,-4.4232,-4.3658,-4.259,-4.0695,-3.8028,-3.3772,0.0,-2.7163,-2.3768,-2.2008,-2.1118,-2.1135,-2.1771,-2.3196,-2.6009,0.0,0.0,0.0,0.0,0.0,0.0,0.0,0.0,0.0,0.0,-4.4275,-4.5697,-4.6424,-4.6992,-4.7435,-4.8244,-4.9095,-5.0026,-5.0506,-5.0858,-5.1086,-5.1162,-5.1124,-5.0896,-5.0781,-5.0589,-5.0285,-5.0129,-5.001,-4.9892,-4.9892,-4.9892,-4.9892,-4.9892,-4.9892,-4.9892,-4.9892,-4.9892,-4.9892,-4.9892,-4.9892,-4.9892,0.0,0.0,0.0,0.0,0.0,-1.4994,-1.6606,-1.7705,-1.9054,-2.1015,-2.1668,-2.1695,-2.109,-2.0456,-1.9456,-1.796,-1.8094,0.0,0.0,0.0,0.0,0.0,0.0,0.0,0.0,0.0,-1.833,-1.8418,-1.8624,-1.8768,0.0,0.0,0.0,0.0,0.0,0.0,0.0,0.0,0.0,0.0,0.0,0.0,0.0,0.0,0.0,0.0,0.0,0.0,0.0,0.0,0.0,0.0,0.0,0.0,0.0,0.0,-3.7466,-3.9124,-4.1862,-4.2676,-4.2448,-4.1288,-3.9654,-3.725,0.0,0.0,-2.6483,-2.3503,-2.1721,-2.071,-2.0743,-2.1186,-2.237,-2.4926,0.0,-2.7807,0.0,0.0,0.0,0.0,0.0,-4.0765,0.0,-4.405,-4.4812,-4.6013,-4.674,-4.7435,-4.8162,-4.9095,-4.9892,-5.0557,-5.0781,-5.101,-5.1199,-5.1199,-5.1086,-5.082,-5.0666,-5.0473,-5.0168,-5.001,-4.9892,-4.9892,-4.9892,-4.9892,-4.9892,-4.9892,-4.9892,-4.9892,-4.9892,-4.9892,-4.9892,-4.9892,-4.9892,-4.9892,0.0,0.0,0.0,0.0,0.0,0.0,-1.6022,-1.7735,-1.9316,-2.0568,-2.0826,-2.1062,-2.1433,-1.959,-1.8477,-1.8845,-1.8046,0.0,0.0,0.0,0.0,0.0,0.0,0.0,0.0,0.0,-1.8877,-1.8877,-1.9629,-1.997,-1.997,-1.9426,-1.919,-1.9162,0.0,0.0,0.0,0.0,0.0,0.0,0.0,0.0,0.0,0.0,0.0,0.0,0.0,0.0,0.0,0.0,0.0,0.0,0.0,-2.2918,-2.4234,0.0,-3.4558,-3.7157,-3.9526,-4.062,-4.0964,-4.0278,-3.8433,-3.6102,0.0,0.0,-2.597,-2.3973,-2.2048,-2.0726,-2.0778,-2.076,-2.1401,-2.3488,-2.5446,0.0,0.0,0.0,0.0,0.0,0.0,-4.1103,-4.3207,-4.4863,-4.6076,-4.674,-4.7466,-4.8193,-4.8825,-4.9981,-5.0589,-5.0589,-5.0781,-5.101,-5.1199,-5.1199,-5.101,-5.0589,-5.0589,-5.0363,-4.9931,-4.9892,-4.9892,-4.9892,-4.9892,-4.9892,-4.9892,-4.9892,-4.9892,-4.9892,-4.9892,-4.9892,-4.9892,-4.9892,-4.9892,-4.9892,0.0,0.0,0.0,0.0,0.0,0.0,0.0,-1.5912,-1.699,-1.8162,-1.9022,-1.9572,-1.9708,-1.9127,-1.8603,-1.8375,-1.7797,0.0,0.0,0.0,0.0,0.0,0.0,0.0,0.0,-1.9184,-1.9636,-1.9994,-1.9871,-2.0047,-2.047,-1.9562,-1.9107,-1.91,-1.8146,0.0,0.0,0.0,0.0,0.0,0.0,0.0,0.0,0.0,0.0,0.0,0.0,0.0,0.0,0.0,0.0,0.0,0.0,0.0,0.0,-2.5606,-2.9075,-3.2265,-3.4594,-3.597,-3.6473,-3.5323,-3.4771,-3.3638,-3.0459,0.0,-2.5685,-2.3226,-2.1525,-2.0508,-2.0525,-2.0527,-2.1873,-2.5811,-2.6918,0.0,0.0,0.0,0.0,0.0,0.0,-4.3539,0.0,0.0,-4.6076,-4.674,-4.7466,-4.8193,-4.8857,-5.0012,-5.0589,-5.0589,-5.0934,-5.1162,-5.1199,-5.1199,-5.101,-5.0589,-5.0589,-5.0324,-4.9892,-4.9892,-4.9892,-4.9892,-4.9892,-4.9892,-4.9892,-4.9892,-4.9892,-4.9892,-4.9892,-4.9892,-4.9892,-4.9892,-4.9892,-4.9892,0.0,0.0,0.0,0.0,0.0,0.0,0.0,-1.5042,-1.582,-1.6781,-1.7512,-1.8192,-1.8845,-1.8367,-1.8127,-1.8468,-1.7845,0.0,0.0,0.0,0.0,0.0,0.0,0.0,-1.8995,-1.9466,-2.0103,-2.0965,-2.0852,-2.1008,-2.1454,-2.06,-1.9952,-1.9475,-1.8536,-1.7979,0.0,0.0,0.0,0.0,0.0,0.0,-1.8431,0.0,0.0,0.0,0.0,0.0,0.0,0.0,0.0,0.0,0.0,0.0,0.0,0.0,-2.4593,-2.7403,0.0,-3.2826,-3.3604,-3.2712,-3.2592,0.0,0.0,0.0,-2.5068,-2.3114,-2.1502,-2.0457,-2.0457,-2.0443,-2.161,-2.5145,-2.6032,0.0,0.0,0.0,0.0,0.0,0.0,0.0,0.0,-4.5381,-4.6202,-4.715,-4.7624,-4.8288,-4.9236,-5.0101,-5.0589,-5.0589,-5.101,-5.1199,-5.1199,-5.1199,-5.101,-5.0589,-5.0589,-5.0324,-4.9892,-4.9892,-4.9892,-4.9892,-4.9892,-4.9892,0.0,-4.9892,-4.9892,-4.9892,-4.9892,-4.9892,-4.9892,-4.9892,-4.9892,-4.9892,0.0,0.0,0.0,0.0,0.0,0.0,0.0,-1.4916,-1.5574,-1.6179,-1.6336,-1.699,-1.8558,-1.7413,-1.7233,-1.8847,0.0,0.0,0.0,0.0,0.0,0.0,0.0,0.0,-1.9727,-1.9809,-2.047,-2.176,-2.2336,-2.266,-2.276,-2.2273,-2.1397,-2.0199,-1.9635,-1.9034,-1.8478,-1.8344,-1.8305,-1.8305,-1.8262,-1.8226,0.0,0.0,0.0,0.0,0.0,0.0,0.0,0.0,0.0,0.0,0.0,0.0,0.0,0.0,0.0,0.0,0.0,-3.0609,-3.1757,-3.1729,-3.1351,-3.0689,0.0,0.0,0.0,-2.3471,-2.1823,-2.0539,-2.0726,-2.0626,-2.1069,-2.2759,0.0,0.0,0.0,0.0,0.0,0.0,-4.3808,0.0,-4.4903,-4.5476,-4.6392,-4.7782,-4.7909,-4.8509,-4.9797,-5.0356,-5.0589,-5.0589,-5.101,-5.1199,-5.1199,-5.1199,-5.101,-5.0589,-5.0589,-5.0324,-4.9892,-4.9892,-4.9892,-4.9892,-4.9892,-4.9892,-4.9892,-4.9892,-4.9892,-4.9892,-4.9892,-4.9892,-4.9892,-4.9892,-4.9892,-4.9892,0.0,0.0,0.0,0.0,0.0,0.0,0.0,0.0,0.0,0.0,-1.5833,-1.6545,-1.6937,-1.7119,-1.7365,0.0,0.0,0.0,0.0,0.0,0.0,0.0,0.0,0.0,-2.0209,-2.0832,-2.1524,-2.2314,-2.2451,-2.2828,-2.3368,-2.2785,-2.1896,-2.0706,-2.0206,-1.9384,-1.8324,-1.8305,-1.8372,-1.8459,-1.8439,-1.8159,0.0,0.0,0.0,0.0,-1.7819,-1.8006,0.0,0.0,0.0,0.0,0.0,0.0,0.0,0.0,-2.0865,-2.1484,-2.3777,0.0,-2.674,-2.681,-2.7132,-2.7241,0.0,0.0,0.0,0.0,0.0,0.0,0.0,0.0,0.0,0.0,0.0,0.0,0.0,0.0,0.0,-4.4642,-4.5277,-4.5945,-4.7056,-4.6329,-4.6392,-4.7782,-4.7909,-4.8509,-4.9797,-5.0356,-5.0589,-5.0589,-5.101,-5.1199,-5.1199,-5.1199,-5.101,-5.0589,-5.0589,-5.0324,-4.9892,-4.9892,-4.9892,-4.9892,-4.9892,-4.9892,-4.9892,-4.9892,-4.9892,-4.9892,-4.9892,-4.9892,-4.9892,-4.9892,-4.9892,-4.9892,0.0,0.0,0.0,0.0,0.0,0.0,0.0,0.0,0.0,0.0,0.0,-1.5883,-1.6356,-1.6831,0.0,0.0,0.0,0.0,0.0,0.0,0.0,0.0,0.0,-1.994,-2.0607,-2.098,-2.1839,-2.3147,-2.3096,-2.3476,-2.4239,-2.3626,-2.2679,-2.1453,-2.0326,-1.9265,-1.8305,-1.8305,-1.8324,-1.8411,-1.838,0.0,0.0,0.0,0.0,0.0,-1.7705,-1.791,0.0,-1.9359,-1.9813,-1.9889,0.0,0.0,0.0,0.0,-2.0228,-2.0468,-2.1485,-2.3549,-2.5485,-2.5925,-2.6306,-2.6558,-2.6304,0.0,0.0,0.0,0.0,0.0,0.0,0.0,0.0,0.0,-3.0201,0.0,0.0,0.0,0.0,-4.5515,-4.6213,-4.6691,0.0,-4.6266,-4.6392,-4.7782,-4.7909,-4.8509,-4.9797,-5.0356,-5.0589,-5.0589,-5.101,-5.1199,-5.1199,-5.1199,-5.101,-5.0589,-5.0589,-5.0324,-4.9892,-4.9892,-4.9892,-4.9892,-4.9892,-4.9892,-4.9892,-4.9892,-4.9892,-4.9892,-4.9892,-4.9892,-4.9892,-4.9892,-4.9892,-4.9892,0.0,0.0,0.0,0.0,0.0,0.0,0.0,0.0,0.0,0.0,0.0,0.0,0.0,0.0,0.0,0.0,0.0,0.0,0.0,0.0,0.0,0.0,-1.9729,-2.0333,-2.1158,-2.0983,-2.1825,-2.3761,-2.3828,-2.4267,-2.5006,-2.4643,-2.3659,-2.2137,-2.0322,-1.9103,-1.8324,-1.8324,-1.8324,-1.8324,-1.8282,0.0,0.0,0.0,0.0,0.0,0.0,0.0,0.0,-1.9536,-2.0128,-2.0243,-2.0349,0.0,0.0,0.0,0.0,0.0,-2.0786,-2.3387,-2.5885,-2.6289,-2.6778,-2.7093,-2.7072,0.0,0.0,0.0,0.0,0.0,0.0,0.0,0.0,0.0,0.0,0.0,-3.8591,-4.3087,-4.5784,-4.5688,-4.6605,0.0,-4.6197,-4.595,-4.6392,-4.7782,-4.7909,-4.8509,-4.9797,-5.0356,-5.0589,-5.0589,-5.101,-5.1199,-5.1199,-5.1199,-5.0972,-5.0589,-5.0589,-5.0324,-4.9892,-4.9892,-4.9892,-4.9892,-4.9892,-4.9892,-4.9892,-4.9892,-4.9892,-4.9892,-4.9892,-4.9892,-4.9892,-4.9892,-4.9892,-4.9892,0.0,0.0,0.0,0.0,0.0,0.0,0.0,0.0,0.0,0.0,0.0,0.0,0.0,0.0,0.0,0.0,0.0,0.0,0.0,0.0,0.0,-2.0946,-2.0693,-2.1156,-2.2401,-2.2027,-2.2209,-2.3041,-2.41,-2.4764,-2.5035,-2.5826,-2.4763,-2.2137,-2.0821,-1.9593,-1.8478,-1.8478,-1.8478,-1.8478,-1.8459,0.0,0.0,0.0,0.0,0.0,0.0,0.0,0.0,-1.8885,-1.9434,-1.9519,-1.9686,0.0,0.0,0.0,0.0,0.0,-2.2053,-2.4157,-2.5455,-2.3961,-2.5429,-2.6895,-2.5843,0.0,0.0,0.0,0.0,0.0,0.0,-2.8504,-2.9884,0.0,0.0,-3.8466,0.0,0.0,-4.4709,-4.6418,0.0,-4.6481,-4.7498,-4.6518,-4.6392,-4.7782,-4.7909,-4.8509,-4.9797,-5.0356,-5.0589,-5.0589,-5.101,-5.1199,-5.1199,-5.1048,-5.082,-5.0589,-5.0434,-5.0168,-4.9892,-4.9892,-4.9892,-4.9892,-4.9892,-4.9892,-4.9892,-4.9892,-4.9892,-4.9892,-4.9892,-4.9892,-4.9892,-4.9892,-4.9892,-4.9892,0.0,0.0,0.0,0.0,0.0,0.0,0.0,0.0,0.0,0.0,0.0,0.0,0.0,0.0,0.0,0.0,0.0,0.0,0.0,0.0,-2.1415,-2.2343,-2.2208,-2.2389,-2.3024,-2.2672,-2.3146,-2.4537,-2.5017,-2.5714,-2.6497,-2.6047,-2.4385,-2.1773,-2.0853,-1.9739,-1.8498,-1.8498,-1.8498,-1.8498,0.0,0.0,0.0,0.0,0.0,0.0,0.0,0.0,0.0,0.0,-1.9834,-1.991,-2.0053,0.0,0.0,0.0,0.0,0.0,-2.0892,-2.2938,-2.4549,-2.3655,-2.6077,-2.857,0.0,0.0,0.0,0.0,0.0,0.0,0.0,0.0,-3.2027,-3.5937,0.0,-4.1122,-4.2325,-4.427,-4.5845,0.0,-4.668,-4.6717,-4.6771,-4.6202,-4.6234,-4.7214,-4.7688,-4.832,-4.9299,-5.0133,-5.0589,-5.0589,-5.101,-5.1199,-5.1199,-5.101,-5.0781,-5.0589,-5.0395,-5.0168,-4.9892,-4.9892,-4.9892,-4.9892,-4.9892,-4.9892,-4.9892,-4.9892,-4.9892,-4.9892,-4.9892,-4.9892,-4.9892,-4.9892,-4.9852,-4.9701,0.0,0.0,0.0,0.0,0.0,0.0,0.0,0.0,0.0,0.0,0.0,0.0,0.0,0.0,0.0,0.0,0.0,0.0,0.0,-2.0728,-2.1569,-2.288,-2.3079,-2.3339,-2.3794,-2.3568,-2.4306,-2.6043,-2.6216,-2.6835,-2.788,-2.6238,-2.4134,-2.1737,-2.0876,-1.9773,-1.8537,-1.8517,-1.8498,-1.8498,0.0,0.0,0.0,0.0,0.0,0.0,0.0,0.0,0.0,0.0,0.0,0.0,0.0,0.0,0.0,-2.0079,-1.9828,-1.9798,-2.0314,-2.2134,-2.4027,-2.4472,0.0,0.0,0.0,0.0,0.0,0.0,0.0,0.0,0.0,-3.2443,0.0,-3.8055,-4.0723,-4.2723,-4.3584,-4.5395,-4.6548,-4.6353,-4.6799,-4.6774,-4.5882,-4.5823,-4.6076,-4.674,-4.7466,-4.8231,-4.8934,-5.0012,-5.0628,-5.0666,-5.101,-5.1199,-5.1199,-5.101,-5.0781,-5.0589,-5.0395,-5.0168,-4.9892,-4.9892,-4.9892,-4.9892,-4.9892,-4.9892,-4.9892,-4.9892,-4.9892,-4.9892,-4.9892,-4.9892,-4.9892,-4.9892,-4.9773,-4.9582,0.0,0.0,0.0,0.0,0.0,0.0,0.0,0.0,0.0,0.0,0.0,0.0,0.0,0.0,0.0,0.0,0.0,0.0,0.0,-2.0635,-2.1076,-2.1873,-2.238,-2.3455,-2.52,-2.5226,-2.5597,-2.6367,-2.7483,-2.8083,-2.814,-2.6828,-2.4886,-2.2478,-2.1096,-1.9814,-1.8673,-1.8556,-1.8498,-1.8498,-1.8372,0.0,0.0,0.0,0.0,0.0,0.0,0.0,0.0,0.0,0.0,0.0,0.0,0.0,-2.0525,-2.0609,-2.0198,-2.0115,-2.2133,-2.3271,-2.4403,-2.6436,-2.7666,0.0,-3.0452,-3.1491,0.0,-3.3475,0.0,0.0,0.0,-3.7374,-3.9798,-4.146,-4.2632,-4.3588,-4.4457,0.0,-4.5124,-4.5755,-4.5882,-4.5882,-4.5823,-4.5823,-4.6076,-4.674,-4.7466,-4.827,-4.9127,-5.009,-5.0666,-5.0858,-5.1086,-5.1199,-5.1199,-5.101,-5.0781,-5.0589,-5.0395,-5.0168,-4.9892,-4.9892,-4.9892,-4.9892,-4.9892,-4.9892,-4.9892,-4.9892,-4.9892,-4.9892,-4.9892,-4.9892,-4.9892,-4.9892,-4.9773,-4.9573,0.0,0.0,0.0,0.0,0.0,0.0,0.0,0.0,0.0,0.0,0.0,-1.7907,-1.8226,0.0,0.0,0.0,0.0,0.0,0.0,-2.0071,-2.059,-2.1642,-2.2384,-2.3121,-2.3817,-2.5271,-2.6737,-2.814,-2.8568,-2.8597,-2.8283,-2.6648,-2.4751,-2.2672,-2.1341,-2.0206,-1.9239,-1.8804,-1.8801,-1.9011,-1.8599,-1.8431,0.0,0.0,0.0,0.0,0.0,0.0,0.0,0.0,-1.9372,-1.9439,-1.9879,-1.9994,-2.0023,-2.006,-1.9899,-1.9876,-2.0681,-2.2585,-2.4627,-2.5892,-2.8086,0.0,0.0,-3.3291,-3.4635,-3.6379,-3.6536,0.0,0.0,0.0,-4.0803,-4.1502,-4.3053,-4.4331,-4.465,-4.5096,-4.5507,-4.5792,-4.6171,-4.6424,-4.6424,-4.6834,-4.7214,-4.7466,-4.813,-4.8713,-4.9197,-5.009,-5.0705,-5.0896,-5.1124,-5.1199,-5.1199,-5.1124,-5.0934,-5.0589,-5.0395,-5.0168,-4.9892,-4.9892,-4.9892,-4.9892,-4.9892,-4.9892,-4.9892,-4.9892,-4.9892,-4.9892,-4.9892,-4.9892,-4.9892,-4.9892,-4.9773,-4.9573,0.0,0.0,0.0,0.0,0.0,0.0,0.0,0.0,-1.6876,0.0,0.0,0.0,0.0,-1.847,0.0,0.0,0.0,0.0,-1.9396,-1.9514,-2.0042,-2.1083,-2.2069,-2.2794,-2.32,-2.5369,-2.7161,-2.8426,-2.8971,-2.88,-2.7876,-2.6174,-2.4582,-2.3074,-2.1556,-2.0653,-2.0188,-1.9344,-1.9151,-1.9348,-1.8683,-1.8478,0.0,0.0,0.0,0.0,0.0,0.0,0.0,0.0,-1.9049,-1.9115,-1.9503,-1.9486,-1.9432,-1.9833,-2.012,-2.0337,-2.0337,-2.2443,-2.4814,-2.5751,0.0,0.0,-3.3572,-3.5187,-3.6809,-3.876,-3.8956,0.0,-3.8917,0.0,0.0,0.0,-4.3595,-4.4875,-4.5317,-4.5792,-4.6202,-4.6455,-4.6866,-4.715,-4.715,-4.7593,-4.7909,-4.7909,-4.8509,-4.9005,-4.9197,-5.0051,-5.0628,-5.0896,-5.1048,-5.1162,-5.1199,-5.1199,-5.1048,-5.0705,-5.0512,-5.0207,-4.9892,-4.9892,-4.9892,-4.9892,-4.9892,-4.9892,-4.9892,-4.9892,-4.9892,-4.9892,-4.9892,-4.9892,-4.9892,-4.9892,-4.9773,-4.9573,0.0,0.0,0.0,0.0,0.0,0.0,0.0,0.0,-1.7432,-1.7497,-1.8228,0.0,0.0,0.0,0.0,0.0,0.0,0.0,-1.9008,-1.9045,-1.9391,-2.0059,-2.1307,-2.2585,-2.3856,-2.5803,-2.6791,-2.682,-2.8681,-2.8623,-2.6736,-2.5487,-2.453,-2.3804,-2.1831,-2.1162,-2.1497,-2.0159,-1.9526,-1.9348,-1.8623,-1.8392,-1.8498,0.0,0.0,0.0,0.0,0.0,0.0,0.0,-1.8314,-1.842,-1.9163,-1.9034,-1.8867,-2.0128,-2.1078,-2.1695,-2.1695,-2.311,-2.4986,0.0,0.0,0.0,-3.5121,-3.7264,-3.899,-4.069,-4.1331,-4.1648,-4.1617,-4.1903,0.0,-4.3956,-4.4499,-4.5223,-4.6613,-4.6803,-4.7087,-4.7814,-4.7909,-4.7909,-4.7909,-4.7909,-4.7909,-4.7909,-4.8509,-4.9005,-4.9197,-4.9903,-5.0473,-5.0858,-5.0896,-5.101,-5.1167,-5.1167,-5.1086,-5.0896,-5.0705,-5.0363,-4.9892,-4.9892,-4.9892,-4.9892,-4.9892,-4.9892,-4.9892,-4.9892,-4.9892,-4.9892,-4.9892,-4.9892,-4.9892,-4.9892,-4.9773,-4.9541,0.0,0.0,0.0,0.0,0.0,0.0,0.0,0.0,-1.7906,-1.8342,-1.8627,0.0,0.0,0.0,0.0,0.0,0.0,0.0,-1.9074,-1.9176,-1.9282,-1.9391,-2.07,-2.1382,-2.1295,-2.3658,-2.5733,-2.7405,-2.7985,-2.7521,-2.6094,-2.5226,-2.4244,-2.3171,-2.2576,-2.2105,-2.165,-2.0366,-2.0255,-2.0841,-1.979,-1.9324,-1.9208,0.0,0.0,0.0,0.0,0.0,0.0,0.0,0.0,0.0,-1.8514,-1.9276,-1.9856,-1.9872,-2.099,-2.2081,-2.1237,-2.3789,0.0,-2.7245,0.0,0.0,0.0,-3.8266,0.0,0.0,-4.3663,-4.3914,-4.2897,-4.3334,0.0,-4.4169,-4.5206,-4.6181,-4.674,-4.7245,-4.7656,-4.7877,-4.832,-4.8604,-4.8604,-4.9047,-4.9331,-4.9331,-4.9489,-4.9694,-4.996,-5.019,-5.0434,-5.0666,-5.0705,-5.0705,-5.0781,-5.0781,-5.0705,-5.0473,-5.055,-5.0473,-5.0168,-5.001,-4.9892,-4.9892,-4.9892,-4.9892,-4.9892,-4.9892,-4.9892,-4.9892,-4.9892,-4.9892,-4.9892,-4.9892,-4.9892,-4.9773,0.0,0.0,0.0,0.0,0.0,0.0,-1.8142,-1.8292,-1.8463,-1.8846,-1.895,-1.9007,0.0,0.0,0.0,0.0,0.0,0.0,-1.9213,-1.9288,-1.9405,-1.9612,-2.0675,-2.1331,-2.1448,-2.3472,-2.5009,-2.5962,-2.6407,-2.5974,-2.4747,-2.4839,-2.4437,-2.3693,-2.3972,-2.3572,-2.256,-2.1563,-2.1362,-2.1584,-2.052,-2.0059,-1.9953,0.0,0.0,0.0,0.0,0.0,0.0,0.0,0.0,0.0,-1.7529,-1.8155,-1.8992,-1.9697,-2.1178,-2.2637,-2.296,-2.5465,0.0,-2.9292,-3.2406,-3.5949,-3.8756,0.0,0.0,0.0,0.0,-4.4996,-4.4533,-4.4718,0.0,-4.5348,-4.6228,-4.7082,-4.7555,-4.8004,-4.8383,-4.8667,-4.9047,-4.9299,-4.9299,-4.9679,-4.9892,-4.9892,-4.9892,-4.9971,-5.0129,-5.0129,-5.0246,-5.0473,-5.0473,-5.0512,-5.0589,-5.0589,-5.055,-5.0434,-5.0473,-5.0434,-5.0317,-5.0207,-5.0168,-5.0168,-5.0168,-5.0129,-5.005,-5.0129,-5.0089,-4.9931,-5.001,-5.001,-4.9892,-4.9892,-4.9852,-4.9701,0.0,0.0,-1.6998,-1.6958,0.0,0.0,-1.8836,-1.896,-1.9017,-1.9017,-1.9186,-1.9306,0.0,0.0,0.0,-1.9409,-1.9428,-1.9428,-1.9428,-1.9428,-1.9712,-2.0361,-2.1119,-2.2152,-2.3511,-2.4492,-2.4463,-2.3363,-2.4476,-2.4405,-2.3259,-2.4493,-2.5029,-2.4902,-2.5666,-2.5199,-2.3769,-2.3117,-2.2417,-2.1636,-2.0848,-2.0571,-2.0541,-1.9867,0.0,0.0,0.0,0.0,0.0,0.0,0.0,0.0,-1.6443,-1.6455,-1.7128,-1.9428,-2.1386,-2.3259,-2.5674,0.0,0.0,-3.1958,-3.3814,0.0,-4.1362,-4.3127,-4.4167,-4.5556,0.0,-4.5293,-4.602,-4.5944,-4.6035,-4.6967,-4.7387,-4.7893,-4.8755,-4.8952,-4.9205,-4.9837,-4.9892,-4.9892,-4.9892,-4.9892,-4.9892,-4.9892,-4.9892,-4.9892,-4.9892,-4.9892,-5.001,-5.0278,-5.0246,-5.0356,-5.055,-5.055,-5.055,-5.055,-5.0395,-5.0317,-5.0317,-5.0512,-5.0589,-5.0589,-5.0589,-5.0512,-5.0356,-5.0512,-5.0324,-4.9971,-5.0168,-5.0129,-4.9892,-4.9892,-4.9773,-4.9573,0.0,0.0,-1.7771,-1.7301,0.0,0.0,-1.9045,-1.9139,-1.9242,-1.9242,-1.9335,-1.9391,-1.9391,-1.9409,0.0,-1.9409,-1.9501,-1.9556,-1.9556,-1.9599,-1.9897,-2.0446,-2.1714,-2.331,-2.5228,-2.4004,-2.3486,-2.3855,-2.4733,-2.4781,-2.4069,-2.5364,-2.5688,-2.5217,-2.5864,-2.5057,-2.3207,-2.2088,-2.142,-2.115,-2.0963,-2.0555,-2.0053,-1.989,-1.9401,0.0,0.0,0.0,0.0,0.0,0.0,0.0,-1.6849,-1.7398,-1.7939,-1.8032,-2.044,-2.3267,-2.3963,-2.6629,0.0,0.0,-3.6237,-3.9828,-4.2521,-4.3668,-4.4428,-4.5248,-4.5894,-4.6029,-4.5394,-4.6082,-4.663,-4.6461,-4.7395,-4.8302,-4.8818,-4.9363,-4.9742,-4.986,-4.9892,-4.9892,-4.9892,-4.9892,-4.9892,-4.9892,-4.9892,-4.9892,-4.9892,-4.9892,-4.9931,-4.9971,-5.001,-5.001,-5.005,-5.005,-5.005,-5.005,-5.0207,-5.0317,-5.0317,-5.0324,-5.0473,-5.0589,-5.0589,-5.0589,-5.055,-5.0434,-5.0317,-5.0207,-5.005,-4.9971,-4.9892,-4.9892,-4.9773,-4.9573,0.0,0.0,0.0,0.0,0.0,0.0,0.0,0.0,-1.9391,-1.9446,-1.9483,-1.952,-1.9527,-1.9527,0.0,0.0,-1.9647,-1.9702,-1.9702,-1.978,-2.0267,-2.1173,-2.2556,-2.3522,-2.3958,-2.3262,-2.294,-2.3061,-2.3764,-2.4067,-2.4,-2.5568,-2.6258,-2.6233,-2.6904,-2.5904,-2.3651,-2.2628,-2.1976,-2.1578,-2.1112,-2.0905,-2.0819,-2.0151,-1.9373,-1.8563,-1.8198,0.0,0.0,0.0,0.0,0.0,0.0,0.0,-1.7043,-1.7692,-1.9773,-2.2287,0.0,0.0,0.0,-3.4351,0.0,0.0,-4.2841,-4.3559,-4.3977,-4.4676,-4.5417,-4.5894,-4.5647,-4.6103,-4.6671,-4.7107,-4.7824,-4.8576,-4.9253,-4.9679,-4.9892,-4.9892,-4.9892,-4.9892,-4.9892,-4.9892,-4.9892,-4.9892,-4.9892,-4.9892,-4.9892,-4.9892,-4.9892,-4.9892,-4.9892,-4.9892,-4.9892,-4.9892,-4.9892,-4.9892,-5.005,-5.0168,-5.0317,-5.0395,-5.0512,-5.0589,-5.0589,-5.055,-5.0473,-5.0473,-5.0285,-5.0089,-5.0089,-5.001,-4.9892,-4.9892,-4.9733,-4.9421,0.0,0.0,0.0,0.0,0.0,0.0,0.0,0.0,0.0,-1.9611,-1.9748,-1.9803,-1.9774,-1.9852,-1.9882,0.0,0.0,0.0,-1.9815,-2.0164,-2.0965,-2.2321,-2.3325,-2.3447,-2.2585,-2.2645,-2.2585,-2.2402,-2.2565,-2.3313,-2.4589,-2.6016,-2.6966,-2.7487,-2.8007,-2.6728,-2.4186,-2.3348,-2.2523,-2.1733,-2.0996,-2.1021,-2.1365,-2.0085,-1.9036,-1.8172,-1.794,-1.7574,-1.7214,-1.7214,0.0,0.0,0.0,0.0,-1.5741,-1.7386,-1.8891,-2.0804,0.0,0.0,0.0,0.0,0.0,0.0,-4.2871,-4.329,-4.3479,-4.4088,-4.4676,-4.53,-4.5788,-4.593,-4.6396,-4.7658,-4.8097,-4.8599,-4.956,-4.9797,-4.9892,-4.9892,-4.9892,-4.9892,-4.9892,-4.9892,-4.9892,-4.9892,-4.9892,-4.9892,-4.9892,-4.9892,-4.9892,-4.9892,-4.9892,-4.9892,-4.9892,-4.9805,-4.9742,-4.9742,-4.9742,-4.9821,-5.0087,-5.037,-5.0512,-5.0589,-5.0589,-5.0512,-5.0356,-5.0512,-5.0324,-5.001,-5.0168,-5.0089,-4.9892,-4.9892,-4.9613,-4.9291,0.0,0.0,0.0,0.0,0.0,0.0,0.0,0.0,0.0,0.0,-2.0302,-2.0526,-2.0013,-2.0485,-2.0576,-2.0,-1.997,-1.997,-1.997,0.0,0.0,-2.3845,-2.3458,-2.3743,-2.4839,-2.2678,-2.234,-2.3999,-2.2213,-2.3773,-2.8417,-2.7995,-2.8082,-2.8583,-2.8071,-2.6291,-2.3547,-2.2286,-2.0941,-1.9727,-2.0118,-1.9943,-1.942,-1.8705,-1.8328,-1.8056,-1.6878,-1.6779,-1.7214,-1.7282,-1.6783,0.0,0.0,0.0,-1.5462,-1.5726,-1.7151,-1.9056,0.0,0.0,0.0,0.0,0.0,0.0,0.0,0.0,-4.3399,0.0,-4.4108,-4.4408,-4.4313,-4.5242,-4.6051,-4.6199,-4.7395,-4.8403,-4.8742,-4.9403,-4.9892,-4.9892,-4.9892,-4.9892,-4.9892,-4.9892,-4.9892,-4.9892,-4.9892,-4.9892,-4.9892,-4.9892,-4.9892,-4.9892,-4.9892,-4.9892,-4.9892,-4.9331,-4.9015,-4.9015,-4.9015,-4.9054,-4.9124,-4.9726,-5.0207,-5.0589,-5.0589,-5.0589,-5.055,-5.0395,-5.0285,-5.0207,-5.005,-4.9931,-4.9892,-4.9701,-4.9493,-4.9291,0.0,0.0,0.0,0.0,0.0,0.0,0.0,0.0,0.0,0.0,0.0,-2.1273,-2.0643,-2.0825,-2.0734,-2.0066,-2.001,-2.008,-2.0181,-2.1069,-2.1915,-2.2536,-2.2628,-2.2801,-2.3055,-2.1535,-2.135,-2.2624,-2.1295,-2.3426,-2.8744,-2.8786,-2.9851,-3.1637,-2.9819,-2.7684,-2.5228,-2.2682,-2.099,-1.9929,-1.9402,-2.0265,-2.1537,-1.875,-1.8539,-1.9449,-1.7069,-1.6201,-1.6248,-1.6644,-1.6323,-1.584,-1.6266,0.0,0.0,0.0,-1.6313,0.0,-2.2664,0.0,0.0,0.0,0.0,0.0,0.0,0.0,-4.295,-4.3388,-4.3609,-4.3848,-4.4126,-4.4591,-4.5105,-4.5789,-4.647,-4.7185,-4.7786,-4.853,-4.9008,-4.9008,-4.9008,-4.9008,-4.9008,-4.8663,-4.8443,-4.8443,-4.8788,-4.9008,-4.9008,-4.9353,-4.9541,-4.9541,-4.9541,-4.9385,-4.9008,-4.8694,-4.8381,-4.7973,-4.7973,-4.8192,-4.8569,-4.8883,-4.9466,-5.0207,-5.0207,-5.0207,-5.0207,-5.0129,-5.0089,-5.005,-4.9812,-4.9701,-4.9733,-4.9533,-4.9291,-4.9087,0.0,0.0,0.0,0.0,0.0,0.0,0.0,0.0,0.0,0.0,0.0,0.0,-2.0898,0.0,0.0,0.0,-2.0115,-2.0264,-2.0549,-2.1011,-2.1381,-2.1565,-2.1874,-2.1812,-2.1319,-2.0474,-2.0381,-2.1042,-2.0549,-2.326,-2.8935,-2.9612,-3.1873,-3.5278,-3.2198,-2.9468,-2.6976,-2.3842,-2.2164,-2.1486,-2.0201,-2.1353,-2.3538,-2.0665,-2.0733,-2.1929,-1.867,-1.7127,-1.6668,-1.6474,-1.5975,-1.5491,-1.6005,-1.5461,0.0,0.0,0.0,0.0,0.0,0.0,0.0,0.0,0.0,0.0,0.0,0.0,-4.2141,0.0,-4.309,-4.3307,-4.4035,-4.4065,-4.4334,-4.5326,-4.5657,-4.6083,-4.6765,-4.7683,-4.8253,-4.8292,-4.8292,-4.8292,-4.8292,-4.7668,-4.7356,-4.7512,-4.7856,-4.8199,-4.8542,-4.8854,-4.9103,-4.93,-4.9331,-4.8948,-4.8292,-4.7949,-4.7419,-4.6764,-4.692,-4.7356,-4.8043,-4.823,-4.8826,-4.9773,-4.9773,-4.9773,-4.9773,-4.9773,-4.9773,-4.9701,-4.9582,-4.9501,-4.9493,-4.9291,-4.9159,-4.8996,0.0,0.0,0.0,0.0,0.0,0.0,0.0,0.0,0.0,0.0,0.0,0.0,-2.047,-2.0901,-2.0993,-2.0333,-2.0272,-2.0549,-2.1196,-2.1288,-2.1596,-2.2243,-2.1689,0.0,-2.1288,-2.0011,-1.9672,-2.035,-2.032,-2.3733,-3.0294,-3.0966,-3.4137,-3.9059,-3.494,-3.1213,-2.7801,-2.5675,-2.4678,-2.4499,-2.3604,-2.3303,-2.3622,-2.5213,-2.5918,-2.5597,-2.2237,0.0,0.0,0.0,0.0,0.0,0.0,0.0,0.0,0.0,0.0,0.0,0.0,0.0,0.0,0.0,0.0,0.0,0.0,0.0,-4.0876,-4.2201,-4.244,-4.2728,-4.3554,-4.3871,-4.4065,-4.4327,-4.511,-4.5626,-4.5688,-4.7026,-4.8062,-4.8292,-4.8292,-4.8292,-4.8292,-4.7668,-4.7544,-4.8199,-4.7668,-4.7926,-4.9206,-4.8667,-4.8636,-4.93,-4.9331,-4.8948,-4.8292,-4.6982,-4.5984,-4.5329,-4.5953,-4.6608,-4.7294,-4.798,-4.8707,-4.9331,-4.9331,-4.9331,-4.9331,-4.9331,-4.9331,-4.9331,-4.93,-4.9331,-4.9291,-4.9118,-4.8996,-4.8955,0.0,0.0,0.0,0.0,0.0,0.0,0.0,0.0,0.0,0.0,0.0,0.0,0.0,-2.1538,-2.1184,-2.0433,-2.0337,-2.0412,-2.0659,-2.0641,-2.0782,-2.1011,-2.0795,-2.0641,-2.0641,-1.9382,-1.9058,-1.9722,-1.9306,-2.1651,-2.6579,-2.8559,-3.0751,-3.3031,-3.3277,-3.2394,-3.0509,-2.671,-2.5014,-2.4829,-2.4469,-2.5455,-2.7039,-2.5664,-2.6653,-2.8293,-2.4621,0.0,0.0,0.0,0.0,0.0,0.0,0.0,0.0,0.0,0.0,0.0,0.0,0.0,0.0,0.0,0.0,0.0,0.0,-3.8392,-4.0157,-4.1474,-4.2111,-4.2698,-4.3515,-4.3754,-4.3871,-4.4065,-4.4364,-4.4594,-4.4749,-4.5624,-4.6366,-4.6523,-4.6562,-4.6562,-4.6562,-4.5943,-4.5665,-4.5882,-4.6098,-4.6408,-4.6872,-4.7119,-4.7521,-4.8202,-4.78,-4.7243,-4.6562,-4.5634,-4.5046,-4.483,-4.5046,-4.551,-4.6191,-4.6744,-4.7463,-4.8233,-4.8502,-4.8893,-4.9331,-4.9331,-4.9331,-4.9291,-4.9128,-4.9006,-4.8811,-4.8759,-4.8676,-4.8552,0.0,0.0,0.0,-2.2243,0.0,-2.1645,-2.1713,-2.1898,-2.2115,-2.2368,0.0,0.0,0.0,0.0,-2.1633,-2.0878,-2.0547,-2.034,-2.0354,-2.0337,-2.0337,-2.032,-2.032,-2.032,-2.032,-1.9258,-1.8903,-1.9367,-1.9151,-2.0866,-2.4421,-2.6895,-2.8781,-3.0135,-3.1243,-3.1955,-3.2115,-2.8614,-2.7113,-2.7042,-2.682,-2.782,-2.9394,-2.8767,-2.9816,-3.1248,-2.8188,0.0,0.0,0.0,0.0,0.0,0.0,0.0,0.0,0.0,0.0,0.0,0.0,0.0,0.0,0.0,0.0,0.0,-3.4109,0.0,-3.8003,-3.9978,-4.0905,-4.179,-4.3016,-4.3265,-4.3404,-4.384,-4.3949,-4.4026,-4.4104,-4.48,-4.5353,-4.5471,-4.5549,-4.5588,-4.5588,-4.501,-4.4702,-4.4949,-4.5126,-4.5434,-4.5895,-4.6142,-4.6573,-4.725,-4.6603,-4.6049,-4.5588,-4.4949,-4.461,-4.461,-4.461,-4.5064,-4.5926,-4.619,-4.6894,-4.7958,-4.8171,-4.8563,-4.9056,-4.9056,-4.9056,-4.9056,-4.8924,-4.8718,-4.848,-4.8563,-4.8438,-4.8343,-2.2182,-2.2336,-2.2366,-2.2366,-2.2397,-2.2435,-2.2518,-2.3076,-2.3301,-2.2711,0.0,0.0,0.0,0.0,0.0,-2.1717,-2.0995,-2.0539,-2.0436,-2.0405,-2.0371,-2.032,-2.032,-2.032,-2.032,-1.9641,-1.9302,-1.9302,-1.995,-2.1627,-2.4225,-2.6318,-2.8658,-3.1089,-2.9243,-2.9827,-3.2198,-3.1219,-3.1036,-3.1267,-3.0714,-3.0273,-3.0443,-3.4775,-3.5672,-3.4382,-3.3034,-3.1721,0.0,-2.6867,0.0,0.0,0.0,0.0,0.0,0.0,0.0,0.0,0.0,0.0,0.0,0.0,0.0,0.0,-3.2615,0.0,-3.4262,-3.7584,-3.8811,-3.9918,-4.1961,-4.2381,-4.2698,-4.3515,-4.3871,-4.391,-4.3714,-4.4613,-4.5244,-4.5284,-4.544,-4.5526,-4.5557,-4.4941,-4.4856,-4.5495,-4.4979,-4.5195,-4.648,-4.5926,-4.5865,-4.6511,-4.5926,-4.5588,-4.5557,-4.4949,-4.461,-4.461,-4.461,-4.528,-4.6573,-4.6364,-4.714,-4.8532,-4.8355,-4.8427,-4.8604,-4.8604,-4.8604,-4.8604,-4.8604,-4.848,-4.8343,-4.8521,-4.8438,-4.8343,-2.2294,-2.3301,-2.4024,-2.3953,-2.4409,-2.4429,-2.3452,-2.3491,-2.3573,0.0,0.0,0.0,-2.3481,-2.345,-2.3387,-2.3218,-2.2486,-2.1806,-2.129,-2.0774,-2.0426,-2.0388,-2.0371,-2.0354,-2.032,-1.9675,-1.9367,-1.9367,-1.9553,-2.0278,-2.1528,-2.3506,-2.5087,-2.6318,-2.767,-2.8461,-2.8688,-2.7418,-2.8797,-3.1716,-3.0549,-3.162,-3.3995,-3.4773,-3.5699,-3.6477,-3.5636,-3.4797,-3.3779,0.0,-2.9852,-2.6583,0.0,0.0,0.0,0.0,0.0,0.0,-1.7379,0.0,0.0,0.0,0.0,0.0,-2.6534,-2.8282,-3.046,-3.4713,-3.6118,-3.7494,-4.0397,-4.1752,-4.247,-4.2728,-4.3335,-4.3793,-4.391,-4.4178,-4.4494,-4.4734,-4.4297,-4.4174,-4.4818,-4.4271,-4.4148,-4.4856,-4.4702,-4.4764,-4.5126,-4.5434,-4.5434,-4.5157,-4.5434,-4.5341,-4.4849,-4.4702,-4.461,-4.461,-4.461,-4.5033,-4.5895,-4.599,-4.6702,-4.7855,-4.8046,-4.8301,-4.8604,-4.8604,-4.8604,-4.8604,-4.8604,-4.848,-4.8343,-4.8521,-4.8438,-4.8343,-2.3258,-2.4313,-2.5103,-2.5082,-2.5883,-2.6332,-2.5509,-2.5185,-2.5143,0.0,0.0,0.0,-2.5138,-2.5422,-2.5233,-2.4382,-2.3318,-2.2433,-2.169,-2.0984,-2.07,-2.0895,-2.0895,-2.1033,-2.1228,-2.0905,-2.0547,-2.0237,-2.0203,-2.0248,-2.0385,-2.18,-2.2655,-2.3117,-2.4654,-2.5606,-2.601,-2.4625,-2.6849,-3.1372,-3.1842,-3.3124,-3.4931,-3.5889,-3.6723,-3.7434,-3.7644,0.0,-3.6884,-3.5899,-3.2764,0.0,0.0,0.0,0.0,0.0,0.0,0.0,0.0,0.0,0.0,0.0,0.0,0.0,-2.5408,-2.6673,-2.8423,-3.2766,-3.4412,-3.5908,-3.8661,-4.0247,-4.1235,-4.1542,-4.2294,-4.296,-4.3301,-4.3805,-4.4059,-4.3937,-4.386,-4.4028,-4.4541,-4.4271,-4.4178,-4.4579,-4.461,-4.461,-4.461,-4.4941,-4.4972,-4.4641,-4.501,-4.4972,-4.461,-4.461,-4.461,-4.461,-4.461,-4.5095,-4.6018,-4.594,-4.6529,-4.7609,-4.7871,-4.8065,-4.8204,-4.8481,-4.8604,-4.8604,-4.8604,-4.848,-4.8343,-4.8521,-4.8438,-4.8343,0.0,-2.5248,-2.5863,-2.5863,-2.7074,-2.8089,-2.8126,-2.7561,-2.7479,0.0,-2.7367,-2.6893,-2.7715,-2.8094,-2.7642,-2.5839,-2.4195,-2.2938,-2.22,-2.1338,-2.1053,-2.1579,-2.161,-2.1905,-2.248,-2.2499,-2.2164,-2.1419,-2.136,-2.0967,-2.032,-2.0905,-2.1196,-2.1196,-2.1239,-2.2317,-2.404,-2.3209,-2.5773,-3.0637,-3.3448,-3.4547,-3.4789,-3.7714,-3.8451,-3.8038,-3.9236,-3.9679,-3.9529,-3.8123,-3.4319,0.0,0.0,0.0,0.0,0.0,-2.1394,0.0,0.0,0.0,0.0,0.0,-2.2093,0.0,-2.65,-2.6803,-2.723,-3.0971,-3.2677,-3.4143,-3.6237,-3.7853,-3.902,-3.9439,-4.0551,-4.1588,-4.2209,-4.3304,-4.3724,-4.2993,-4.3662,-4.4226,-4.4356,-4.4295,-4.4332,-4.4356,-4.4394,-4.4387,-4.4486,-4.4425,-4.4456,-4.461,-4.4548,-4.4548,-4.461,-4.461,-4.461,-4.461,-4.461,-4.5249,-4.648,-4.6041,-4.6448,-4.7486,-4.7821,-4.7801,-4.765,-4.8327,-4.8604,-4.8604,-4.8604,-4.848,-4.8385,-4.8521,-4.848,-4.8385,-2.392,-2.5507,-2.6829,-2.6829,-2.846,-2.9746,-2.9746,-2.9122,-2.9122,-3.0409,-3.037,-3.0661,-3.195,-3.0717,-2.9832,0.0,-2.7178,-2.5345,-2.5178,-2.2988,-2.1673,-2.1663,-2.1694,-2.1739,-2.178,-2.2306,-2.2243,-2.1557,-2.145,-2.1056,-2.0388,-2.046,0.0,-2.0518,-2.0952,-2.1719,-2.284,-2.5247,-2.7854,-3.0509,-3.1546,-3.4394,-3.8129,-3.9313,-4.0202,-4.0895,-4.1166,-4.1475,-4.1542,-3.9649,-3.7182,-3.4284,0.0,0.0,0.0,-2.5023,0.0,0.0,0.0,0.0,0.0,0.0,0.0,0.0,-2.256,-2.2841,-2.414,-2.6482,-2.7171,-2.8278,-3.13,-3.3814,-3.513,-3.4203,-3.687,-3.9697,-4.1558,-4.2032,-4.2206,-4.2196,-4.1906,-4.1986,-4.2689,-4.2406,-4.2417,-4.294,-4.3002,-4.3217,-4.3778,-4.3279,-4.3464,-4.4579,-4.4086,-4.4055,-4.4572,-4.461,-4.461,-4.461,-4.461,-4.5003,-4.5772,-4.5498,-4.5905,-4.6819,-4.7242,-4.7497,-4.765,-4.8327,-4.8604,-4.8604,-4.8604,-4.8563,-4.8521,-4.8563,-4.8563,-4.8521,-2.4906,-2.6346,-2.7715,-2.804,-2.9548,-3.0939,-3.1634,-3.116,-3.1318,-3.3056,-3.3593,-3.3688,-3.334,0.0,0.0,0.0,0.0,0.0,0.0,-2.3562,-2.2357,-2.2303,-2.2303,-2.2443,-2.2752,-2.3387,-2.3211,-2.2196,-2.2033,-2.1414,-2.0405,-2.0337,0.0,0.0,-2.1387,-2.2371,-2.4379,-2.533,-2.7356,-3.0171,-3.3014,-3.61,-3.9096,-4.0359,-4.1331,-4.2054,-4.2054,-4.2188,-4.2051,-3.9679,-3.7789,0.0,-3.2407,-3.1336,-3.083,0.0,-2.8334,-2.9009,0.0,0.0,0.0,-2.5395,0.0,0.0,0.0,-2.337,-2.3879,-2.6542,-2.6572,-2.6991,-2.9953,-3.133,-3.2138,-3.2467,-3.4442,-3.645,-3.7906,-3.96,-4.0643,-4.0383,-4.0734,-4.1176,-4.162,-4.1826,-4.2124,-4.2571,-4.2602,-4.2756,-4.3063,-4.3094,-4.3402,-4.4086,-4.4117,-4.4271,-4.461,-4.461,-4.461,-4.461,-4.461,-4.4903,-4.5432,-4.5345,-4.5568,-4.5984,-4.6538,-4.6894,-4.7157,-4.7835,-4.8296,-4.8604,-4.8604,-4.8604,-4.8604,-4.8759,-4.8718,-4.8604,-2.6229,-2.7231,-2.8284,-2.8853,-3.0212,-3.1634,-3.2898,-3.2671,-3.305,-3.511,-3.6342,-3.6408,0.0,0.0,0.0,0.0,0.0,0.0,0.0,-2.4859,-2.3657,-2.3499,-2.3119,-2.3196,-2.3872,-2.4268,-2.384,-2.2632,-2.2449,-2.1667,-2.0423,0.0,0.0,0.0,0.0,0.0,0.0,0.0,0.0,-3.1155,-3.5462,-3.7593,-3.8497,-4.0746,-4.1836,-4.2128,-4.244,-4.268,-4.2381,-3.9679,-3.8182,-3.6956,-3.4017,-3.3721,0.0,0.0,0.0,0.0,0.0,0.0,0.0,0.0,0.0,-2.6069,0.0,0.0,0.0,-2.6961,0.0,0.0,0.0,0.0,0.0,-3.0733,0.0,0.0,0.0,-3.5832,0.0,-3.7884,-3.9355,-4.0375,-4.0375,-4.0792,-4.1306,-4.1879,-4.1576,-4.1673,-4.2314,-4.2786,-4.3193,-4.3593,-4.4024,-4.4363,-4.461,-4.461,-4.461,-4.461,-4.461,-4.4864,-4.5353,-4.5222,-4.5222,-4.5384,-4.5935,-4.6321,-4.6634,-4.7311,-4.8019,-4.8604,-4.8604,-4.8604,-4.8718,-4.8841,-4.88,-4.8718,-2.6988,-2.7622,-2.817,-2.8354,-2.9943,-3.1476,-3.2291,0.0,-3.305,-3.511,0.0,0.0,-3.9724,-3.8744,0.0,0.0,0.0,-3.2866,-3.3214,-2.9074,-2.6325,-2.5693,-2.386,-2.3196,-2.3872,-2.3367,-2.2754,-2.1995,-2.1788,-2.1276,0.0,0.0,0.0,0.0,-2.2871,0.0,0.0,0.0,-3.0936,-3.5799,-3.6808,-3.6687,-3.6291,-3.9895,-4.1176,-4.1261,-4.2698,-4.3599,-4.3688,0.0,-4.0457,-4.0277,0.0,-3.6866,-3.7434,-3.5397,0.0,0.0,0.0,0.0,0.0,0.0,-3.0492,0.0,0.0,0.0,-2.4986,-2.3661,0.0,0.0,0.0,0.0,0.0,0.0,0.0,0.0,-2.8543,-2.9768,-3.1807,-3.4655,-3.6797,-3.8073,-3.8073,-3.7243,-3.7466,-3.9264,-3.7907,-3.8312,-4.1311,-4.105,-4.1709,-4.3562,-4.3094,-4.3402,-4.461,-4.461,-4.461,-4.461,-4.461,-4.4941,-4.5518,-4.4934,-4.4995,-4.5549,-4.5641,-4.6049,-4.6634,-4.7311,-4.8019,-4.8604,-4.8604,-4.8759,-4.8955,-4.8718,-4.8759,-4.8914,-2.6636,-2.7232,-2.7838,-2.8273,-2.933,-3.0592,-3.2114,0.0,0.0,0.0,0.0,0.0,-4.1146,-4.0324,-4.0072,0.0,-3.8491,-3.6153,-3.4415,-3.169,0.0,-2.7851,-2.5819,-2.4839,-2.5104,-2.4049,-2.3164,-2.2487,-2.19,-2.1231,0.0,0.0,0.0,0.0,-2.5441,0.0,-3.0874,0.0,-3.2125,0.0,0.0,-3.5922,-3.6015,-4.0954,-4.2713,-4.2636,-4.3717,-4.4158,-4.4018,-4.2162,-4.1512,0.0,0.0,0.0,0.0,-3.7404,0.0,0.0,0.0,0.0,0.0,0.0,0.0,0.0,-2.5878,0.0,-2.4418,0.0,0.0,0.0,0.0,0.0,0.0,0.0,-2.6602,0.0,0.0,0.0,-2.9532,-3.2407,-3.2886,-3.3787,-3.5808,-3.524,-3.5758,-3.8223,-3.6313,-3.65,-3.996,-4.027,-4.1203,-4.2971,-4.3125,-4.3618,-4.461,-4.461,-4.461,-4.461,-4.4972,-4.5272,-4.5432,-4.5272,-4.5272,-4.5432,-4.5549,-4.5957,-4.6634,-4.7311,-4.8019,-4.8604,-4.8604,-4.8676,-4.88,-4.8965,-4.8924,-4.8759,-2.6106,0.0,0.0,-2.8084,-2.8828,-3.0171,-3.2603,-3.6239,-3.8775,-3.906,-4.0735,-4.2189,-4.2916,-4.26,-4.26,0.0,-4.2094,-4.0008,-3.7069,-3.4699,-3.255,-3.0598,-2.8,-2.6577,-2.6577,-2.482,-2.3462,-2.256,-2.1725,-2.112,0.0,0.0,0.0,0.0,0.0,-3.0078,-3.3398,0.0,-3.4284,-3.5306,-3.663,-3.7707,-3.8906,-4.248,-4.4131,-4.4599,-4.4861,-4.491,-4.4698,-4.3189,-4.2432,-4.2043,-4.1205,-4.0277,-3.9505,0.0,0.0,0.0,-3.6537,0.0,0.0,0.0,0.0,0.0,0.0,0.0,0.0,0.0,0.0,0.0,0.0,0.0,0.0,0.0,0.0,-2.5824,0.0,-2.595,0.0,0.0,0.0,-3.1117,-3.3638,-3.2975,-3.3668,-3.6816,-3.4637,-3.4942,-3.8903,-3.9642,-4.0628,-4.2082,-4.2824,-4.3506,-4.4219,-4.4403,-4.4534,-4.461,-4.5064,-4.5325,-4.5393,-4.5364,-4.5325,-4.5393,-4.5549,-4.5957,-4.6634,-4.7311,-4.8019,-4.8604,-4.8676,-4.8676,-4.8646,-4.8975,-4.8975,-4.8769,-2.5629,-2.6583,0.0,0.0,-2.8672,-3.0616,-3.3937,-3.5721,-3.7628,-4.023,-4.1778,-4.3674,-4.6329,-4.6613,-4.7688,-5.0445,-4.7561,-4.497,-4.3482,-3.8903,-3.5619,-3.4194,-3.0212,-2.8031,-2.8031,-2.5313,-2.3204,-2.1743,-2.0919,0.0,0.0,0.0,0.0,0.0,-2.7857,-3.0843,-3.3521,-3.5522,-3.8662,-4.2232,-4.1648,-4.334,-4.6049,-4.4067,-4.4822,-4.678,-4.5969,-4.6067,-4.6195,-4.4068,-4.3748,-4.3988,-4.274,-4.2321,-4.2261,0.0,0.0,0.0,-4.0397,-4.0217,-3.899,-3.3784,-3.1959,-3.0404,0.0,0.0,-2.7136,0.0,0.0,0.0,0.0,0.0,0.0,0.0,0.0,0.0,0.0,0.0,0.0,0.0,0.0,0.0,-3.16,-2.9894,-3.04,-3.4294,-3.2314,-3.3185,-3.8465,-3.891,-3.9651,-4.1018,-4.1717,-4.246,-4.3325,-4.3999,-4.4381,-4.461,-4.4641,-4.4941,-4.5557,-4.491,-4.4972,-4.5588,-4.5588,-4.5957,-4.6634,-4.7311,-4.8019,-4.8604,-4.8914,-4.88,-4.8604,-4.8604,-4.8893,-4.9178,-2.6426,0.0,0.0,0.0,-2.7331,-2.9643,-3.4026,-3.7064,-3.9812,-4.2516,-4.4037,-4.59,-4.8573,-4.8857,-4.9426,-5.0888,-4.99,-4.8256,-4.5918,-4.2882,-4.0609,-3.9187,-3.4668,-3.2203,0.0,0.0,0.0,0.0,0.0,0.0,0.0,0.0,0.0,0.0,0.0,-3.2616,0.0,0.0,0.0,0.0,0.0,-4.452,-4.7389,-4.6018,-4.5905,-4.657,-4.6732,-4.6667,-4.6569,-4.6274,-4.5638,-4.4975,-4.4975,-4.3778,-4.25,-4.288,-4.2222,-4.1324,-4.1115,-4.1055,-4.0098,-3.6118,-3.3664,-3.1361,-2.8278,-2.7949,0.0,0.0,0.0,0.0,0.0,0.0,0.0,0.0,0.0,0.0,0.0,0.0,0.0,0.0,0.0,0.0,0.0,0.0,-2.9185,-3.189,-3.0945,-3.2239,-3.6797,-3.7992,-3.9188,-4.0637,-4.1771,-4.2763,-4.3482,-4.4158,-4.4534,-4.4641,-4.5495,-4.5803,-4.5588,-4.5803,-4.5803,-4.5588,-4.5588,-4.5957,-4.6634,-4.7311,-4.8019,-4.8604,-4.8718,-4.88,-4.8841,-4.8841,-4.8841,-4.8811,-2.7235,-2.7624,-2.7818,-2.6911,-2.8446,-3.113,-3.5016,-3.8806,-4.211,-4.4532,-4.618,-4.8072,-5.0525,-5.0698,-5.1037,-5.2017,-5.1859,-5.0437,-4.7403,-4.595,-4.4243,-4.2062,-3.8713,-3.6658,0.0,0.0,0.0,0.0,0.0,-2.4812,0.0,0.0,0.0,0.0,0.0,-3.3295,-3.6353,-3.9226,-4.099,0.0,0.0,-4.6028,0.0,-4.7536,-4.7231,-4.717,-4.7548,-4.7463,-4.7273,-4.7601,-4.7093,-4.6334,-4.6786,-4.5361,-4.3668,-4.4048,-4.3199,-4.2013,-4.1841,-4.1782,-4.1033,-3.7913,-3.5699,-3.3514,-3.0642,-3.0372,-3.034,0.0,0.0,0.0,0.0,0.0,0.0,0.0,0.0,0.0,0.0,-2.1944,0.0,0.0,0.0,0.0,0.0,0.0,0.0,0.0,0.0,0.0,0.0,-3.7077,-3.8485,-3.9933,-4.1526,-4.2603,-4.3144,-4.4035,-4.4534,-4.4641,-4.5711,-4.6018,-4.5588,-4.6049,-4.5988,-4.5588,-4.5588,-4.5957,-4.6634,-4.7311,-4.8019,-4.8604,-4.8604,-4.8718,-4.8841,-4.8841,-4.8759,-4.8604,-2.8077,-2.8498,-2.9102,-2.9167,-3.1866,-3.4762,-3.692,-4.0788,-4.4231,-4.6308,-4.8169,-5.0158,-5.229,-5.2277,-5.2723,-5.404,-5.3566,-5.1796,-4.8415,-4.813,-4.6613,-4.3232,-4.2252,-4.1146,-3.9787,0.0,0.0,0.0,0.0,0.0,0.0,0.0,0.0,0.0,-2.9884,0.0,-3.5737,-3.9804,-4.3131,-4.578,-4.7105,-4.806,-4.8604,-4.8604,-4.8604,-4.8563,-4.8385,-4.8301,-4.826,-4.8091,-4.7976,-4.7976,-4.7904,-4.6898,-4.5705,-4.5705,-4.4599,-4.3299,-4.271,-4.253,-4.1871,-3.929,-3.8033,-3.6656,-3.3514,-3.3784,-3.4324,-3.2976,0.0,0.0,0.0,0.0,0.0,0.0,0.0,0.0,0.0,0.0,0.0,0.0,0.0,0.0,0.0,0.0,0.0,0.0,0.0,0.0,0.0,-3.6095,-3.7461,-3.8918,-4.0927,-4.2095,-4.2346,-4.3662,-4.4381,-4.4641,-4.5311,-4.5618,-4.5588,-4.5649,-4.568,-4.5649,-4.5649,-4.6018,-4.6696,-4.7342,-4.8019,-4.8604,-4.8604,-4.8604,-4.8604,-4.8604,-4.8604,-4.8604,-2.9524,-3.1154,-3.3097,-3.4198,-3.3809,-3.4781,-3.8994,-4.1488,-4.4365,-4.8377,-5.0267,-5.1948,-5.3962,-5.4144,-5.4369,-5.5058,-5.4994,-5.421,-5.2586,-5.1543,-5.0342,-4.892,-4.6202,-4.4306,-4.339,-3.8999,0.0,-3.3732,0.0,0.0,-2.7643,0.0,0.0,0.0,0.0,0.0,-3.4998,-3.8702,-4.2802,-4.6889,-4.776,-4.8537,-4.9056,-4.8728,-4.8718,-4.8841,-4.8635,-4.8427,-4.8301,-4.826,-4.7756,-4.7224,-4.6996,-4.6339,-4.5634,-4.5705,-4.527,-4.4807,-4.486,-4.4318,-4.3539,-4.2342,-4.0098,-3.7913,-3.7075,-3.7135,-3.7049,-3.5862,-3.7203,-3.7858,-3.5379,-3.3696,0.0,0.0,0.0,0.0,0.0,0.0,0.0,-2.2841,0.0,0.0,0.0,0.0,0.0,0.0,0.0,0.0,-3.2857,-3.3838,-3.5646,-3.856,-4.0646,-4.2216,-4.3273,-4.4103,-4.4534,-4.4641,-4.5772,-4.608,-4.5618,-4.6634,-4.6819,-4.6326,-4.6326,-4.6726,-4.7373,-4.7527,-4.8019,-4.8604,-4.8604,-4.8604,-4.8604,-4.8604,-4.8604,-4.8604,-3.1825,-3.4262,-3.6886,-3.8343,-3.8116,-3.8667,-4.1484,-4.3395,-4.5822,-4.9462,-5.1276,-5.2669,-5.3848,-5.4387,-5.49,-5.5559,-5.5536,-5.5005,-5.3862,-5.3513,0.0,-5.1078,-4.9394,-4.8035,-4.7024,-4.3286,0.0,-3.6837,0.0,0.0,-2.8952,0.0,0.0,0.0,0.0,-3.1848,-3.4498,-3.9548,-4.363,-4.6857,-4.7887,-4.8658,0.0,-4.8883,-4.88,-4.88,-4.8676,-4.8521,-4.8427,-4.8427,-4.8099,-4.7668,-4.7429,-4.686,-4.6345,-4.6293,-4.5875,-4.5511,-4.5664,-4.5199,-4.4646,-4.4408,-4.2659,-4.0793,-4.0034,-3.9541,-3.9086,-3.8437,-3.8522,-3.8487,-3.7747,-3.5135,-3.2108,0.0,0.0,0.0,0.0,0.0,0.0,0.0,-2.3789,0.0,0.0,0.0,0.0,0.0,0.0,-2.7919,-3.0936,-3.2844,-3.5306,-3.8415,-4.0509,-4.2232,-4.3593,-4.4271,-4.4764,-4.5033,-4.608,-4.6388,-4.6049,-4.7127,-4.725,-4.6603,-4.6683,-4.7053,-4.7619,-4.7741,-4.8142,-4.8759,-4.8759,-4.8759,-4.8759,-4.8635,-4.8604,-4.8666,-3.4619,-3.7469,-4.0221,-4.1515,-4.3039,-4.4204,-4.4593,-4.6146,-4.8055,-5.0228,-5.1952,-5.3078,-5.3415,-5.4182,-5.507,-5.6029,-5.5996,-5.5325,-5.4083,-5.4908,-5.4335,-5.1846,-5.209,-5.167,-5.0374,-4.7871,-4.426,0.0,0.0,0.0,0.0,0.0,0.0,0.0,0.0,0.0,0.0,-4.1395,-4.5022,-4.649,-4.7895,-4.8711,-4.9078,-4.9037,-4.8841,-4.8687,-4.8604,-4.8604,-4.8604,-4.8604,-4.8543,-4.844,-4.819,-4.771,-4.721,-4.7045,-4.6463,-4.5875,-4.5766,-4.5511,-4.5327,-4.5382,-4.4779,-4.3758,-4.2281,-4.1325,-4.0786,-4.0786,-3.8901,-3.8033,-4.0636,-3.6537,-3.1719,0.0,0.0,0.0,0.0,0.0,0.0,0.0,0.0,0.0,-2.0367,-2.134,-2.2839,-2.4496,-2.4244,-2.5536,-2.9064,-3.2074,-3.5153,-3.8415,-4.0416,-4.2232,-4.387,-4.4456,-4.5003,-4.5588,-4.6357,-4.6634,-4.648,-4.725,-4.725,-4.6603,-4.6933,-4.7265,-4.7619,-4.7985,-4.8469,-4.8955,-4.8996,-4.8996,-4.8914,-4.8718,-4.8666,-4.882,-3.7404,-4.0027,-4.2101,-4.236,-4.4593,-4.705,-4.9227,-4.9383,-5.0102,-5.2456,-5.3874,-5.4952,-5.578,-5.603,-5.6582,-5.7774,-5.7816,-5.76,-5.7105,-5.714,-5.6689,-5.5577,-5.439,-5.3376,-5.2586,-4.811,-4.4256,0.0,0.0,0.0,0.0,0.0,0.0,0.0,0.0,0.0,-3.8592,-4.2702,0.0,-4.7401,-4.882,-4.9407,-4.9452,-4.9118,-4.9047,-4.9097,-4.8728,-4.8604,-4.8604,-4.8604,-4.8235,-4.7691,-4.7352,-4.7167,-4.7034,-4.7004,-4.7003,-4.6839,-4.6172,-4.5634,-4.5076,-4.4268,-4.3758,-4.3459,-4.3365,-4.3067,-4.2781,-4.2781,-4.2013,-4.1063,-3.9948,-3.6686,-3.3246,0.0,0.0,0.0,0.0,0.0,0.0,0.0,0.0,-2.6243,0.0,-2.2957,-2.2949,-2.1758,-2.212,-2.417,-2.8198,-2.8989,-3.2115,-3.8323,-3.9955,-4.2171,-4.5218,-4.5341,-4.5464,-4.5588,-4.685,-4.685,-4.5803,-4.7034,-4.725,-4.6634,-4.7459,-4.7729,-4.765,-4.8511,-4.8749,-4.8718,-4.8914,-4.8841,-4.8676,-4.8604,-4.9004,-4.9435,-4.0934,-4.2844,-4.4593,-4.5725,-4.7993,-5.032,-5.234,-5.2899,-5.3254,-5.3624,-5.4107,-5.4654,-5.5336,-5.6298,-5.728,-5.8378,-5.8344,-5.8417,-5.8606,-5.8064,-5.7567,-5.7083,-5.5617,-5.4453,-5.3629,-4.9789,-4.6055,-4.2491,0.0,0.0,0.0,0.0,0.0,0.0,0.0,-3.4707,0.0,0.0,-4.5268,-4.7253,-4.867,-4.9387,-4.9573,-4.925,-4.9128,-4.9149,-4.916,-4.9158,-4.9158,-4.9158,-4.8943,-4.8716,-4.8718,-4.8553,-4.8363,-4.8206,-4.7952,-4.7588,-4.7133,-4.6418,-4.5777,-4.5475,-4.4619,-4.3918,-4.4306,-4.3837,-4.329,-4.329,-4.2551,-4.1145,-3.8811,-3.6237,-3.4084,-3.2766,-3.142,-3.0761,0.0,0.0,-2.9355,0.0,0.0,0.0,0.0,0.0,-2.3125,0.0,-2.1451,-2.3559,-2.6979,-2.8222,-3.162,-3.78,-3.9275,-4.1617,-4.5033,-4.5064,-4.5588,-4.6634,-4.6942,-4.6942,-4.6665,-4.7311,-4.7434,-4.7127,-4.7738,-4.8038,-4.8142,-4.8759,-4.8914,-4.88,-4.8955,-4.8914,-4.88,-4.8676,-4.882,-4.9189,-4.4204,-4.5629,-4.7313,-4.9159,-5.1361,-5.3337,-5.4552,-5.5721,-5.6015,-5.4897,-5.4443,-5.4475,-5.5207,-5.6602,-5.785,-5.8766,-5.8701,-5.8795,-5.9343,-5.8606,-5.8096,-5.7949,-5.6523,-5.5375,-5.4632,-5.172,-4.8162,0.0,0.0,-3.5279,-3.1407,0.0,0.0,0.0,0.0,-3.6766,-4.0195,-4.2976,-4.5349,-4.734,-4.8604,-4.9308,-4.9653,-4.9412,-4.921,-4.9099,-4.9365,-4.9466,-4.9497,-4.9805,-4.9897,-4.9947,-5.0223,-4.999,-4.9597,-4.9353,-4.8694,-4.7976,-4.7867,-4.7105,-4.6401,-4.6535,-4.5453,-4.4368,-4.4648,-4.3997,-4.329,-4.329,-4.2402,-4.0786,-3.8123,-3.6596,-3.5552,-3.4833,-3.3036,-3.2108,-3.3006,0.0,0.0,0.0,0.0,0.0,-2.4567,-2.4066,-2.2981,-2.0621,-2.1201,-2.296,-2.597,-2.7891,-3.1405,-3.6844,-3.8629,-4.1063,-4.4363,-4.4702,-4.5741,-4.7588,-4.7065,-4.7004,-4.7404,-4.7558,-4.7527,-4.7404,-4.7831,-4.8264,-4.8718,-4.8914,-4.8955,-4.8914,-4.8996,-4.8955,-4.8914,-4.8676,-4.8789,-4.922,-4.6342,-4.8252,-4.9969,-5.0843,-5.3272,-5.5295,-5.5863,-5.6594,-5.713,-5.7245,-5.6528,-5.655,-5.8054,-5.8378,-5.8766,-5.9555,-5.9575,-5.9608,-5.9673,-5.9209,-5.8966,-5.9145,-5.7368,-5.6384,-5.6276,-5.2908,-4.9335,0.0,0.0,-3.7705,-3.2898,0.0,0.0,-3.3716,-3.6012,-3.8999,-4.2537,-4.4685,-4.6803,-4.8762,-4.9521,-4.9829,-4.9852,-4.9452,-4.9291,-4.921,-4.8862,-4.8696,-4.8912,-5.0174,-5.0605,-5.0562,-5.0376,-4.9873,-4.9353,-4.928,-4.8694,-4.7927,-4.7455,-4.6993,-4.6369,-4.5435,-4.473,-4.4208,-4.3916,-4.3548,-4.329,-4.329,-4.2761,-4.1482,-3.8781,-3.914,-3.8871,-3.5878,-3.5699,-3.5759,-3.528,0.0,-3.2766,-3.1481,0.0,0.0,-2.6452,-2.367,-2.2104,-2.2424,-2.0884,-2.1663,-2.5629,-2.6761,-2.9811,-3.5248,-3.8071,-4.0847,-4.3685,-4.4918,-4.6203,-4.7619,-4.7558,-4.7219,-4.6696,-4.7311,-4.7281,-4.6726,-4.7614,-4.8376,-4.8955,-4.8996,-4.8841,-4.8676,-4.8914,-4.8841,-4.8604,-4.8604,-4.9404,-5.0513,-4.9354,-4.9807,-5.0876,-5.3304,-5.4341,-5.5595,-5.7904,-5.8119,-5.8227,-5.881,-5.8055,-5.7743,-5.854,-5.9425,-6.004,-6.0332,-6.0753,-6.0785,-6.0397,-6.0186,-5.9826,-5.9331,-5.8189,-5.7352,-5.673,-5.3987,-5.1001,0.0,0.0,-3.9945,-3.6319,-3.5212,-3.5875,-3.8115,-3.9787,-4.2061,-4.4685,-4.636,-4.7751,-4.8952,-4.9647,-4.9892,-4.9892,-4.9613,-4.9743,-5.0078,-4.9626,-4.9985,-5.0684,-5.1141,-5.1036,-5.082,-5.1488,-5.0997,-5.0138,-5.0138,-4.92,-4.8157,-4.7965,-4.7391,-4.6758,-4.6325,-4.5354,-4.4459,-4.4308,-4.3748,-4.329,-4.329,-4.2821,-4.1841,-3.9948,-3.9709,-3.9499,-3.8601,-3.7644,-3.6956,-3.6686,0.0,0.0,-3.3395,0.0,-3.0283,0.0,-2.5764,-2.4328,-2.5009,-2.1764,-2.1362,-2.5062,-2.6387,-2.9134,-3.3725,-3.7451,-4.0493,-4.28,-4.4657,-4.648,-4.8204,-4.7804,-4.7681,-4.7804,-4.7681,-4.7465,-4.725,-4.8009,-4.8512,-4.8759,-4.8759,-4.8718,-4.8604,-4.8718,-4.8718,-4.8604,-4.8604,-4.8974,-4.9558,-5.2009,-5.1879,-5.2657,-5.5798,-5.6154,-5.6802,-5.9328,-5.9252,-5.909,-5.9652,-5.9326,-5.9088,-5.9219,-6.017,-6.0882,-6.1077,-6.1336,-6.1303,-6.0818,-6.0546,-6.0057,-5.9331,-5.8654,-5.7956,-5.7224,-5.5166,-5.2904,-5.0405,-4.666,-4.3485,-4.0925,-3.9282,-3.9692,-4.1873,-4.3074,-4.478,-4.6771,-4.7751,-4.8699,-4.9552,-5.0026,-5.0216,-5.0208,-5.0228,-5.0524,-5.0922,-5.0465,-5.0886,-5.171,-5.1709,-5.1251,-5.0882,-5.2052,-5.1621,-5.0667,-5.0451,-4.9474,-4.8385,-4.8385,-4.7851,-4.7277,-4.7054,-4.609,-4.5071,-4.4609,-4.4038,-4.3529,-4.3319,-4.297,-4.2312,-4.1175,-4.0606,-4.0307,-4.0397,-3.92,-3.8153,-3.7764,-3.6746,0.0,-3.4891,-3.3095,-3.145,-3.0283,-2.756,-2.6333,-2.738,-2.4312,-2.3597,-2.641,-2.6808,-2.9061,-3.3667,-3.7351,-4.0358,-4.2561,-4.4588,-4.6603,-4.8604,-4.7927,-4.7958,-4.8604,-4.8112,-4.7896,-4.7927,-4.8419,-4.8604,-4.8604,-4.8604,-4.8604,-4.8604,-4.8604,-4.8604,-4.8604,-4.8604,-4.8881,-4.9343,-5.3952,-5.4891,-5.6025,-5.8184,-5.9166,-5.9652,-5.9716,-5.9716,-5.9716,-5.9716,-6.0332,-6.0785,-6.0753,-6.0785,-6.1077,-6.1724,-6.1174,-6.0818,-6.0785,-5.9883,-5.9331,-5.9331,-5.8687,-5.8137,-5.7884,-5.6509,-5.5016,-5.334,0.0,-4.8762,-4.6645,-4.4591,-4.3955,-4.4685,-4.5444,-4.6929,-4.8857,-4.8857,-4.9679,-5.0983,-5.0983,-5.1015,-5.1037,-5.1527,-5.1696,-5.1612,-5.1149,-5.0979,-5.106,-5.1554,-5.1251,-5.082,-5.1498,-5.1251,-5.0574,-4.9897,-4.9189,-4.8604,-4.8604,-4.8271,-4.7824,-4.7186,-4.6629,-4.5963,-4.4616,-4.4317,-4.4107,-4.3439,-4.329,-4.312,-4.25,-4.2381,-4.1931,-4.0606,-4.0367,-3.9888,-3.8571,-3.7793,0.0,-3.5639,-3.2557,-3.0791,-3.1421,-2.8517,-2.7435,-2.9412,-2.8876,-2.9056,-3.0372,-2.8132,-2.9535,-3.5475,-3.8016,-4.0602,-4.3264,-4.4834,-4.6603,-4.8604,-4.7927,-4.7958,-4.8604,-4.8604,-4.8604,-4.8604,-4.8604,-4.8604,-4.8604,-4.8604,-4.8604,-4.8604,-4.8604,-4.8604,-4.8604,-4.8604,-4.9497,-5.0574,-5.6446,-5.6737,-5.7255,-5.8378,-5.8766,-5.909,-5.9652,-5.9716,-5.9716,-5.9716,-6.0332,-6.0979,-6.1433,-6.1919,-6.2307,-6.2534,-6.2825,-6.2566,-6.1562,-6.1045,-6.0451,-5.9617,-5.9194,-5.8783,-5.8355,-5.7644,-5.6497,-5.5048,-5.253,-5.0279,-4.8193,-4.7561,-4.7877,-4.8983,-4.9236,-4.9963,-5.1006,-5.1006,-5.1259,-5.167,-5.167,-5.167,-5.1701,-5.184,-5.225,-5.2513,-5.1548,-5.1826,-5.2517,-5.1907,-5.1867,-5.2021,-5.1775,-5.1251,-5.0667,-5.0451,-5.0205,-4.9835,-4.8881,-4.889,-4.8936,-4.7939,-4.7213,-4.646,-4.5267,-4.4287,-4.3449,-4.2821,-4.303,-4.315,-4.253,-4.2731,-4.2731,-4.1901,-4.1392,-4.0606,-3.929,-3.8512,-3.7614,-3.6327,-3.4831,-3.3814,-3.3574,-3.136,-3.0374,-3.1509,-2.9295,-2.8693,-3.0402,-3.12,-3.2642,-3.5027,-3.872,-4.152,-4.3332,-4.5295,-4.7065,-4.8604,-4.8389,-4.8389,-4.8604,-4.8604,-4.8604,-4.8604,-4.8604,-4.8604,-4.8666,-4.9127,-4.9343,-4.9343,-4.9343,-4.9343,-4.9281,-4.8789,-4.8881,-4.9374,-5.7935,-5.7968,-5.8194,-5.8863,-5.8993,-5.9155,-5.9652,-5.9716,-5.9814,-6.0073,-6.072,-6.1433,-6.2145,-6.2765,-6.3218,-6.3311,-6.3473,-6.3038,-6.1749,-6.1413,-6.069,-5.9484,-5.9419,-5.927,-5.8862,-5.8566,-5.7813,-5.6605,-5.4539,-5.2649,-5.0848,-5.0848,-5.1037,-5.1353,-5.1353,-5.1764,-5.2396,-5.2144,-5.2175,-5.2428,-5.2428,-5.2428,-5.246,-5.2712,-5.306,-5.3323,-5.2426,-5.266,-5.3271,-5.2383,-5.2206,-5.2298,-5.2144,-5.1621,-5.1036,-5.0759,-5.0697,-5.0451,-4.9312,-4.9301,-4.9328,-4.8328,-4.7745,-4.7133,-4.6147,-4.5101,-4.4138,-4.3397,-4.3538,-4.3588,-4.289,-4.306,-4.317,-4.2791,-4.1983,-4.1085,-4.0277,-3.914,-3.8003,-3.6956,-3.6267,-3.5489,-3.4593,-3.4023,-3.3814,-3.4056,-3.3036,-3.2796,-3.3638,-3.3517,-3.4454,-3.6695,-4.0217,-4.2836,-4.4465,-4.6124,-4.7527,-4.8604,-4.8604,-4.8604,-4.8635,-4.8881,-4.9004,-4.9035,-4.9281,-4.9404,-4.9435,-4.9866,-5.0082,-5.0051,-4.9774,-4.9835,-4.9959,-4.8974,-4.9097,-4.9878,-5.854,-5.8669,-5.8863,-5.9587,-5.9716,-5.9749,-5.9781,-5.9705,-5.9964,-6.0785,-6.1388,-6.2035,-6.2747,-6.3303,-6.3707,-6.3976,-6.3329,-6.2492,-6.1566,-6.1103,-6.0303,-5.9126,-5.9452,-5.9552,-5.9331,-5.9331,-5.8843,-5.7884,-5.6772,-5.5537,-5.4209,-5.4146,-5.3408,-5.2144,-5.2144,-5.2523,-5.3123,-5.246,-5.2554,-5.3186,-5.3186,-5.3218,-5.3313,-5.3882,-5.4134,-5.4123,-5.3584,-5.3377,-5.3334,-5.2877,-5.2298,-5.1898,-5.2513,-5.2267,-5.1652,-5.0974,-5.079,-5.0667,-4.9959,-4.9616,-4.9231,-4.8515,-4.8175,-4.7764,-4.7156,-4.6488,-4.5769,-4.4961,-4.48,-4.4479,-4.3509,-4.3349,-4.3349,-4.329,-4.2222,-4.1422,-4.1422,-3.9738,-3.8272,-3.7614,-3.7075,-3.6237,-3.4983,-3.6477,-3.7323,-3.6803,-3.8947,-3.989,-3.8983,-3.5393,-3.5424,-3.992,-4.2236,-4.4335,-4.6293,-4.72,-4.7958,-4.8604,-4.8604,-4.8635,-4.8696,-4.9374,-4.9712,-4.9774,-5.042,-5.0697,-5.0697,-5.0759,-5.0759,-5.0697,-5.0082,-5.0205,-5.0605,-4.9251,-4.9989,-5.1511,-5.9425,-5.9457,-5.9522,-5.9684,-5.9716,-5.9911,-6.0461,-5.9863,-5.9826,-6.1193,-6.1299,-6.1559,-6.2233,-6.2876,-6.3421,-6.366,-6.3356,-6.2698,-6.1584,-6.1188,-6.0559,-5.9605,-5.9419,-5.9464,-5.9628,-5.9419,-5.8754,-5.7682,-5.6816,-5.5978,-5.5153,-5.4581,-5.4137,-5.3819,-5.3682,-5.3692,-5.385,-5.3692,-5.3692,-5.385,-5.385,-5.4166,-5.4565,-5.4229,-5.4419,-5.4711,-5.374,-5.3377,-5.3334,-5.2877,-5.2606,-5.2513,-5.2667,-5.2606,-5.2329,-5.1652,-5.1836,-5.1959,-5.079,-5.0408,-5.0138,-4.9261,-4.8133,-4.7217,-4.7065,-4.6488,-4.589,-4.5535,-4.5464,-4.5172,-4.4237,-4.4077,-4.3888,-4.3379,-4.2222,-4.1422,-4.1422,-4.0546,-3.9679,-3.902,-3.926,-3.914,-3.8332,-3.8661,-3.8522,-3.756,-3.8352,-3.8687,-3.825,-3.8736,-3.9656,-4.096,-4.3131,-4.5026,-4.6493,-4.724,-4.7958,-4.8604,-4.8604,-4.8881,-4.9435,-4.962,-4.9959,-5.0451,-5.0636,-5.0697,-5.0728,-5.1251,-5.1467,-5.1436,-5.1282,-5.1313,-5.1374,-5.0513,-5.0611,-5.1215,-5.9716,-5.9716,-5.9716,-5.9716,-5.9716,-5.9802,-6.0101,-5.9967,-6.0187,-6.1174,-6.1466,-6.182,-6.2556,-6.2972,-6.3276,-6.3389,-6.3421,-6.2987,-6.2035,-6.1602,-6.1018,-6.0057,-5.9702,-5.9552,-5.9716,-5.9584,-5.9093,-5.8384,-5.7879,-5.7133,-5.6144,-5.6048,-5.5431,-5.4412,-5.4634,-5.4473,-5.4103,-5.4103,-5.4292,-5.4577,-5.4577,-5.4988,-5.5557,-5.5209,-5.5083,-5.4995,-5.4178,-5.3658,-5.3334,-5.3011,-5.2877,-5.2877,-5.3011,-5.2966,-5.2815,-5.2445,-5.251,-5.2483,-5.1436,-5.0944,-5.0408,-4.9266,-4.8355,-4.7751,-4.7751,-4.7476,-4.7027,-4.6425,-4.6282,-4.5988,-4.4967,-4.4526,-4.4107,-4.3409,-4.2222,-4.1265,-4.0965,-4.0636,-4.0277,-3.9918,-4.0457,-4.0733,-4.0484,-4.1025,-4.0925,-3.9889,-4.0801,-4.1055,-4.017,-4.1931,-4.2724,-4.2255,-4.4373,-4.5988,-4.7065,-4.7742,-4.8235,-4.8604,-4.8943,-4.9312,-4.9712,-5.0328,-5.082,-5.1159,-5.1467,-5.1621,-5.1652,-5.2021,-5.2175,-5.2144,-5.1836,-5.1898,-5.2052,-5.1067,-5.1154,-5.1809,-5.9716,-5.9716,-5.9716,-5.9716,-5.9673,-5.9617,-5.9459,-5.9962,-6.05,-6.1102,-6.1709,-6.2349,-6.3036,-6.318,-6.3228,-6.3276,-6.3372,-6.3129,-6.2389,-6.1962,-6.1329,-6.0309,-5.9907,-5.9749,-5.9878,-5.9834,-5.9637,-5.9331,-5.9011,-5.8249,-5.714,-5.7588,-5.6721,-5.4773,-5.5366,-5.5205,-5.4419,-5.4419,-5.4767,-5.526,-5.526,-5.5715,-5.6315,-5.622,-5.5873,-5.5342,-5.4692,-5.4077,-5.3577,-5.3219,-5.3175,-5.3144,-5.3321,-5.3233,-5.3086,-5.3042,-5.2908,-5.2575,-5.2021,-5.1282,-5.042,-4.922,-4.885,-4.8789,-4.8912,-4.8943,-4.8633,-4.7665,-4.746,-4.705,-4.5837,-4.5065,-4.4347,-4.3439,-4.2312,-4.1265,-4.0516,-4.0576,-4.0696,-4.0696,-4.1354,-4.1978,-4.2258,-4.3262,-4.3598,-4.2952,-4.4234,-4.4447,-4.3205,-4.4626,-4.4969,-4.3968,-4.5786,-4.7065,-4.7742,-4.8327,-4.8604,-4.8635,-4.9343,-4.9743,-4.9866,-5.1128,-5.1775,-5.1898,-5.2452,-5.2698,-5.2698,-5.2698,-5.2698,-5.2637,-5.2082,-5.2206,-5.2575,-5.1436,-5.1744,-5.2726,-5.9716,-5.9716,-5.9716,-5.9716,-5.9508,-5.9568,-6.0135,-5.9964,-6.0262,-6.1536,-6.1774,-6.2093,-6.2793,-6.3051,-6.3325,-6.3517,-6.2985,-6.2389,-6.1713,-6.1598,-6.1045,-5.9855,-5.9737,-6.0008,-6.0623,-6.0412,-5.9987,-5.9331,-5.8707,-5.8277,-5.8096,-5.7549,-5.7002,-5.6497,-5.6376,-5.6157,-5.5873,-5.5873,-5.5936,-5.6031,-5.6031,-5.6441,-5.701,-5.641,-5.6473,-5.6712,-5.5247,-5.4656,-5.4455,-5.364,-5.3334,-5.3365,-5.3188,-5.3131,-5.3086,-5.2863,-5.2698,-5.2698,-5.2575,-5.1652,-5.0636,-5.042,-4.9928,-4.9682,-5.0236,-5.0359,-5.0199,-4.963,-4.9543,-4.9018,-4.7306,-4.6441,-4.5382,-4.3589,-4.2701,-4.1811,-4.0576,-4.1392,-4.2081,-4.2081,-4.312,-4.4158,-4.5001,-4.477,-4.487,-4.5642,-4.527,-4.52,-4.5681,-4.5987,-4.6284,-4.6651,-4.7159,-4.7773,-4.845,-4.8573,-4.8604,-4.8635,-4.9343,-4.9989,-5.0574,-5.1344,-5.2021,-5.2575,-5.2667,-5.2698,-5.2698,-5.2698,-5.2698,-5.2698,-5.2606,-5.2637,-5.2698,-5.2483,-5.2678,-5.3011,-5.9716,-5.9716,-5.9673,-5.9508,-5.9375,-5.9466,-5.9932,-6.0149,-6.0613,-6.1679,-6.2108,-6.2506,-6.2971,-6.3244,-6.3469,-6.3612,-6.3077,-6.2414,-6.1703,-6.1316,-6.0845,-6.0332,-5.9911,-5.9878,-6.0202,-6.0114,-5.9863,-5.9508,-5.9217,-5.8862,-5.8475,-5.8507,-5.8033,-5.7066,-5.7201,-5.6949,-5.6335,-5.6278,-5.641,-5.6757,-5.6757,-5.7168,-5.7737,-5.7421,-5.7263,-5.7028,-5.5794,-5.5108,-5.4668,-5.3847,-5.3878,-5.4053,-5.3621,-5.3645,-5.3654,-5.309,-5.2788,-5.2637,-5.2267,-5.1713,-5.1159,-5.079,-5.0451,-5.0328,-5.0636,-5.0697,-5.0611,-5.0232,-5.0087,-4.9728,-4.8741,-4.7605,-4.6561,-4.5633,-4.3718,-4.2321,-4.2013,-4.2192,-4.2569,-4.3046,-4.4278,-4.5303,-4.5961,-4.6062,-4.6184,-4.6444,-4.6425,-4.6425,-4.6444,-4.6781,-4.7119,-4.7426,-4.8286,-4.9035,-4.9712,-4.9374,-4.9374,-4.9743,-5.0082,-5.0574,-5.1251,-5.1929,-5.2421,-5.2698,-5.2698,-5.2698,-5.2698,-5.2698,-5.2698,-5.2698,-5.2698,-5.2698,-5.2729,-5.2863,-5.2908,-5.2908,-5.9716,-5.9716,-5.9628,-5.9375,-5.9331,-5.9409,-5.9734,-6.0357,-6.1058,-6.1806,-6.2508,-6.3051,-6.3276,-6.3517,-6.3707,-6.3707,-6.3218,-6.2566,-6.1854,-6.1174,-6.072,-6.0558,-6.017,-5.9976,-5.9976,-5.9976,-5.9976,-5.9976,-5.9781,-5.9381,-5.8863,-5.9457,-5.897,-5.7721,-5.8049,-5.772,-5.6988,-5.6752,-5.6979,-5.7453,-5.7453,-5.78,-5.8321,-5.8321,-5.7927,-5.7312,-5.6437,-5.5794,-5.526,-5.4568,-5.4694,-5.5008,-5.4373,-5.4384,-5.4487,-5.352,-5.2987,-5.2606,-5.2082,-5.1836,-5.1621,-5.1251,-5.1036,-5.0974,-5.1128,-5.1159,-5.1115,-5.0822,-5.0645,-5.0393,-4.9929,-4.8757,-4.7652,-4.716,-4.4837,-4.3199,-4.3299,-4.3069,-4.3217,-4.4067,-4.5223,-4.6202,-4.6916,-4.7446,-4.762,-4.7342,-4.7927,-4.7958,-4.7127,-4.7865,-4.8389,-4.8543,-4.9281,-5.002,-5.0697,-5.0174,-5.0174,-5.0697,-5.0851,-5.119,-5.1744,-5.2575,-5.2852,-5.2729,-5.2883,-5.2852,-5.2788,-5.2788,-5.2788,-5.2877,-5.2877,-5.2877,-5.2877,-5.3042,-5.2997,-5.2788,-5.9716,-5.9716,-5.9628,-5.9375,-5.9331,-5.9466,-6.001,-6.0668,-6.1325,-6.2076,-6.2971,-6.3532,-6.3564,-6.3802,-6.3976,-6.3976,-6.3311,-6.2566,-6.1854,-6.1174,-6.0494,-5.9814,-6.0397,-6.072,-6.072,-6.072,-6.072,-6.072,-6.004,-5.9684,-5.9652,-5.9684,-5.952,-5.9125,-5.8966,-5.8741,-5.8451,-5.8254,-5.8194,-5.8257,-5.8257,-5.8257,-5.8321,-5.8321,-5.8289,-5.8116,-5.7344,-5.706,-5.6902,-5.6283,-5.6062,-5.6005,-5.5524,-5.5419,-5.5189,-5.3974,-5.3191,-5.2698,-5.2637,-5.2175,-5.1836,-5.2421,-5.2082,-5.1805,-5.2421,-5.2575,-5.2455,-5.2199,-5.2153,-5.1789,-5.0729,-4.9944,-4.8771,-4.6681,-4.58,-4.489,-4.3479,-4.3968,-4.473,-4.5464,-4.6117,-4.7231,-4.8901,-4.9127,-4.9212,-4.9466,-5.0082,-4.9866,-4.8543,-4.9743,-5.0759,-5.1374,-5.0297,-5.002,-5.0697,-5.0636,-5.0636,-5.0697,-5.1313,-5.1652,-5.1744,-5.3067,-5.3314,-5.276,-5.3375,-5.3419,-5.3086,-5.3086,-5.3188,-5.3334,-5.3334,-5.3334,-5.3334,-5.3144,-5.3086,-5.3042,-5.9716,-5.9716,-5.9628,-5.9375,-5.9685,-6.0141,-6.0651,-6.1308,-6.206,-6.2955,-6.3371,-6.366,-6.3802,-6.3976,-6.4024,-6.4024,-6.3311,-6.2761,-6.2502,-6.1433,-6.0461,-5.9749,-6.0397,-6.0785,-6.0785,-6.0785,-6.0785,-6.0785,-6.0526,-6.017,-5.9716,-5.9992,-5.9838,-5.9286,-5.8927,-5.8701,-5.861,-5.8413,-5.8321,-5.8321,-5.8321,-5.8321,-5.8321,-5.8321,-5.8321,-5.818,-5.7484,-5.7231,-5.7105,-5.641,-5.6473,-5.6712,-5.5911,-5.5977,-5.6056,-5.4419,-5.362,-5.3252,-5.2821,-5.2513,-5.239,-5.2637,-5.2513,-5.239,-5.2637,-5.2698,-5.2653,-5.2563,-5.2397,-5.2169,-5.1744,-5.0985,-5.0305,-4.9883,-4.7946,-4.6565,-4.6815,-4.604,-4.595,-4.7167,-4.7867,-4.8755,-5.0033,-5.0168,-5.0211,-5.0297,-5.0543,-5.0451,-4.9928,-5.042,-5.1005,-5.1682,-5.1221,-5.1251,-5.1929,-5.1528,-5.1528,-5.1959,-5.1775,-5.2144,-5.2975,-5.3498,-5.3806,-5.396,-5.3944,-5.3864,-5.3675,-5.3241,-5.3175,-5.3188,-5.3011,-5.2966,-5.2966,-5.3086,-5.2997,-5.2863,-5.9716,-5.9716,-5.9628,-5.9375,-5.9955,-6.0696,-6.1128,-6.1912,-6.276,-6.3611,-6.3755,-6.3802,-6.3976,-6.4024,-6.4024,-6.4024,-6.3311,-6.2793,-6.2566,-6.1433,-6.0558,-6.0073,-6.0526,-6.0882,-6.1109,-6.1109,-6.1109,-6.1109,-6.1109,-6.085,-6.0364,-6.0444,-6.0225,-5.9608,-5.8978,-5.8701,-5.861,-5.8413,-5.8321,-5.8321,-5.8321,-5.8321,-5.8321,-5.8321,-5.8321,-5.8243,-5.799,-5.7737,-5.7516,-5.7263,-5.7326,-5.7407,-5.6707,-5.6555,-5.6371,-5.5115,-5.4391,-5.3883,-5.3468,-5.3345,-5.3283,-5.3098,-5.2883,-5.276,-5.2975,-5.2852,-5.2698,-5.2698,-5.2518,-5.2367,-5.249,-5.1774,-5.1319,-5.1681,-4.9519,-4.8109,-4.8974,-4.7776,-4.7327,-4.8663,-4.9255,-4.9891,-5.0782,-5.0962,-5.0962,-5.0918,-5.1146,-5.1313,-5.1313,-5.1128,-5.1313,-5.199,-5.2021,-5.2236,-5.2698,-5.2267,-5.2267,-5.2698,-5.2452,-5.2821,-5.3745,-5.4145,-5.4483,-5.4652,-5.4422,-5.4204,-5.4047,-5.3582,-5.3441,-5.3486,-5.3523,-5.3571,-5.3571,-5.3661,-5.3616,-5.3481,-5.9716,-5.9716,-5.9628,-5.9375,-6.0121,-6.0954,-6.145,-6.2299,-6.3182,-6.3926,-6.4024,-6.4024,-6.4024,-6.4024,-6.4024,-6.4024,-6.3311,-6.2566,-6.1854,-6.1174,-6.0818,-6.0818,-6.0818,-6.1141,-6.1789,-6.1821,-6.1821,-6.1821,-6.1821,-6.1821,-6.1789,-6.1109,-6.0651,-6.0361,-5.9415,-5.8837,-5.861,-5.8413,-5.8321,-5.8321,-5.8321,-5.8321,-5.8321,-5.8321,-5.8352,-5.8415,-5.9064,-5.8875,-5.8401,-5.9064,-5.8843,-5.8274,-5.7965,-5.7074,-5.6139,-5.6139,-5.5441,-5.4683,-5.473,-5.473,-5.4529,-5.3899,-5.3221,-5.2914,-5.356,-5.3221,-5.2729,-5.2729,-5.2518,-5.2429,-5.2899,-5.2241,-5.1556,-5.1276,-5.0335,-4.9509,-4.9329,-4.8908,-4.8977,-4.9893,-4.9998,-5.036,-5.1236,-5.155,-5.1625,-5.1342,-5.2164,-5.2698,-5.2698,-5.2082,-5.2021,-5.2698,-5.2729,-5.2729,-5.2698,-5.2698,-5.2698,-5.2729,-5.3406,-5.3714,-5.3775,-5.5099,-5.5345,-5.4714,-5.4683,-5.4499,-5.4109,-5.4109,-5.4214,-5.4469,-5.511,-5.5391,-5.5391,-5.5193,-5.5101,-5.5055,-5.9716,-5.9716,-5.9673,-5.9596,-6.0676,-6.1517,-6.1698,-6.2844,-6.3764,-6.3991,-6.4024,-6.4024,-6.4024,-6.4024,-6.4024,-6.4024,-6.3311,-6.2566,-6.1854,-6.2081,-6.2275,-6.2275,-6.2275,-6.2372,-6.2566,-6.2566,-6.2566,-6.2566,-6.2566,-6.2307,-6.1821,-6.1897,-6.1418,-6.0393,-5.9759,-5.9147,-5.8642,-5.8873,-5.8717,-5.8415,-5.9317,-5.9412,-5.9064,-5.9507,-5.9696,-5.9665,-5.9412,-5.9159,-5.897,-5.8685,-5.8479,-5.8274,-5.8228,-5.7792,-5.7277,-5.6808,-5.6341,-5.5875,-5.5363,-5.5239,-5.5116,-5.453,-5.4222,-5.4006,-5.373,-5.356,-5.3406,-5.3406,-5.3315,-5.3331,-5.3454,-5.3285,-5.2887,-5.2307,-5.1424,-5.08,-5.068,-5.0178,-5.0083,-5.0798,-5.1067,-5.1475,-5.2195,-5.2346,-5.2376,-5.2301,-5.253,-5.2698,-5.2698,-5.2975,-5.3006,-5.2729,-5.3191,-5.3191,-5.2698,-5.2698,-5.2698,-5.2729,-5.3406,-5.3914,-5.4406,-5.5315,-5.5869,-5.6193,-5.5842,-5.5596,-5.5473,-5.5008,-5.4837,-5.4913,-5.4916,-5.4916,-5.4916,-5.4823,-5.4823,-5.4823,-5.9552,-5.9508,-5.9605,-5.9762,-6.076,-6.1598,-6.1902,-6.298,-6.385,-6.385,-6.3897,-6.4024,-6.4024,-6.4024,-6.4024,-6.4024,-6.3311,-6.2566,-6.1854,-6.2469,-6.302,-6.3311,-6.3344,-6.3182,-6.289,-6.3182,-6.3182,-6.289,-6.3182,-6.3117,-6.2696,-6.2654,-6.2128,-6.1198,-6.0665,-6.0082,-5.9468,-5.9727,-5.9569,-5.9159,-5.9949,-6.0044,-5.9728,-6.0139,-6.0297,-6.0234,-5.9854,-5.9538,-5.9254,-5.8812,-5.8496,-5.8321,-5.8321,-5.8136,-5.7808,-5.7415,-5.7104,-5.6825,-5.6372,-5.6279,-5.6232,-5.5906,-5.5411,-5.4977,-5.4823,-5.4575,-5.439,-5.4252,-5.416,-5.4129,-5.4313,-5.4067,-5.3759,-5.3606,-5.2902,-5.2292,-5.2017,-5.1621,-5.1452,-5.1695,-5.186,-5.2103,-5.2502,-5.2653,-5.2698,-5.2698,-5.2975,-5.3129,-5.3129,-5.3699,-5.3883,-5.3529,-5.3652,-5.3529,-5.3129,-5.3129,-5.3129,-5.3129,-5.3806,-5.4483,-5.513,-5.5807,-5.6409,-5.6779,-5.6165,-5.5951,-5.592,-5.5519,-5.5333,-5.5317,-5.5485,-5.553,-5.553,-5.553,-5.553,-5.553,-5.9375,-5.9331,-5.9466,-5.9932,-6.059,-6.134,-6.2012,-6.2907,-6.3532,-6.3532,-6.3802,-6.3944,-6.3944,-6.3976,-6.3991,-6.3926,-6.3279,-6.2599,-6.1951,-6.2599,-6.3311,-6.3991,-6.4024,-6.37,-6.2987,-6.3667,-6.3667,-6.2987,-6.3667,-6.4024,-6.3991,-6.3246,-6.2765,-6.25,-6.1823,-6.1224,-6.0756,-6.0772,-6.0598,-6.0345,-6.0423,-6.0455,-6.0392,-6.0455,-6.0487,-6.0455,-6.0329,-5.9918,-5.938,-5.9254,-5.878,-5.8321,-5.8321,-5.8136,-5.7918,-5.7918,-5.7778,-5.759,-5.759,-5.759,-5.759,-5.759,-5.6652,-5.5902,-5.6387,-5.6044,-5.5515,-5.524,-5.4978,-5.4929,-5.5275,-5.4701,-5.4344,-5.4891,-5.4448,-5.381,-5.3111,-5.3081,-5.2961,-5.2414,-5.2429,-5.2535,-5.2535,-5.2747,-5.2883,-5.2883,-5.3422,-5.3806,-5.3806,-5.4453,-5.4745,-5.4683,-5.416,-5.3868,-5.3806,-5.3806,-5.373,-5.3745,-5.4406,-5.513,-5.5715,-5.6471,-5.681,-5.6779,-5.6084,-5.5776,-5.5776,-5.5776,-5.5776,-5.5869,-5.6563,-5.681,-5.681,-5.681,-5.681,-5.681,-5.9375,-5.9331,-5.9466,-5.9932,-6.059,-6.134,-6.2012,-6.2796,-6.3276,-6.3276,-6.3517,-6.3707,-6.3707,-6.385,-6.3764,-6.3182,-6.2987,-6.2825,-6.2663,-6.3344,-6.3829,-6.3991,-6.4024,-6.3959,-6.3764,-6.3926,-6.3926,-6.3764,-6.3926,-6.4024,-6.3991,-6.3246,-6.289,-6.2765,-6.187,-6.1409,-6.1349,-6.1471,-6.1218,-6.0709,-6.1578,-6.1656,-6.1213,-6.1751,-6.1972,-6.1814,-6.0708,-6.0202,-5.9918,-5.8843,-5.8401,-5.8321,-5.8321,-5.8274,-5.8228,-5.8228,-5.8182,-5.8136,-5.8136,-5.8136,-5.8136,-5.8136,-5.7915,-5.7476,-5.6699,-5.6387,-5.6201,-5.5922,-5.5875,-5.5766,-5.5636,-5.5497,-5.5234,-5.4819,-5.4493,-5.4063,-5.3314,-5.3757,-5.3849,-5.3162,-5.3699,-5.4175,-5.4175,-5.4252,-5.4252,-5.4252,-5.4375,-5.4468,-5.4468,-5.513,-5.5253,-5.4714,-5.5068,-5.5007,-5.4468,-5.4468,-5.4191,-5.3745,-5.4914,-5.5561,-5.5715,-5.6471,-5.681,-5.681,-5.6656,-5.6594,-5.6594,-5.6594,-5.6594,-5.6594,-5.6748,-5.681,-5.681,-5.681,-5.681,-5.681,-5.9197,-5.9351,-5.9617,-6.0088,-6.0741,-6.1472,-6.214,-6.2682,-6.3002,-6.3002,-6.3341,-6.358,-6.358,-6.3526,-6.3182,-6.2437,-6.2696,-6.289,-6.289,-6.3894,-6.4347,-6.4024,-6.4315,-6.4347,-6.4024,-6.4024,-6.4024,-6.4024,-6.4024,-6.4024,-6.3991,-6.3603,-6.3408,-6.3408,-6.2913,-6.2532,-6.2329,-6.2397,-6.2093,-6.1549,-6.2179,-6.2225,-6.194,-6.2288,-6.2396,-6.2207,-6.0803,-5.9886,-5.9222,-5.8574,-5.8321,-5.8321,-5.8321,-5.8496,-5.8685,-5.8369,-5.8496,-5.8685,-5.8415,-5.8321,-5.8415,-5.8685,-5.878,-5.8544,-5.7587,-5.7337,-5.7245,-5.684,-5.6746,-5.6652,-5.6303,-5.6207,-5.6084,-5.5745,-5.5589,-5.5279,-5.4543,-5.4757,-5.4757,-5.4082,-5.4421,-5.4683,-5.4683,-5.4683,-5.4683,-5.4683,-5.5007,-5.5191,-5.5191,-5.5838,-5.6053,-5.5715,-5.5684,-5.553,-5.5191,-5.5191,-5.5007,-5.4668,-5.5345,-5.5869,-5.6255,-5.6625,-5.681,-5.681,-5.681,-5.681,-5.681,-5.681,-5.681,-5.681,-5.681,-5.681,-5.681,-5.681,-5.681,-5.681,-5.9062,-5.9489,-5.996,-6.0392,-6.1042,-6.177,-6.2418,-6.271,-6.2856,-6.2856,-6.3293,-6.358,-6.358,-6.3074,-6.2502,-6.2048,-6.2437,-6.2825,-6.3052,-6.4185,-6.4606,-6.4024,-6.4542,-6.4606,-6.4024,-6.4024,-6.4024,-6.4024,-6.4024,-6.4024,-6.4024,-6.3894,-6.3847,-6.3897,-6.3768,-6.3563,-6.3228,-6.318,-6.2856,-6.2464,-6.2414,-6.2396,-6.2396,-6.2396,-6.2396,-6.2207,-6.0961,-5.9602,-5.8432,-5.8352,-5.8415,-5.8464,-5.8386,-5.886,-5.9349,-5.8733,-5.8891,-5.9191,-5.8748,-5.8527,-5.8622,-5.9317,-5.9475,-5.9317,-5.8748,-5.8574,-5.8262,-5.7668,-5.7495,-5.7353,-5.6906,-5.6902,-5.6994,-5.6994,-5.6994,-5.6748,-5.5961,-5.5869,-5.5622,-5.4929,-5.5007,-5.5068,-5.5068,-5.5068,-5.5068,-5.5068,-5.5561,-5.5869,-5.5869,-5.6502,-5.681,-5.681,-5.6176,-5.5869,-5.5869,-5.5869,-5.5869,-5.5869,-5.5869,-5.6176,-5.681,-5.681,-5.681,-5.681,-5.681,-5.681,-5.681,-5.681,-5.681,-5.681,-5.681,-5.681,-5.681,-5.681,-5.681,-5.681,-5.9331,-5.982,-6.0436,-6.091,-6.1598,-6.2301,-6.2955,-6.3131,-6.318,-6.318,-6.3421,-6.358,-6.358,-6.2622,-6.2178,-6.2696,-6.2242,-6.2502,-6.3764,-6.4056,-6.4121,-6.4024,-6.4088,-6.4088,-6.4024,-6.4024,-6.4024,-6.4024,-6.4024,-6.4024,-6.3991,-6.3344,-6.3282,-6.3628,-6.2983,-6.2891,-6.318,-6.2954,-6.2808,-6.271,-6.2464,-6.2396,-6.2396,-6.2396,-6.2396,-6.227,-6.1529,-6.036,-5.9064,-5.8464,-5.8685,-5.9112,-5.8877,-5.9412,-6.0091,-5.9789,-5.9507,-5.9412,-5.9886,-5.9602,-5.9317,-6.0012,-6.017,-6.0139,-6.0044,-5.957,-5.8861,-5.7715,-5.7495,-5.7353,-5.6906,-5.7303,-5.7672,-5.7672,-5.7672,-5.7457,-5.6779,-5.6656,-5.6361,-5.5653,-5.6115,-5.6532,-5.6532,-5.6532,-5.6532,-5.6532,-5.6625,-5.6656,-5.6656,-5.6748,-5.681,-5.681,-5.6717,-5.6656,-5.6656,-5.6656,-5.6656,-5.6656,-5.6656,-5.6717,-5.681,-5.681,-5.681,-5.681,-5.681,-5.681,-5.681,-5.681,-5.681,-5.681,-5.681,-5.681,-5.681,-5.681,-5.681,-5.681,-5.9331,-5.9775,-6.0344,-6.0988,-6.1692,-6.2396,-6.31,-6.3228,-6.3228,-6.3228,-6.3469,-6.3451,-6.3033,-6.2299,-6.2113,-6.2825,-6.2599,-6.302,-6.4477,-6.4574,-6.4574,-6.4574,-6.4574,-6.4412,-6.4024,-6.4024,-6.4024,-6.4024,-6.4024,-6.3897,-6.3802,-6.3447,-6.3338,-6.3341,-6.302,-6.2908,-6.2954,-6.2856,-6.271,-6.2562,-6.2414,-6.2396,-6.2396,-6.2396,-6.2396,-6.2238,-6.1182,-6.0392,-5.976,-5.9064,-5.9223,-5.9616,-5.9473,-5.9895,-6.0348,-5.9844,-5.9579,-5.9519,-5.9801,-5.9362,-5.9111,-6.0209,-6.0558,-6.0704,-6.0704,-6.058,-6.0027,-5.845,-5.8088,-5.7945,-5.7462,-5.7611,-5.7826,-5.7826,-5.7826,-5.758,-5.6902,-5.681,-5.6735,-5.6491,-5.6786,-5.6971,-5.6971,-5.6971,-5.6923,-5.681,-5.681,-5.681,-5.681,-5.681,-5.681,-5.681,-5.681,-5.6994,-5.7364,-5.6994,-5.6994,-5.7364,-5.6994,-5.681,-5.681,-5.681,-5.681,-5.681,-5.681,-5.681,-5.681,-5.681,-5.681,-5.681,-5.681,-5.681,-5.681,-5.681,-5.681,-5.681]},{"header":{"parameterUnit":"m.s-1","parameterCategory":1,"la1":30.6,"la2":28.766,"lo1":-90.7593,"lo2":-88.6598,"dy":0.0162,"dx":0.0183,"nx":116,"ny":114,"refTime":"2024-04-21T00:00:00:Z","depth":0,"parameterNumber":3,"parameterNumberName":"V-component_of_WINDS"},"data":[0.0,0.0,0.0,0.0,0.0,0.0,0.0,0.0,0.0,0.0,0.0,0.0,0.0,0.0,0.0,0.0,0.0,0.0,0.0,0.0,0.0,0.0,0.0,0.0,0.0,0.0,0.0,0.0,0.0,0.0,0.0,0.0,0.0,0.0,0.0,0.0,0.0,0.0,0.0,0.0,0.0,0.0,0.0,0.0,0.0,0.0,0.0,0.0,0.0,0.0,0.0,0.0,0.0,0.0,0.0,0.0,0.0,0.0,0.0,0.0,0.0,0.0,0.0,0.0,0.0,0.0,0.0,0.0,0.0,0.0,0.0,0.0,0.0,0.0,0.0,0.0,0.0,0.0,0.0,0.0,0.0,0.0,0.0,0.0,0.0,0.0,0.0,0.0,0.0,0.0,0.0,0.0,0.0,0.0,0.0,0.0,0.0,0.0,0.0,0.0,0.0,0.0,0.0,0.0,0.0,0.0,0.0,0.0,0.0,0.0,0.0,0.0,0.0,0.0,0.0,0.0,0.0,0.0,0.0,0.0,0.0,0.0,0.0,0.0,0.0,0.0,0.0,0.0,0.0,0.0,0.0,0.0,0.0,0.0,0.0,0.0,0.0,0.0,0.0,0.0,0.0,0.0,0.0,0.0,0.0,0.0,0.0,0.0,0.0,0.0,0.0,0.0,0.0,0.0,0.0,0.0,0.0,0.0,0.0,0.0,0.0,0.0,0.0,0.0,0.0,0.0,0.0,0.0,0.0,0.0,0.0,0.0,0.0,0.0,0.0,0.0,0.0,0.0,0.0,0.0,0.0,0.0,0.0,0.0,0.0,0.0,0.0,0.0,0.0,0.0,0.0,0.0,0.0,0.0,0.0,0.0,0.0,0.0,0.0,0.0,0.0,0.0,0.0,0.0,0.0,0.0,0.0,0.0,0.0,0.0,0.0,0.0,0.0,0.0,0.0,0.0,0.0,0.0,0.0,0.0,0.0,0.0,0.0,0.0,0.0,0.0,0.0,0.0,0.0,0.0,0.0,0.0,0.0,0.0,0.0,0.0,0.0,0.0,0.0,0.0,0.0,0.0,0.0,0.0,0.0,0.0,0.0,0.0,0.0,0.0,0.0,0.0,0.0,0.0,0.0,0.0,0.0,0.0,0.0,0.0,0.0,0.0,0.0,0.0,0.0,0.0,0.0,0.0,0.0,0.0,0.0,0.0,0.0,0.0,0.0,0.0,0.0,0.0,0.0,0.0,0.0,0.0,0.0,0.0,0.0,0.0,0.0,0.0,0.0,0.0,0.0,0.0,0.0,0.0,0.0,0.0,0.0,0.0,0.0,0.0,0.0,0.0,0.0,0.0,0.0,0.0,0.0,0.0,0.0,0.0,0.0,0.0,0.0,0.0,0.0,0.0,0.0,0.0,0.0,0.0,0.0,0.0,0.0,0.0,0.0,0.0,0.0,0.0,0.0,0.0,0.0,0.0,0.0,0.0,0.0,0.0,0.0,0.0,0.0,0.0,0.0,0.0,0.0,0.0,0.0,0.0,0.0,0.0,0.0,0.0,0.0,0.0,0.0,0.0,0.0,0.0,0.0,0.0,0.0,0.0,0.0,0.0,0.0,0.0,0.0,0.0,0.0,0.0,0.0,0.0,0.0,0.0,0.0,0.0,0.0,0.0,0.0,0.0,0.0,0.0,0.0,0.0,0.0,0.0,0.0,0.0,0.0,0.0,0.0,0.0,0.0,0.0,0.0,0.0,0.0,0.0,0.0,0.0,0.0,0.0,0.0,0.0,0.0,0.0,0.0,0.0,0.0,0.0,0.0,0.0,0.0,0.0,0.0,0.0,0.0,0.0,0.0,0.0,0.0,0.0,0.0,0.0,0.0,0.0,0.0,0.0,0.0,0.0,0.0,0.0,0.0,0.0,0.0,0.0,0.0,0.0,0.0,0.0,0.0,0.0,0.0,0.0,0.0,0.0,0.0,0.0,0.0,0.0,0.0,0.0,0.0,0.0,0.0,0.0,0.0,0.0,0.0,0.0,0.0,0.0,0.0,0.0,0.0,0.0,0.0,0.0,0.0,0.0,0.0,0.0,0.0,0.0,0.0,0.0,0.0,0.0,0.0,0.0,0.0,0.0,0.0,0.0,0.0,0.0,0.0,0.0,0.0,0.0,0.0,0.0,0.0,0.0,0.0,0.0,0.0,0.0,0.0,0.0,0.0,0.0,0.0,0.0,0.0,0.0,0.0,0.0,0.0,0.0,0.0,0.0,0.0,0.0,0.0,0.0,0.0,0.0,0.0,0.0,0.0,0.0,0.0,0.0,0.0,0.0,0.0,0.0,0.0,0.0,0.0,0.0,0.0,0.0,0.0,0.0,0.0,0.0,0.0,0.0,0.0,0.0,0.0,0.0,0.0,0.0,0.0,0.0,0.0,0.0,0.0,0.0,0.0,0.0,0.0,0.0,0.0,0.0,0.0,0.0,0.0,0.0,0.0,0.0,0.0,0.0,0.0,0.0,0.0,0.0,0.0,0.0,0.0,0.0,0.0,0.0,0.0,0.0,0.0,0.0,0.0,0.0,0.0,0.0,0.0,0.0,0.0,0.0,0.0,0.0,0.0,0.0,0.0,0.0,0.0,0.0,0.0,0.0,0.0,0.0,0.0,0.0,0.0,0.0,0.0,0.0,0.0,0.0,0.0,0.0,0.0,0.0,0.0,0.0,0.0,0.0,0.0,0.0,0.0,0.0,0.0,0.0,0.0,0.0,0.0,0.0,0.0,0.0,0.0,0.0,0.0,0.0,0.0,0.0,0.0,0.0,0.0,0.0,0.0,0.0,0.0,0.0,0.0,0.0,0.0,0.0,0.0,0.0,0.0,0.0,0.0,0.0,0.0,0.0,0.0,0.0,0.0,0.0,0.0,0.0,0.0,0.0,0.0,0.0,0.0,0.0,0.0,0.0,0.0,0.0,0.0,0.0,0.0,0.0,0.0,0.0,0.0,0.0,0.0,0.0,0.0,0.0,0.0,0.0,0.0,0.0,0.0,0.0,0.0,0.0,0.0,0.0,0.0,0.0,0.0,0.0,0.0,0.0,0.0,0.0,0.0,0.0,0.0,0.0,0.0,0.0,0.0,0.0,0.0,0.0,0.0,0.0,0.0,0.0,0.0,0.0,0.0,0.0,0.0,0.0,0.0,0.0,0.0,0.0,0.0,0.0,0.0,0.0,0.0,0.0,0.0,0.0,0.0,0.0,0.0,0.0,0.0,0.0,0.0,0.0,0.0,0.0,0.0,0.0,0.0,0.0,0.0,0.0,0.0,0.0,0.0,0.0,0.0,0.0,0.0,0.0,0.0,0.0,0.0,0.0,0.0,0.0,0.0,0.0,0.0,0.0,0.0,0.0,0.0,0.0,0.0,0.0,0.0,0.0,0.0,0.0,0.0,0.0,0.0,0.0,0.0,0.0,0.0,0.0,0.0,0.0,0.0,0.0,0.0,0.0,0.0,0.0,0.0,0.0,0.0,0.0,0.0,0.0,0.0,0.0,0.0,0.0,0.0,0.0,0.0,0.0,0.0,0.0,0.0,0.0,0.0,0.0,0.0,0.0,0.0,0.0,0.0,0.0,0.0,0.0,0.0,0.0,0.0,0.0,0.0,0.0,0.0,0.0,0.0,0.0,0.0,0.0,0.0,0.0,0.0,0.0,0.0,0.0,0.0,0.0,0.0,0.0,0.0,0.0,0.0,0.0,0.0,0.0,0.0,0.0,0.0,0.0,0.0,0.0,0.0,0.0,0.0,0.0,0.0,0.0,0.0,0.0,0.0,0.0,0.0,0.0,0.0,0.0,0.0,0.0,0.0,0.0,0.0,0.0,0.0,0.0,0.0,0.0,0.0,0.0,0.0,0.0,0.0,0.0,0.0,0.0,0.0,0.0,0.0,0.0,0.0,0.0,0.0,0.0,0.0,0.0,0.0,0.0,0.0,0.0,0.0,0.0,0.0,0.0,0.0,0.0,0.0,0.0,0.0,0.0,0.0,0.0,0.0,0.0,0.0,0.0,0.0,0.0,0.0,0.0,0.0,0.0,0.0,0.0,0.0,0.0,0.0,0.0,0.0,0.0,0.0,0.0,0.0,0.0,0.0,0.0,0.0,0.0,0.0,0.0,0.0,0.0,0.0,0.0,0.0,0.0,0.0,0.0,0.0,0.0,0.0,0.0,0.0,0.0,0.0,0.0,0.0,0.0,0.0,0.0,0.0,0.0,0.0,0.0,0.0,0.0,0.0,0.0,0.0,0.0,0.0,0.0,0.0,0.0,0.0,0.0,0.0,0.0,0.0,0.0,0.0,0.0,0.0,0.0,0.0,0.0,0.0,0.0,0.0,0.0,0.0,0.0,0.0,0.0,0.0,0.0,0.0,0.0,0.0,0.0,0.0,0.0,0.0,0.0,0.0,0.0,0.0,0.0,0.0,0.0,0.0,0.0,0.0,0.0,0.0,0.0,0.0,0.0,0.0,0.0,0.0,0.0,0.0,0.0,0.0,0.0,0.0,0.0,0.0,0.0,0.0,0.0,0.0,0.0,0.0,0.0,0.0,0.0,0.0,0.0,0.0,0.0,0.0,0.0,0.0,0.0,0.0,0.0,0.0,0.0,0.0,0.0,0.0,0.0,0.0,0.0,0.0,0.0,0.0,0.0,0.0,0.0,0.0,0.0,0.0,0.0,0.0,0.0,0.0,0.0,0.0,0.0,0.0,0.0,0.0,0.0,0.0,0.0,0.0,0.0,0.0,0.0,0.0,0.0,0.0,0.0,0.0,0.0,0.0,0.0,0.0,0.0,0.0,0.0,0.0,0.0,0.0,0.0,0.0,0.0,0.0,0.0,0.0,0.0,0.0,0.0,0.0,0.0,0.0,0.0,0.0,0.0,0.0,0.0,0.0,0.0,0.0,0.0,0.0,0.0,0.0,0.0,0.0,0.0,0.0,0.0,0.0,0.0,0.0,0.0,0.0,0.0,0.0,0.0,0.0,0.0,0.0,0.0,0.0,0.0,0.0,0.0,0.0,0.0,0.0,0.0,0.0,0.0,0.0,0.0,0.0,0.0,0.0,0.0,0.0,0.0,0.0,0.0,0.0,0.0,0.0,0.0,0.0,0.0,0.0,0.0,0.0,0.0,0.0,0.0,0.0,0.0,0.0,0.0,0.0,0.0,0.0,0.0,0.0,0.0,0.0,0.0,0.0,0.0,0.0,0.0,0.0,0.0,0.0,0.0,0.0,0.0,0.0,0.0,0.0,0.0,0.0,0.0,0.0,0.0,0.0,0.0,0.0,0.0,0.0,0.0,0.0,0.0,0.0,0.0,0.0,0.0,0.0,0.0,0.0,0.0,0.0,0.0,0.0,0.0,0.0,0.0,0.0,0.0,0.0,0.0,0.0,0.0,0.0,0.0,0.0,0.0,0.0,0.0,0.0,0.0,0.0,0.0,0.0,0.0,0.0,0.0,0.0,0.0,0.0,0.0,0.0,0.0,0.0,0.0,0.0,0.0,0.0,0.0,0.0,0.0,0.0,0.0,0.0,0.0,0.0,0.0,0.0,0.0,0.0,0.0,0.0,0.0,0.0,0.0,0.0,0.0,0.0,0.0,0.0,0.0,0.0,0.0,0.0,0.0,0.0,0.0,0.0,0.0,0.0,0.0,0.0,0.0,0.0,0.0,0.0,0.0,0.0,0.0,0.0,0.0,0.0,0.0,0.0,0.0,0.0,0.0,0.0,0.0,0.0,0.0,0.0,0.0,0.0,0.0,0.0,0.0,0.0,0.0,0.0,0.0,0.0,0.0,0.0,0.0,0.0,0.0,0.0,0.0,0.0,0.0,0.0,0.0,0.0,0.0,0.0,0.0,0.0,0.0,0.0,0.0,0.0,0.0,0.0,0.0,0.0,0.0,0.0,0.0,0.0,0.0,0.0,0.0,0.0,0.0,0.0,0.0,0.0,0.0,0.0,0.0,0.0,0.0,0.0,0.0,0.0,0.0,0.0,0.0,0.0,0.0,0.0,0.0,0.0,0.0,0.0,0.0,0.0,0.0,0.0,0.0,0.0,0.0,0.0,0.0,0.0,0.0,1.6182,1.4756,0.0,0.0,0.0,0.0,0.0,0.0,0.0,0.0,0.0,0.0,0.0,0.0,0.0,0.0,0.0,0.0,0.0,0.0,0.0,0.0,0.0,0.0,0.0,1.564,1.5936,1.5853,1.6056,1.6159,1.6129,0.0,0.0,0.0,0.0,0.0,1.4891,1.457,1.4728,1.5497,1.498,1.5242,1.6293,1.5589,1.4826,1.396,0.0,0.0,0.0,0.0,0.0,0.0,0.0,0.0,0.0,0.0,0.0,0.0,0.0,0.0,0.0,0.0,0.0,0.0,0.0,0.0,0.0,0.0,0.0,0.0,0.0,0.0,0.0,0.0,0.0,0.0,0.0,0.0,0.0,0.0,0.0,0.0,0.0,0.0,0.0,0.0,0.0,0.0,0.0,0.0,0.0,0.0,0.0,0.0,0.0,0.0,0.0,0.0,0.0,0.0,0.0,0.0,0.0,0.0,0.0,0.0,0.0,0.0,0.0,0.0,0.0,0.0,0.0,0.0,0.0,0.0,1.9217,1.7771,0.0,0.0,0.0,0.0,0.0,0.0,0.0,0.0,0.0,0.0,0.0,0.0,0.0,0.0,0.0,0.0,0.0,0.0,0.0,0.0,0.0,1.4745,1.5381,1.6346,1.6796,1.65,1.6758,1.6908,1.6841,1.6035,0.0,0.0,0.0,1.5319,1.5543,1.5402,1.5911,1.7171,1.7015,1.7473,1.8418,1.9024,1.8541,1.7073,1.5613,0.0,0.0,0.0,0.0,0.0,0.0,0.0,0.0,0.0,0.0,0.0,0.0,0.0,0.0,0.0,0.0,0.0,0.0,0.0,0.0,0.0,0.0,0.0,0.0,0.0,0.0,0.0,0.0,0.0,0.0,0.0,0.0,0.0,0.0,0.0,0.0,0.0,0.0,0.0,0.0,0.0,0.0,0.0,0.0,0.0,0.0,0.0,0.0,0.0,0.0,0.0,0.0,0.0,0.0,0.0,0.0,0.0,0.0,0.0,0.0,0.0,0.0,0.0,2.4691,2.4912,2.4712,2.5224,2.5178,2.4536,2.2747,2.1478,2.0659,1.9432,0.0,0.0,0.0,0.0,0.0,0.0,0.0,0.0,0.0,0.0,0.0,0.0,0.0,0.0,0.0,0.0,0.0,0.0,0.0,1.5488,1.7017,1.7316,1.7877,1.9081,1.8823,1.8497,1.8244,1.7222,1.6453,1.6068,1.5504,1.5599,1.6511,1.5987,1.6683,1.8706,2.0088,2.1096,2.1697,2.225,2.2372,2.1995,1.8673,1.7696,1.8357,0.0,0.0,0.0,0.0,0.0,0.0,0.0,0.0,0.0,0.0,0.0,0.0,0.0,0.0,0.0,0.0,0.0,0.0,0.0,0.0,0.0,0.0,0.0,0.0,0.0,0.0,0.0,0.0,0.0,0.0,0.0,0.0,0.0,0.0,0.0,0.0,0.0,0.0,0.0,0.0,0.0,1.6078,1.6998,0.0,0.0,0.0,0.0,0.0,0.0,0.0,0.0,0.0,0.0,0.0,0.0,0.0,2.4129,2.521,2.7345,2.8181,2.7806,2.9087,2.923,2.8328,2.8691,2.856,2.8054,2.8421,0.0,2.2515,2.1993,0.0,0.0,0.0,0.0,0.0,0.0,0.0,0.0,0.0,0.0,0.0,0.0,0.0,0.0,0.0,0.0,0.0,0.0,0.0,0.0,0.0,1.8982,1.981,2.0057,2.0682,2.0476,1.9095,1.8486,1.7775,1.6974,1.6282,1.6296,1.7128,1.7443,1.8831,2.1315,2.2975,2.3929,2.418,2.4732,2.5008,2.4908,2.2631,2.1102,1.9991,1.769,0.0,0.0,0.0,0.0,0.0,0.0,0.0,0.0,0.0,0.0,0.0,0.0,0.0,0.0,0.0,0.0,0.0,0.0,0.0,0.0,0.0,0.0,0.0,0.0,0.0,0.0,0.0,0.0,0.0,0.0,0.0,0.0,0.0,0.0,0.0,0.0,0.0,0.0,0.0,1.6456,1.8344,1.8507,1.8333,1.7812,0.0,0.0,0.0,0.0,0.0,0.0,0.0,0.0,0.0,2.4829,2.6122,2.7192,2.7953,2.9517,3.0118,2.991,3.0813,3.0997,3.0582,3.0721,3.0652,3.0491,3.079,2.9591,2.7313,2.5657,2.3723,2.1774,0.0,0.0,0.0,0.0,2.0178,2.0401,0.0,0.0,0.0,0.0,0.0,0.0,0.0,0.0,0.0,0.0,0.0,0.0,1.8888,2.0497,2.1509,2.1376,2.2291,2.2127,2.0422,1.9687,1.8928,1.7966,1.7077,1.6982,1.775,1.9308,2.125,2.3592,2.512,2.5952,2.6102,2.6552,2.6751,2.6702,2.5868,2.4292,2.211,1.9991,1.8208,1.6608,0.0,0.0,0.0,0.0,0.0,0.0,0.0,0.0,0.0,0.0,0.0,0.0,0.0,0.0,0.0,0.0,0.0,0.0,0.0,0.0,0.0,0.0,0.0,0.0,0.0,0.0,0.0,0.0,0.0,0.0,0.0,0.0,0.0,0.0,0.0,0.0,0.0,1.848,2.0271,1.993,2.0342,1.9998,0.0,0.0,0.0,0.0,0.0,0.0,2.4007,2.5716,2.7139,2.813,2.916,2.9848,3.0262,3.1157,3.1593,3.1593,3.1961,3.2144,3.2193,3.2193,3.2193,3.2193,3.2193,3.1869,3.118,2.8816,2.6986,2.5587,2.4163,2.3282,2.2876,2.3582,2.3582,2.3491,0.0,0.0,0.0,0.0,0.0,0.0,0.0,0.0,0.0,0.0,0.0,1.876,2.0836,2.1555,2.2467,2.3872,2.3619,2.3195,2.274,2.0827,1.9356,1.8585,1.7551,1.7477,1.8511,2.1608,2.374,2.4918,2.6082,2.6894,2.7385,2.7434,2.7434,2.7434,2.7385,2.6937,2.5946,2.2261,2.09,2.095,1.7273,0.0,0.0,0.0,0.0,0.0,0.0,0.0,0.0,0.0,0.0,0.0,0.0,0.0,0.0,0.0,0.0,0.0,0.0,0.0,0.0,0.0,0.0,0.0,0.0,0.0,0.0,0.0,0.0,0.0,0.0,0.0,0.0,0.0,0.0,0.0,0.0,0.0,0.0,2.205,2.2764,0.0,0.0,0.0,0.0,2.242,2.3856,2.5601,2.7621,2.8723,2.978,3.079,3.1777,3.2305,3.2328,3.2879,3.3178,3.3178,3.3201,3.3201,3.3201,3.3201,3.3201,3.3201,3.3201,3.2902,3.2282,3.0698,2.9412,2.8468,2.7916,2.7111,2.6306,2.6795,2.668,2.6352,0.0,0.0,0.0,0.0,0.0,1.5059,1.5014,1.5594,1.6194,1.6658,1.8367,1.9983,2.1069,2.2799,2.4253,2.5217,2.5347,2.5048,2.4185,2.2297,2.1265,2.1304,1.952,1.9689,2.2168,2.3658,2.5301,2.7127,2.752,2.8158,2.9042,2.9042,2.9042,2.9018,2.8674,2.8223,2.7446,2.4464,2.2765,2.1823,1.9409,1.7339,0.0,0.0,0.0,0.0,0.0,0.0,0.0,0.0,0.0,0.0,0.0,0.0,0.0,0.0,0.0,0.0,0.0,0.0,0.0,0.0,0.0,0.0,0.0,0.0,0.0,0.0,0.0,0.0,0.0,0.0,0.0,0.0,0.0,0.0,0.0,0.0,0.0,2.4365,2.4719,0.0,2.2983,2.3603,2.4384,2.511,2.6818,2.8471,2.9871,3.0882,3.1892,3.2902,3.3269,3.3637,3.3981,3.3821,3.3752,3.3752,3.343,3.3292,3.3292,3.3292,3.3292,3.3292,3.3292,3.3361,3.3407,3.2879,3.1685,3.017,3.0009,2.9504,2.8907,2.9091,2.9251,2.9412,0.0,0.0,0.0,0.0,0.0,1.5059,1.4935,1.5726,1.6579,1.7209,1.9302,2.1094,2.2174,2.4244,2.5709,2.6063,2.6517,2.6339,2.5336,2.3473,2.2511,2.2763,2.1235,2.1707,2.4496,2.5276,2.6542,2.8382,2.8382,2.8821,2.9699,2.9699,2.9699,2.9675,2.9333,2.9007,2.8596,2.6549,2.4872,2.3429,2.1866,2.0112,1.8405,0.0,0.0,0.0,0.0,0.0,0.0,0.0,0.0,0.0,0.0,0.0,0.0,0.0,0.0,0.0,0.0,0.0,0.0,0.0,0.0,0.0,0.0,0.0,0.0,0.0,0.0,0.0,0.0,0.0,0.0,0.0,0.0,0.0,0.0,2.3547,2.5394,2.5899,2.6404,2.6244,2.5073,2.5876,2.6749,2.7479,2.8884,3.0331,3.1708,3.2397,3.3174,3.4079,3.4102,3.4233,3.4471,3.4233,3.4102,3.4102,3.3884,3.3706,3.3522,3.3522,3.3522,3.3522,3.3522,3.3821,3.4257,3.4073,3.3315,3.2282,3.2099,3.1593,3.0973,3.0973,3.1042,3.1084,0.0,0.0,0.0,0.0,0.0,1.4609,1.495,1.547,1.6599,1.8767,2.0365,2.21,2.4136,2.5764,2.6671,2.6559,2.7002,2.6972,2.6263,2.4215,2.2934,2.277,2.2628,2.3466,2.5372,2.6393,2.745,2.8522,2.8522,2.8787,2.9292,2.9316,2.9316,2.9316,2.9316,2.9414,2.9521,2.8475,2.7323,2.607,2.4636,2.3371,2.2121,0.0,0.0,0.0,0.0,0.0,0.0,0.0,0.0,0.0,0.0,0.0,0.0,0.0,0.0,0.0,0.0,0.0,0.0,0.0,0.0,0.0,0.0,0.0,0.0,0.0,0.0,0.0,0.0,0.0,0.0,0.0,0.0,0.0,2.2846,2.5394,2.7093,2.6634,2.7828,2.8149,2.6743,2.7502,2.8471,2.9458,3.0032,3.118,3.3178,3.3315,3.3622,3.4291,3.4313,3.4178,3.3936,3.4178,3.4313,3.4336,3.4651,3.4532,3.4027,3.4027,3.4027,3.4027,3.4027,3.4326,3.4785,3.4234,3.4326,3.4739,3.4188,3.3384,3.2535,3.2512,3.1997,3.1298,0.0,0.0,0.0,1.4216,1.4745,1.5113,1.5031,1.579,1.6731,1.7666,2.0184,2.2227,2.3083,2.5307,2.6822,2.7052,2.6876,2.6791,2.6972,2.4853,2.3616,2.3628,2.5296,2.6684,2.7609,2.7522,2.8017,2.9076,2.8691,2.8787,2.9316,2.9701,2.9869,2.9869,2.9869,2.9694,2.9366,2.8785,2.8368,2.7898,2.6128,2.4656,2.3396,0.0,0.0,0.0,0.0,0.0,0.0,0.0,0.0,0.0,0.0,0.0,0.0,0.0,0.0,0.0,0.0,0.0,0.0,0.0,0.0,0.0,0.0,0.0,0.0,0.0,0.0,0.0,0.0,0.0,0.0,0.0,2.2891,2.518,2.6143,2.7131,2.8042,2.8805,2.8777,2.87,2.8677,2.9228,2.9871,3.0537,3.1731,3.2574,3.2924,3.36,3.4177,3.4544,3.4491,3.4693,3.4965,3.4908,3.4887,3.4887,3.4811,3.4716,3.4578,3.4578,3.4578,3.4578,3.4295,3.4644,3.5237,3.45,3.4334,3.4432,3.377,3.3522,3.3545,3.3001,3.2524,3.2094,0.0,0.0,0.0,1.3775,1.4265,1.4664,1.4695,1.5594,1.6599,1.7576,2.0128,2.2231,2.3288,2.5473,2.6866,2.6952,2.6901,2.6776,2.659,2.5253,2.4748,2.5453,2.6977,2.8168,2.8835,2.8763,2.9003,2.9629,2.91,2.91,2.9629,2.9941,3.0206,3.0422,3.0422,3.0134,2.9605,2.9173,2.893,2.8645,2.6967,2.6156,2.5768,2.4452,2.33,2.2297,2.123,2.0711,2.0345,1.9402,0.0,0.0,0.0,0.0,0.0,0.0,0.0,0.0,0.0,0.0,0.0,0.0,0.0,0.0,0.0,0.0,0.0,0.0,0.0,0.0,0.0,0.0,0.0,0.0,2.4499,2.6834,2.8289,2.8939,2.9528,3.0216,3.0125,3.0101,3.0422,3.0698,3.1065,3.1593,3.265,3.3353,3.3407,3.4177,3.4674,3.4734,3.4756,3.4835,3.5035,3.5077,3.5084,3.5247,3.5244,3.5154,3.5106,3.5106,3.5106,3.5106,3.4872,3.5222,3.5772,3.4872,3.4637,3.4781,0.0,0.0,0.0,0.0,3.2644,3.2218,0.0,0.0,0.0,1.3053,1.3341,1.3775,1.4251,1.5104,1.6319,1.7978,2.009,2.2134,2.4038,2.5807,2.6722,2.6467,2.6886,2.6725,2.5762,2.5635,2.6183,2.7496,2.7933,2.8518,2.9309,2.9832,3.0079,3.0086,2.9646,2.967,3.0086,3.0158,3.0422,3.0922,3.0922,3.0591,3.0062,2.9532,2.9101,2.8679,2.7565,2.7686,2.8349,2.6549,2.5994,2.5946,2.3821,2.3045,2.2702,2.0653,0.0,0.0,0.0,0.0,0.0,0.0,0.0,0.0,0.0,0.0,0.0,0.0,0.0,0.0,0.0,0.0,0.0,0.0,0.0,0.0,0.0,0.0,0.0,0.0,2.57,2.7862,2.9579,3.0536,3.1111,3.1042,3.1502,3.1825,3.1894,3.1823,3.203,3.2535,3.3132,3.3691,3.4215,3.4834,0.0,0.0,0.0,3.4813,3.4534,3.4813,3.5091,3.5368,3.5643,3.5722,3.5558,3.5558,3.5611,3.5611,3.5558,3.581,3.6185,3.5214,3.5054,3.5222,3.4509,3.3479,3.2437,3.2649,3.2413,3.198,0.0,0.0,1.3458,1.4274,1.3954,1.379,1.4288,1.4813,1.5755,1.7441,1.9582,2.1538,2.3111,2.4787,2.5839,2.6003,2.6122,2.6207,2.6323,2.6966,2.7432,2.7755,2.8467,2.908,2.9553,2.9862,3.0048,3.0086,3.0174,3.0174,3.0086,3.0518,3.0783,3.0922,3.0922,3.0591,3.0062,2.9532,2.8979,2.8538,2.8282,2.8266,2.8196,2.681,2.6514,2.6739,2.6117,2.5733,2.5416,2.4804,2.3707,2.2451,2.1717,0.0,0.0,0.0,0.0,0.0,0.0,0.0,0.0,0.0,0.0,0.0,0.0,0.0,0.0,0.0,0.0,0.0,0.0,0.0,0.0,2.4958,2.6703,2.8402,2.9896,3.0973,3.1521,3.126,3.1565,3.1963,3.2305,3.2351,3.2558,3.3086,3.3981,3.437,3.3974,3.485,3.509,3.4624,3.459,3.459,3.4534,3.4813,3.5035,3.5091,3.5588,0.0,3.5759,3.6031,3.6117,3.6117,3.5868,3.5968,3.6231,3.542,3.4721,3.4192,3.3831,3.3061,3.2088,3.2126,3.1951,3.168,0.0,1.2825,1.2985,1.377,1.3528,1.3426,1.3881,1.4609,1.5578,1.6983,1.8782,2.0514,2.2029,2.3166,2.3923,2.4269,2.4481,2.512,2.6433,2.7066,2.7742,2.8561,2.9184,2.9567,2.9756,3.0131,3.0196,2.9842,3.0191,3.0295,3.0086,3.0639,3.1067,3.1308,3.1308,3.1019,3.0446,2.9917,2.9388,2.8859,2.8448,2.814,2.795,2.7697,2.7738,2.7815,2.7201,2.6761,2.6419,2.5484,2.4818,2.4186,2.3118,2.1486,1.9682,0.0,0.0,0.0,0.0,0.0,0.0,0.0,0.0,0.0,0.0,0.0,0.0,0.0,0.0,2.0931,2.1436,0.0,2.4949,2.5922,2.7575,2.9091,3.0078,3.1318,3.2073,3.1928,3.2302,3.2627,3.2856,3.3109,3.3247,3.3292,3.444,3.4827,3.4155,3.5025,3.5423,3.498,3.498,3.4869,3.4758,3.4924,3.498,3.498,3.5257,3.5533,3.5808,3.595,3.6114,3.6277,3.6114,3.6168,3.6231,3.5404,3.453,3.371,3.3623,3.299,3.2207,3.2207,3.1951,3.1651,0.0,0.0,1.2474,1.2961,1.2966,1.3053,1.3488,1.4403,1.5469,1.6633,1.7887,1.9272,2.0963,2.1459,2.1921,2.2524,2.3145,2.4368,2.6417,2.6987,2.7927,2.9408,2.9747,2.9875,2.981,3.0392,3.0319,2.9675,3.0236,3.042,3.0211,3.0646,3.1081,3.1535,3.1535,3.1202,3.067,3.0236,2.9753,2.9173,2.8402,2.7975,2.7869,2.8417,2.8578,2.8378,2.754,2.6942,2.6347,2.5239,2.495,2.4819,2.3607,2.2599,2.159,2.0213,1.9115,0.0,0.0,0.0,0.0,0.0,0.0,0.0,0.0,0.0,2.0741,2.1763,2.296,2.3889,2.398,2.5601,2.6973,2.7088,2.8586,2.9986,3.0583,3.18,3.2673,3.2764,3.3155,3.343,3.343,3.3775,3.3843,3.3453,3.4555,3.4925,3.4313,3.5151,3.5585,3.5423,3.5423,3.5312,3.5091,3.5035,3.498,3.498,3.498,3.5257,3.5753,3.5808,3.6004,3.6332,3.6223,3.6223,3.6122,3.5409,3.4527,3.3599,3.3568,3.3153,3.2503,3.2416,3.2066,3.1673,0.0,0.0,0.0,1.3177,1.3062,1.3095,1.3606,1.4147,1.505,1.6598,1.6896,1.7781,1.9925,2.0145,2.0677,2.2076,2.3475,2.4957,2.6578,2.7657,2.8722,2.969,2.9816,2.9699,2.9479,3.0209,3.0378,2.9861,3.0647,3.0877,3.0629,3.0678,3.0751,3.08,3.08,3.0506,2.9992,2.9943,2.96,2.9062,2.8488,2.8243,2.8194,2.7989,2.7705,2.7394,2.7446,2.6455,2.5241,2.5935,2.5199,2.4001,2.412,2.3877,2.3175,2.1219,0.0,1.9128,1.8293,1.8756,1.9575,2.0115,2.0927,2.1993,0.0,0.0,2.334,2.451,2.5116,2.5601,2.6076,2.7392,2.8609,2.9091,3.0101,3.118,3.2099,3.2787,3.3361,3.3775,3.3889,3.3912,3.3912,3.3981,3.3981,3.3935,3.4073,3.4194,3.4291,3.4887,3.5224,3.54,3.5423,3.5368,3.5368,3.5091,3.498,3.498,3.498,3.5146,3.5478,3.5698,3.6004,3.6277,3.6004,3.5863,3.5785,3.5245,3.4659,3.4085,3.3868,3.3474,3.2993,3.2525,3.2066,3.1629,0.0,0.0,0.0,1.2357,1.3049,1.3558,1.3291,1.4027,1.4927,1.581,1.6135,1.6767,1.8009,1.8284,1.8607,1.9126,2.1223,2.3218,2.4784,2.6773,2.8341,2.9416,2.968,2.974,2.9638,2.9966,2.9949,2.9609,3.0273,3.0465,3.0245,3.0564,3.0712,3.0712,3.0712,3.0564,3.0343,3.0024,2.9582,2.9042,2.8656,2.8026,2.7336,2.6975,2.6508,2.605,2.644,2.583,0.0,0.0,2.4575,2.4242,2.4355,2.4034,2.3442,2.2515,2.169,0.0,2.1597,0.0,0.0,0.0,2.4112,2.5432,2.533,2.5447,2.5761,2.6253,2.6927,2.7506,2.7736,2.9022,3.0216,0.0,3.1662,3.2581,3.3269,3.3568,3.3775,3.3981,3.4004,3.4004,3.4004,3.4004,3.3889,3.3614,3.4142,3.4366,3.4119,3.4872,3.5344,3.5463,3.5736,3.584,3.5643,3.5533,3.5368,3.5202,3.5202,3.5312,3.5423,3.5698,3.5895,3.6004,3.5698,3.5478,3.5312,3.5091,3.4736,3.4373,3.4284,3.3923,3.342,3.2962,3.2656,3.2459,0.0,0.0,0.0,1.2276,1.3493,1.4155,1.3106,1.4008,1.4954,1.5324,1.5482,1.5748,1.6257,1.6645,1.6961,1.7131,1.9406,2.1586,2.3299,2.5786,2.7707,2.8791,2.934,2.963,2.963,2.9742,2.9702,2.9521,2.992,3.004,2.9905,3.0276,3.0474,3.0474,3.0474,3.0474,3.0449,2.9841,2.9372,2.8991,2.8313,2.7555,2.6802,2.6064,2.5459,2.5036,2.5182,2.4646,0.0,0.0,2.3417,2.3655,2.3699,2.3609,2.3485,2.338,2.2944,2.2728,2.3731,0.0,0.0,2.5004,2.6726,2.808,2.6818,2.7231,2.7855,2.7992,2.8746,2.9389,2.9527,3.0583,3.1547,3.1915,3.2695,3.3407,3.3752,3.3912,3.4004,3.4004,3.4004,3.4004,3.4004,3.4004,3.3866,3.3499,3.405,3.428,3.4004,3.4831,3.5382,3.552,3.6002,3.6168,3.595,3.584,3.5698,3.5533,3.5423,3.5423,3.5533,3.5698,3.5753,3.5676,3.5423,3.5202,3.498,3.4869,3.4702,3.4534,3.4534,3.4316,3.3945,3.3595,3.3289,3.3124,0.0,0.0,0.0,0.0,1.4609,1.4848,1.3341,1.4067,1.5001,1.5507,1.491,1.4588,1.4996,1.5523,1.6235,1.7197,1.891,2.0807,2.2796,2.5123,2.6863,2.7787,2.874,2.9225,2.9225,2.9618,2.9804,2.9804,2.9804,2.9829,2.9829,2.9829,2.9854,2.9854,2.9854,2.9854,2.9804,2.9189,2.8938,2.8762,2.7193,2.6841,2.7118,2.5452,2.4825,2.4718,2.3875,0.0,0.0,2.175,2.1655,2.1536,2.1643,2.2524,0.0,2.3421,2.3384,2.3361,0.0,0.0,2.6559,2.7024,2.831,2.9297,2.8746,2.9022,2.9573,3.0032,3.056,3.1088,3.1641,3.2099,3.2443,3.2466,3.2925,3.3292,3.3315,3.3706,3.4004,3.4004,3.4004,3.4004,0.0,3.4004,3.4004,3.3981,3.3568,3.3522,3.3981,3.4532,3.5037,3.5497,3.6002,3.6332,3.6277,3.595,3.5808,3.5785,3.5533,3.5533,3.5808,3.5808,3.5643,3.5423,3.5146,3.498,3.498,3.4646,3.4513,3.4534,3.4534,3.4513,3.4491,3.4491,3.3879,3.3124,0.0,0.0,0.0,0.0,0.0,1.3918,1.286,1.4055,1.5095,1.5137,1.5173,0.0,0.0,0.0,0.0,0.0,1.7919,1.9684,2.151,2.3623,2.5293,2.6343,2.7601,2.8278,2.8278,2.874,2.8971,2.8886,2.8886,2.8786,2.8674,2.8674,2.8674,2.8674,2.8674,2.8674,2.8649,2.8072,2.762,2.7168,2.5887,2.5485,2.5511,2.4173,2.3446,2.2965,0.0,0.0,2.0667,2.0214,2.0173,2.0389,2.0712,2.105,2.1447,2.2187,2.3109,2.4315,0.0,0.0,2.8149,2.8999,3.0124,3.0882,3.0354,3.0629,3.1042,3.1203,3.1134,3.1157,3.1733,3.1892,3.2213,3.2902,3.343,3.3889,3.4234,3.4119,3.4004,3.4004,3.3729,0.0,0.0,0.0,0.0,3.3522,3.3384,3.3361,3.3522,3.4004,3.4509,3.5014,3.552,3.5933,3.6332,3.6168,3.6114,3.6114,3.5643,3.5478,3.5533,3.5146,3.5035,3.5091,3.4813,3.4646,3.4702,3.4813,3.4813,3.4869,3.5035,3.498,3.4813,3.4813,3.4615,3.4329,0.0,0.0,0.0,0.0,0.0,0.0,0.0,0.0,0.0,0.0,0.0,0.0,0.0,0.0,0.0,0.0,0.0,1.8462,1.996,2.1852,2.345,2.4573,2.5599,2.6315,2.6727,2.6926,2.7207,2.7561,2.7561,2.7627,2.7698,2.79,2.8001,2.8001,2.8131,2.8105,2.7904,2.7253,2.66,2.5762,2.4456,2.3929,2.3834,2.2447,2.1719,0.0,0.0,0.0,1.9079,1.8481,1.8811,1.9552,1.9746,2.0565,2.1549,2.2039,2.3534,2.544,0.0,2.8609,2.9481,3.0514,3.141,3.194,3.1387,3.1662,3.2078,3.2078,3.1341,3.095,3.1687,3.1318,3.1387,3.2764,3.343,3.3866,3.4211,3.4119,3.3866,3.3499,3.3361,3.3292,0.0,0.0,0.0,3.3292,3.3292,3.3292,3.3292,3.3752,3.4257,3.4785,3.5267,3.5749,3.6309,3.6332,3.6223,3.6114,3.5753,3.5423,3.5257,3.4869,3.4758,3.4813,3.459,3.459,3.4702,3.4924,3.5035,3.5146,3.5312,3.5312,3.5146,3.5146,3.5146,3.5091,0.0,0.0,0.0,0.0,0.0,0.0,0.0,0.0,0.0,0.0,0.0,0.0,0.0,0.0,0.0,0.0,0.0,0.0,1.8355,1.9957,2.1394,2.2538,2.2874,2.354,2.4606,2.4386,2.477,2.5895,2.5895,2.6151,2.6662,2.725,2.7531,2.7557,2.7977,2.7881,2.7348,2.6627,2.5669,2.4506,2.2849,2.2254,2.2189,2.0441,0.0,0.0,0.0,0.0,0.0,0.0,0.0,0.0,1.903,2.115,2.3584,2.3029,2.4627,2.6812,2.7893,2.9206,3.056,3.1547,3.2144,3.2351,3.1917,3.2144,3.2466,3.2374,3.1157,3.0376,0.0,0.0,3.0009,3.1938,3.2787,3.3201,3.3201,3.3591,3.3545,0.0,0.0,0.0,0.0,0.0,0.0,3.3292,3.3292,3.3292,3.3292,3.3706,3.4211,3.4785,3.5244,3.5726,3.6309,3.6332,3.6114,3.5808,3.5808,3.5478,3.498,3.498,3.4813,3.4534,3.4534,3.4702,3.498,3.5035,3.5202,3.5423,3.5423,3.5423,3.5423,3.5423,3.5423,3.5368,0.0,0.0,0.0,0.0,0.0,0.0,0.0,0.0,0.0,0.0,0.0,0.0,0.0,0.0,0.0,0.0,0.0,0.0,1.8663,1.9098,1.9767,2.0852,2.1716,2.2273,2.2563,2.293,2.3186,2.3329,2.3301,2.3264,2.3273,2.3748,2.3999,2.4024,2.4586,2.4739,2.4586,2.3938,2.3246,2.2534,0.0,2.0755,2.0704,0.0,0.0,0.0,0.0,0.0,0.0,0.0,0.0,0.0,0.0,2.2671,2.3968,2.4895,2.6355,2.7989,2.9757,3.1065,3.1961,3.2236,3.2397,3.2351,3.1917,3.2144,3.2167,3.1019,2.9596,2.8402,0.0,0.0,0.0,2.8999,3.0836,0.0,3.2121,3.2236,0.0,3.2466,0.0,3.2856,3.3247,3.3292,0.0,0.0,3.3292,3.3292,3.3292,3.3407,3.3866,3.4762,3.4923,3.5405,3.6309,3.6332,3.6004,3.5533,3.5533,3.5202,3.4646,3.4646,3.459,3.4513,3.4758,3.4924,3.5035,3.5423,3.5643,3.5753,3.595,3.5895,3.5698,3.5698,3.5698,3.5698,0.0,0.0,0.0,0.0,0.0,0.0,0.0,0.0,0.0,0.0,0.0,0.0,0.0,0.0,0.0,0.0,0.0,0.0,0.0,1.829,1.8777,1.9615,1.9886,2.0247,2.0777,2.0808,2.1002,2.1378,2.1327,0.0,2.1484,2.2028,2.2232,2.2203,2.2714,2.2814,2.2557,2.214,0.0,0.0,0.0,0.0,0.0,0.0,0.0,0.0,0.0,0.0,0.0,0.0,0.0,2.24,2.3685,2.4719,2.5628,2.6713,0.0,2.9619,3.0973,3.2076,3.2787,3.2535,3.2328,3.1963,3.0973,3.079,3.0399,2.8884,2.7185,0.0,2.5233,0.0,0.0,0.0,0.0,0.0,3.134,3.1616,3.1825,0.0,3.2213,0.0,3.2902,3.3155,3.3292,0.0,3.3292,3.3292,3.3292,3.3292,3.3752,3.4762,3.4808,3.5267,3.6309,3.6168,3.584,3.5423,3.5257,3.498,3.4534,3.4646,3.4702,3.4758,3.5035,3.5257,3.5368,3.5698,3.5895,3.6059,3.6223,3.6168,3.6004,3.6004,3.6004,3.6004,0.0,0.0,0.0,0.0,0.0,0.0,0.0,0.0,0.0,0.0,1.5572,0.0,0.0,0.0,0.0,0.0,0.0,0.0,0.0,0.0,0.0,1.8678,1.8071,1.8225,1.927,1.8655,1.8808,0.0,0.0,0.0,0.0,0.0,0.0,0.0,0.0,0.0,0.0,0.0,0.0,0.0,0.0,0.0,0.0,0.0,0.0,0.0,0.0,0.0,0.0,0.0,2.32,2.4126,2.5731,2.6956,2.7934,2.8575,2.9887,3.1226,3.18,3.2653,3.3132,3.2535,3.2078,3.1249,2.9665,2.8884,2.8012,2.6352,0.0,2.304,2.2834,2.3351,2.4269,2.5777,0.0,3.0009,3.0537,3.1111,3.1341,3.095,3.1731,3.2328,3.2466,3.2902,3.3201,3.3269,3.3292,3.3292,3.3292,3.3292,3.3752,3.4762,3.487,3.5352,3.62,3.5895,3.5643,3.5368,3.5091,3.4869,3.459,3.4869,3.5035,3.5035,3.5312,3.5588,3.5808,3.584,3.6059,3.6332,3.6332,3.6332,3.6332,3.6332,3.6332,3.6332,0.0,0.0,0.0,0.0,0.0,0.0,0.0,0.0,0.0,0.0,1.7269,1.6841,0.0,0.0,0.0,0.0,0.0,0.0,0.0,0.0,0.0,0.0,1.795,1.7943,1.816,0.0,0.0,0.0,0.0,0.0,0.0,0.0,0.0,0.0,0.0,0.0,0.0,0.0,0.0,0.0,0.0,0.0,0.0,0.0,0.0,0.0,0.0,0.0,0.0,0.0,2.4454,2.6439,2.7651,2.868,2.9602,3.0756,3.1321,3.1775,3.2764,3.3155,3.3063,3.2121,3.1525,3.0629,2.87,2.7851,0.0,0.0,2.242,2.1201,1.9907,2.081,2.2075,2.3179,0.0,0.0,0.0,0.0,3.0009,0.0,0.0,0.0,0.0,0.0,0.0,0.0,3.3292,3.3292,3.3292,3.3292,3.3752,3.4762,3.5344,3.5736,3.5895,3.5643,3.5312,3.5035,3.5035,3.498,3.4924,3.498,3.5091,3.5368,3.5643,3.5753,3.5785,3.6114,3.6277,3.6332,3.6332,3.6332,3.6332,3.6332,3.6332,3.6332,0.0,0.0,0.0,0.0,0.0,0.0,0.0,1.9236,1.9992,2.0644,2.0418,1.9624,1.8191,1.7365,1.726,0.0,0.0,0.0,0.0,0.0,0.0,0.0,0.0,0.0,0.0,0.0,0.0,0.0,0.0,0.0,0.0,0.0,0.0,0.0,0.0,0.0,0.0,0.0,0.0,0.0,0.0,0.0,0.0,0.0,0.0,0.0,0.0,0.0,0.0,0.0,2.3717,2.6443,2.833,2.9508,3.0413,3.141,3.1902,3.2282,3.3063,3.3292,3.304,3.2078,3.0996,2.955,2.6978,0.0,0.0,0.0,1.9723,1.8833,1.7565,0.0,0.0,0.0,0.0,0.0,0.0,0.0,0.0,0.0,0.0,0.0,0.0,0.0,3.2718,3.3247,3.3292,3.3292,3.3292,3.3775,3.4366,3.4941,3.5531,3.5753,3.5588,3.5312,3.5146,3.498,3.498,3.498,3.498,3.5312,3.5478,3.5643,3.595,3.6059,3.6059,3.6223,3.6332,3.6332,3.6332,3.6332,3.6332,3.6332,3.6332,3.6332,0.0,0.0,0.0,0.0,0.0,0.0,0.0,2.0644,2.1648,2.2788,2.2917,2.2077,1.9972,1.851,1.8008,0.0,0.0,0.0,0.0,0.0,0.0,0.0,0.0,0.0,0.0,0.0,0.0,0.0,0.0,0.0,0.0,0.0,0.0,0.0,0.0,0.0,0.0,0.0,0.0,0.0,0.0,0.0,0.0,0.0,0.0,0.0,0.0,0.0,0.0,0.0,2.2327,2.4866,2.7531,2.9355,3.0644,3.1316,3.2042,3.2701,3.3181,3.3201,3.2902,3.1984,3.0583,2.8605,2.5639,2.3352,0.0,0.0,1.7548,1.6857,1.6049,0.0,1.931,0.0,0.0,0.0,0.0,0.0,0.0,0.0,0.0,0.0,0.0,0.0,0.0,3.3224,3.3384,3.343,3.343,3.4303,3.4857,3.5069,3.5482,3.5588,3.5312,3.5035,3.4924,3.498,3.498,3.5035,3.5202,3.5643,3.584,3.5895,3.6168,3.6332,3.6332,3.6332,3.6332,3.6332,3.6332,3.6332,3.6332,3.6332,3.6332,3.6332,0.0,0.0,0.0,0.0,0.0,0.0,0.0,2.0519,2.225,2.298,2.2917,2.2509,2.1808,2.0917,1.9859,0.0,0.0,0.0,0.0,0.0,0.0,0.0,0.0,0.0,0.0,0.0,0.0,0.0,0.0,0.0,0.0,0.0,0.0,0.0,0.0,0.0,0.0,0.0,0.0,0.0,0.0,0.0,0.0,0.0,0.0,0.0,0.0,0.0,0.0,0.0,0.0,2.1395,2.4302,2.7496,3.0261,3.0822,0.0,0.0,3.3204,3.2925,3.242,3.1869,3.0375,2.8356,2.5784,0.0,0.0,1.8193,1.6892,1.6148,1.5936,1.644,1.7542,0.0,0.0,2.319,0.0,0.0,0.0,0.0,0.0,0.0,0.0,0.0,3.2285,3.3224,3.3683,3.3935,3.3935,3.4486,3.4857,3.5069,3.5318,3.5312,3.5035,3.4702,3.4702,3.498,3.498,3.5257,3.5753,3.5808,3.595,3.6277,3.6277,3.6332,3.6332,3.6332,3.6332,3.6332,3.6332,3.6332,3.6332,3.6332,3.6332,3.6332,0.0,0.0,0.0,0.0,0.0,0.0,1.8672,2.0011,2.1545,2.335,2.3838,2.3676,2.2605,2.2169,2.1112,1.8979,0.0,0.0,0.0,0.0,0.0,0.0,0.0,0.0,0.0,0.0,1.8147,1.8115,1.8103,0.0,0.0,0.0,0.0,0.0,0.0,0.0,0.0,0.0,0.0,0.0,0.0,0.0,0.0,0.0,0.0,0.0,0.0,0.0,0.0,0.0,0.0,0.0,2.0895,2.3345,0.0,0.0,2.9989,3.0812,3.208,3.2358,3.2085,3.1228,3.0113,2.8397,2.5218,0.0,2.0423,1.7789,1.6359,1.5591,1.5568,1.589,1.6853,1.8896,0.0,0.0,0.0,0.0,0.0,0.0,0.0,0.0,0.0,0.0,3.2167,3.3201,3.3729,3.4142,3.4463,3.4811,3.51,3.5273,3.5201,3.5035,3.4702,3.459,3.4646,3.498,3.5146,3.5423,3.5785,3.6004,3.6168,3.6332,3.6332,3.6332,3.6332,3.6332,3.6332,3.6332,3.6332,3.6332,3.6332,3.6332,3.6332,3.6332,0.0,0.0,0.0,0.0,0.0,1.6985,1.8688,1.9749,2.1162,2.3339,2.4012,2.3989,2.3219,2.2422,2.1326,1.9729,1.9446,0.0,0.0,0.0,0.0,0.0,0.0,0.0,0.0,0.0,1.8571,1.8539,1.8665,1.8686,0.0,0.0,0.0,0.0,0.0,0.0,0.0,0.0,0.0,0.0,0.0,0.0,0.0,0.0,0.0,0.0,0.0,0.0,0.0,0.0,0.0,0.0,0.0,0.0,0.0,0.0,2.8105,2.9149,3.0835,3.1507,3.1553,3.0691,2.9746,2.8197,0.0,0.0,2.0092,1.7751,1.622,1.5289,1.5244,1.5499,1.6328,1.8193,0.0,2.067,0.0,0.0,0.0,0.0,0.0,2.9754,0.0,3.2078,3.2558,3.343,3.3958,3.4463,3.4992,3.51,3.526,3.54,3.5146,3.4813,3.4534,3.4534,3.4702,3.5091,3.5312,3.5588,3.595,3.6168,3.6332,3.6332,3.6332,3.6332,3.6332,3.6332,3.6332,3.6332,3.6332,3.6332,3.6332,3.6332,3.6332,3.6332,0.0,0.0,0.0,0.0,0.0,0.0,1.8109,1.9827,2.1452,2.2743,2.2878,2.3086,2.3804,2.152,2.0209,2.093,1.9651,0.0,0.0,0.0,0.0,0.0,0.0,0.0,0.0,0.0,1.9293,1.9293,1.9758,1.997,1.997,1.9299,1.8982,1.8954,0.0,0.0,0.0,0.0,0.0,0.0,0.0,0.0,0.0,0.0,0.0,0.0,0.0,0.0,0.0,0.0,0.0,0.0,0.0,1.8809,1.9668,0.0,2.6637,2.8576,2.9785,3.054,3.0798,3.0214,2.9093,2.7577,0.0,0.0,1.9927,1.823,1.6501,1.5267,1.5131,1.5222,1.58,1.738,1.9001,0.0,0.0,0.0,0.0,0.0,0.0,3.0415,3.1972,3.282,3.3476,3.3958,3.4486,3.5014,3.5474,3.5405,3.5423,3.5423,3.5146,3.4813,3.4534,3.4534,3.4813,3.5423,3.5423,3.5676,3.6277,3.6332,3.6332,3.6332,3.6332,3.6332,3.6332,3.6332,3.6332,3.6332,3.6332,3.6332,3.6332,3.6332,3.6332,3.6332,0.0,0.0,0.0,0.0,0.0,0.0,0.0,1.7789,1.8869,2.0126,2.1034,2.1642,2.1888,2.115,2.057,2.0407,1.9508,0.0,0.0,0.0,0.0,0.0,0.0,0.0,0.0,1.9866,2.0245,2.0659,2.0398,2.0444,2.074,1.9605,1.9065,1.9017,1.7871,0.0,0.0,0.0,0.0,0.0,0.0,0.0,0.0,0.0,0.0,0.0,0.0,0.0,0.0,0.0,0.0,0.0,0.0,0.0,0.0,2.0643,2.287,2.4814,2.601,2.7105,2.7735,2.686,2.6681,2.6104,2.3637,0.0,1.9977,1.7984,1.648,1.5559,1.5537,1.5468,1.6408,1.9362,2.0423,0.0,0.0,0.0,0.0,0.0,0.0,3.1851,0.0,0.0,3.3476,3.3958,3.4486,3.5014,3.5497,3.5427,3.5423,3.5423,3.4924,3.459,3.4534,3.4534,3.4813,3.5423,3.5423,3.573,3.6332,3.6332,3.6332,3.6332,3.6332,3.6332,3.6332,3.6332,3.6332,3.6332,3.6332,3.6332,3.6332,3.6332,3.6332,3.6332,0.0,0.0,0.0,0.0,0.0,0.0,0.0,1.689,1.7609,1.8637,1.9449,2.0204,2.093,2.0309,2.0,2.0376,1.9517,0.0,0.0,0.0,0.0,0.0,0.0,0.0,1.9886,2.0246,2.0771,2.1568,2.1405,2.1471,2.169,2.0555,1.9822,1.9305,1.8255,1.7707,0.0,0.0,0.0,0.0,0.0,0.0,1.7915,0.0,0.0,0.0,0.0,0.0,0.0,0.0,0.0,0.0,0.0,0.0,0.0,0.0,1.9783,2.1458,0.0,2.5302,2.6019,2.5385,2.5349,0.0,0.0,0.0,1.9497,1.7937,1.6574,1.5626,1.5626,1.558,1.6433,1.9077,1.9975,0.0,0.0,0.0,0.0,0.0,0.0,0.0,0.0,3.2971,3.3568,3.4257,3.4601,3.5083,3.5772,3.5572,3.5423,3.5423,3.4813,3.4534,3.4534,3.4534,3.4813,3.5423,3.5423,3.573,3.6332,3.6332,3.6332,3.6332,3.6332,3.6332,0.0,3.6332,3.6332,3.6332,3.6332,3.6332,3.6332,3.6332,3.6332,3.6332,0.0,0.0,0.0,0.0,0.0,0.0,0.0,1.6897,1.741,1.7969,1.8143,1.8869,2.0611,1.917,1.8806,2.0612,0.0,0.0,0.0,0.0,0.0,0.0,0.0,0.0,2.0428,2.0512,2.1013,2.2047,2.263,2.2859,2.276,2.2031,2.1027,1.985,1.9254,1.8583,1.7922,1.7948,1.7988,1.7988,1.8143,1.8068,0.0,0.0,0.0,0.0,0.0,0.0,0.0,0.0,0.0,0.0,0.0,0.0,0.0,0.0,0.0,0.0,0.0,2.4457,2.5147,2.5182,2.4715,2.3977,0.0,0.0,0.0,1.8051,1.667,1.5583,1.5724,1.5791,1.624,1.7503,0.0,0.0,0.0,0.0,0.0,0.0,3.2342,0.0,3.2699,3.304,3.3706,3.4716,3.4808,3.5244,3.6263,3.5753,3.5423,3.5423,3.4813,3.4534,3.4534,3.4534,3.4813,3.5423,3.5423,3.573,3.6332,3.6332,3.6332,3.6332,3.6332,3.6332,3.6332,3.6332,3.6332,3.6332,3.6332,3.6332,3.6332,3.6332,3.6332,3.6332,0.0,0.0,0.0,0.0,0.0,0.0,0.0,0.0,0.0,0.0,1.7545,1.8375,1.8811,1.8805,1.895,0.0,0.0,0.0,0.0,0.0,0.0,0.0,0.0,0.0,2.1157,2.1479,2.195,2.2707,2.2846,2.3078,2.3368,2.2735,2.1801,2.0616,1.9899,1.9007,1.7968,1.7988,1.7975,1.7942,1.7963,1.769,0.0,0.0,0.0,0.0,1.6689,1.6718,0.0,0.0,0.0,0.0,0.0,0.0,0.0,0.0,1.743,1.7908,1.9732,0.0,2.1414,2.1326,2.1486,2.1475,0.0,0.0,0.0,0.0,0.0,0.0,0.0,0.0,0.0,0.0,0.0,0.0,0.0,0.0,0.0,3.2658,3.3047,3.3457,3.4188,3.366,3.3706,3.4716,3.4808,3.5244,3.6263,3.5753,3.5423,3.5423,3.4813,3.4534,3.4534,3.4534,3.4813,3.5423,3.5423,3.573,3.6332,3.6332,3.6332,3.6332,3.6332,3.6332,3.6332,3.6332,3.6332,3.6332,3.6332,3.6332,3.6332,3.6332,3.6332,3.6332,0.0,0.0,0.0,0.0,0.0,0.0,0.0,0.0,0.0,0.0,0.0,1.7447,1.8125,1.8327,0.0,0.0,0.0,0.0,0.0,0.0,0.0,0.0,0.0,2.0603,2.1153,2.1443,2.2078,2.3147,2.3197,2.3425,2.382,2.3218,2.2287,2.1082,1.9888,1.885,1.7988,1.7988,1.7968,1.7935,1.8023,0.0,0.0,0.0,0.0,0.0,1.6582,1.6592,0.0,1.7203,1.7338,1.7251,0.0,0.0,0.0,0.0,1.6974,1.7174,1.8028,1.9456,2.073,2.0807,2.1019,2.1078,2.0644,0.0,0.0,0.0,0.0,0.0,0.0,0.0,0.0,0.0,2.3332,0.0,0.0,0.0,0.0,3.3449,3.3885,3.4157,0.0,3.3614,3.3706,3.4716,3.4808,3.5244,3.6263,3.5753,3.5423,3.5423,3.4813,3.4534,3.4534,3.4534,3.4813,3.5423,3.5423,3.573,3.6332,3.6332,3.6332,3.6332,3.6332,3.6332,3.6332,3.6332,3.6332,3.6332,3.6332,3.6332,3.6332,3.6332,3.6332,3.6332,0.0,0.0,0.0,0.0,0.0,0.0,0.0,0.0,0.0,0.0,0.0,0.0,0.0,0.0,0.0,0.0,0.0,0.0,0.0,0.0,0.0,0.0,1.9989,2.0601,2.1158,2.1167,2.1872,2.3248,2.3569,2.3847,2.4096,2.3797,2.2848,2.1331,1.9668,1.8569,1.7968,1.7968,1.7968,1.7968,1.8123,0.0,0.0,0.0,0.0,0.0,0.0,0.0,0.0,1.7475,1.769,1.7558,1.7495,0.0,0.0,0.0,0.0,0.0,1.7403,1.9407,2.129,2.1289,2.1492,2.1599,2.1246,0.0,0.0,0.0,0.0,0.0,0.0,0.0,0.0,0.0,0.0,0.0,2.9014,3.2395,3.4267,3.3807,3.4407,0.0,3.3641,3.3384,3.3706,3.4716,3.4808,3.5244,3.6263,3.5753,3.5423,3.5423,3.4813,3.4534,3.4534,3.4534,3.4869,3.5423,3.5423,3.573,3.6332,3.6332,3.6332,3.6332,3.6332,3.6332,3.6332,3.6332,3.6332,3.6332,3.6332,3.6332,3.6332,3.6332,3.6332,3.6332,0.0,0.0,0.0,0.0,0.0,0.0,0.0,0.0,0.0,0.0,0.0,0.0,0.0,0.0,0.0,0.0,0.0,0.0,0.0,0.0,0.0,2.0316,2.0739,2.1435,2.2401,2.1835,2.1873,2.2643,2.3683,2.4177,2.4123,2.5159,2.4123,2.1331,2.0107,1.8962,1.7922,1.7922,1.7922,1.7922,1.7942,0.0,0.0,0.0,0.0,0.0,0.0,0.0,0.0,1.6855,1.7118,1.708,1.6888,0.0,0.0,0.0,0.0,0.0,1.8139,1.9825,2.089,1.9447,2.0364,2.1345,2.0282,0.0,0.0,0.0,0.0,0.0,0.0,2.227,2.3295,0.0,0.0,2.879,0.0,0.0,3.2632,3.3802,0.0,3.3848,3.4509,3.3798,3.3706,3.4716,3.4808,3.5244,3.6263,3.5753,3.5423,3.5423,3.4813,3.4534,3.4534,3.4758,3.5091,3.5423,3.5643,3.595,3.6332,3.6332,3.6332,3.6332,3.6332,3.6332,3.6332,3.6332,3.6332,3.6332,3.6332,3.6332,3.6332,3.6332,3.6332,3.6332,0.0,0.0,0.0,0.0,0.0,0.0,0.0,0.0,0.0,0.0,0.0,0.0,0.0,0.0,0.0,0.0,0.0,0.0,0.0,0.0,2.0953,2.1342,2.1539,2.1858,2.238,2.2183,2.2647,2.3851,2.4477,2.505,2.5532,2.5099,2.3446,2.0752,1.9962,1.8979,1.7902,1.7902,1.7902,1.7902,0.0,0.0,0.0,0.0,0.0,0.0,0.0,0.0,0.0,0.0,1.7432,1.7346,1.7241,0.0,0.0,0.0,0.0,0.0,1.7337,1.8908,2.0147,1.9327,2.1117,2.2879,0.0,0.0,0.0,0.0,0.0,0.0,0.0,0.0,2.4354,2.7019,0.0,3.0847,3.139,3.2833,3.3923,0.0,3.4305,3.4254,3.3981,3.3568,3.3591,3.4303,3.4647,3.5106,3.5818,3.5595,3.5423,3.5423,3.4813,3.4534,3.4534,3.4813,3.5146,3.5423,3.5698,3.595,3.6332,3.6332,3.6332,3.6332,3.6332,3.6332,3.6332,3.6332,3.6332,3.6332,3.6332,3.6332,3.6332,3.6332,3.6386,3.6526,0.0,0.0,0.0,0.0,0.0,0.0,0.0,0.0,0.0,0.0,0.0,0.0,0.0,0.0,0.0,0.0,0.0,0.0,0.0,2.0148,2.0738,2.1571,2.1758,2.2052,2.2481,2.2661,2.3472,2.4877,2.5261,2.5858,2.6631,2.4899,2.2803,2.0448,1.9767,1.8887,1.7862,1.7882,1.7902,1.7902,0.0,0.0,0.0,0.0,0.0,0.0,0.0,0.0,0.0,0.0,0.0,0.0,0.0,0.0,0.0,1.6848,1.66,1.6575,1.6932,1.8287,1.9675,1.9994,0.0,0.0,0.0,0.0,0.0,0.0,0.0,0.0,0.0,2.4838,0.0,2.7967,3.0271,3.1903,3.225,3.3744,3.468,3.4221,3.4472,3.4375,3.3411,3.3292,3.3476,3.3958,3.4486,3.4962,3.539,3.5427,3.5368,3.5312,3.4813,3.4534,3.4534,3.4813,3.5146,3.5423,3.5698,3.595,3.6332,3.6332,3.6332,3.6332,3.6332,3.6332,3.6332,3.6332,3.6332,3.6332,3.6332,3.6332,3.6332,3.6332,3.6495,3.6688,0.0,0.0,0.0,0.0,0.0,0.0,0.0,0.0,0.0,0.0,0.0,0.0,0.0,0.0,0.0,0.0,0.0,0.0,0.0,1.9454,1.9611,2.0131,2.0733,2.1872,2.3551,2.3524,2.387,2.4534,2.5685,2.6245,2.6298,2.5127,2.3258,2.0915,1.9932,1.8844,1.772,1.7842,1.7902,1.7902,1.7975,0.0,0.0,0.0,0.0,0.0,0.0,0.0,0.0,0.0,0.0,0.0,0.0,0.0,1.753,1.737,1.6948,1.6804,1.8164,1.9056,1.9894,2.1169,2.2007,0.0,2.4714,2.5105,0.0,2.6627,0.0,0.0,0.0,2.8807,3.0332,3.1243,3.1763,3.218,3.2448,0.0,3.286,3.3319,3.3411,3.3411,3.3292,3.3292,3.3476,3.3958,3.4486,3.4909,3.5123,3.5318,3.5312,3.5035,3.4702,3.4534,3.4534,3.4813,3.5146,3.5423,3.5698,3.595,3.6332,3.6332,3.6332,3.6332,3.6332,3.6332,3.6332,3.6332,3.6332,3.6332,3.6332,3.6332,3.6332,3.6332,3.6495,3.6766,0.0,0.0,0.0,0.0,0.0,0.0,0.0,0.0,0.0,0.0,0.0,1.7946,1.8068,0.0,0.0,0.0,0.0,0.0,0.0,1.8799,1.9159,2.0093,2.0556,2.114,2.1825,2.336,2.4824,2.6184,2.664,2.6609,2.6144,2.4633,2.2829,2.082,1.9728,1.8884,1.8257,1.7922,1.8038,1.8439,1.8079,1.7915,0.0,0.0,0.0,0.0,0.0,0.0,0.0,0.0,1.6952,1.6935,1.6903,1.6888,1.6914,1.687,1.6697,1.6604,1.7162,1.8783,2.0482,2.1343,2.2794,0.0,0.0,2.6481,2.7427,2.8937,2.8802,0.0,0.0,0.0,3.0817,3.0991,3.1785,3.2356,3.2515,3.2764,3.3063,3.3269,3.3545,3.3729,3.3729,3.4027,3.4303,3.4486,3.4969,3.523,3.5092,3.5318,3.5257,3.498,3.4646,3.4534,3.4534,3.4646,3.4924,3.5423,3.5698,3.595,3.6332,3.6332,3.6332,3.6332,3.6332,3.6332,3.6332,3.6332,3.6332,3.6332,3.6332,3.6332,3.6332,3.6332,3.6495,3.6766,0.0,0.0,0.0,0.0,0.0,0.0,0.0,0.0,1.6766,0.0,0.0,0.0,0.0,1.7875,0.0,0.0,0.0,0.0,1.8206,1.8078,1.8486,1.9489,2.009,2.0569,2.0936,2.3196,2.4998,2.6219,2.6781,2.6506,2.5432,2.3879,2.2378,2.0959,1.9666,1.9091,1.9074,1.8317,1.8293,1.8765,1.816,1.7922,0.0,0.0,0.0,0.0,0.0,0.0,0.0,0.0,1.6669,1.6653,1.6621,1.646,1.6342,1.6716,1.692,1.7027,1.7027,1.8832,2.0867,2.1512,0.0,0.0,2.6944,2.7989,2.9149,3.09,3.0779,0.0,3.0132,0.0,0.0,0.0,3.2038,3.2604,3.2925,3.3269,3.3568,3.3752,3.405,3.4257,3.4257,3.4578,3.4808,3.4808,3.5244,3.5359,3.5092,3.5373,3.5368,3.498,3.4758,3.459,3.4534,3.4534,3.4758,3.5257,3.5533,3.5895,3.6332,3.6332,3.6332,3.6332,3.6332,3.6332,3.6332,3.6332,3.6332,3.6332,3.6332,3.6332,3.6332,3.6332,3.6495,3.6766,0.0,0.0,0.0,0.0,0.0,0.0,0.0,0.0,1.7093,1.7082,1.745,0.0,0.0,0.0,0.0,0.0,0.0,0.0,1.7418,1.7261,1.746,1.8061,1.9185,2.0335,2.1433,2.3182,2.407,2.4096,2.5824,2.5772,2.4073,2.2949,2.2086,2.1433,1.983,1.9519,2.0134,1.9047,1.8692,1.8765,1.8221,1.7955,1.7902,0.0,0.0,0.0,0.0,0.0,0.0,0.0,1.6203,1.6261,1.6658,1.6328,1.6043,1.7153,1.7844,1.8204,1.8204,1.9434,2.0966,0.0,0.0,0.0,2.8631,2.9707,3.0737,3.2803,3.2876,3.2539,3.2515,3.2081,0.0,3.3123,3.2853,3.2856,3.3866,3.4004,3.4211,3.4739,3.4808,3.4808,3.4808,3.4808,3.4808,3.4808,3.5244,3.5359,3.5092,3.5514,3.5588,3.5035,3.498,3.4813,3.4513,3.4513,3.4702,3.498,3.5257,3.5676,3.6332,3.6332,3.6332,3.6332,3.6332,3.6332,3.6332,3.6332,3.6332,3.6332,3.6332,3.6332,3.6332,3.6332,3.6495,3.6742,0.0,0.0,0.0,0.0,0.0,0.0,0.0,0.0,1.6881,1.733,1.7484,0.0,0.0,0.0,0.0,0.0,0.0,0.0,1.7287,1.7115,1.7172,1.746,1.8516,1.9043,1.8965,2.1069,2.2968,2.473,2.5254,2.4835,2.3443,2.2714,2.1878,2.0909,2.0462,2.0167,1.9969,1.8826,1.8888,1.9691,1.8698,1.8338,1.8347,0.0,0.0,0.0,0.0,0.0,0.0,0.0,0.0,0.0,1.6094,1.6646,1.7109,1.6972,1.7888,1.8776,1.7899,1.9962,0.0,2.271,0.0,0.0,0.0,3.1264,0.0,0.0,3.4965,3.4775,3.4046,3.3933,0.0,3.336,3.3604,3.3862,3.3958,3.4326,3.4624,3.4785,3.5106,3.5313,3.5313,3.5634,3.5841,3.5841,3.5956,3.5939,3.5636,3.5717,3.5643,3.5312,3.5257,3.5257,3.5146,3.5146,3.5257,3.5588,3.5478,3.5588,3.595,3.6168,3.6332,3.6332,3.6332,3.6332,3.6332,3.6332,3.6332,3.6332,3.6332,3.6332,3.6332,3.6332,3.6332,3.6495,0.0,0.0,0.0,0.0,0.0,0.0,1.7029,1.6983,1.7029,1.7421,1.7365,1.7303,0.0,0.0,0.0,0.0,0.0,0.0,1.7073,1.6989,1.7093,1.7389,1.8251,1.8748,1.8851,2.063,2.2077,2.3121,2.3621,2.3284,2.2136,2.2268,2.1955,2.138,2.1538,2.1224,2.0537,1.9543,1.9532,2.004,1.9177,1.8869,1.8811,0.0,0.0,0.0,0.0,0.0,0.0,0.0,0.0,0.0,1.544,1.5852,1.6437,1.6935,1.8088,1.9206,1.9309,2.1368,0.0,2.4525,2.7012,2.9899,3.2449,0.0,0.0,0.0,0.0,3.6113,3.5503,3.5332,0.0,3.4327,3.452,3.468,3.463,3.4877,3.5152,3.5359,3.5634,3.5818,3.5818,3.6094,3.6332,3.6332,3.6332,3.6223,3.6004,3.6004,3.584,3.5588,3.5588,3.5533,3.5423,3.5423,3.5478,3.5643,3.5588,3.5643,3.5808,3.5895,3.595,3.595,3.595,3.6004,3.6114,3.6004,3.6059,3.6277,3.6168,3.6168,3.6332,3.6332,3.6386,3.6526,0.0,0.0,1.5851,1.5779,0.0,0.0,1.7488,1.7412,1.735,1.735,1.7162,1.6968,0.0,0.0,0.0,1.691,1.6888,1.6888,1.6888,1.6888,1.7098,1.7661,1.8277,1.9172,2.0348,2.1244,2.1218,2.022,2.1559,2.1639,2.0577,2.1717,2.229,2.2373,2.2808,2.2393,2.1355,2.0678,2.0229,1.9869,1.9569,1.9351,1.9155,1.873,0.0,0.0,0.0,0.0,0.0,0.0,0.0,0.0,1.4838,1.459,1.4889,1.6888,1.8266,1.956,2.1543,0.0,0.0,2.6816,2.8373,0.0,3.463,3.5868,3.6327,3.7221,0.0,3.6677,3.677,3.6301,3.5805,3.5553,3.5385,3.5358,3.5504,3.5566,3.5749,3.6208,3.6332,3.6332,3.6332,3.6332,3.6332,3.6332,3.6332,3.6332,3.6332,3.6332,3.6168,3.5863,3.584,3.5753,3.5478,3.5478,3.5478,3.5478,3.5698,3.5808,3.5808,3.5533,3.5423,3.5423,3.5423,3.5533,3.5753,3.5533,3.573,3.6223,3.595,3.6004,3.6332,3.6332,3.6495,3.6766,0.0,0.0,1.6107,1.5578,0.0,0.0,1.7261,1.7157,1.7099,1.7099,1.6994,1.6931,1.6931,1.691,0.0,1.691,1.6803,1.674,1.674,1.6629,1.6881,1.7502,1.8423,1.956,2.0982,2.0009,1.9533,1.9577,2.1264,2.1685,2.1016,2.2146,2.2429,2.2018,2.2583,2.2023,2.0577,1.9542,1.9118,1.9127,1.9042,1.8794,1.8416,1.8305,1.7856,0.0,0.0,0.0,0.0,0.0,0.0,0.0,1.5204,1.5529,1.5802,1.5814,1.7808,2.0093,2.0421,2.2593,0.0,0.0,3.0407,3.342,3.568,3.6561,3.7114,3.7716,3.7917,3.7691,3.6677,3.7068,3.7008,3.525,3.5634,3.5987,3.555,3.5864,3.614,3.6309,3.6332,3.6332,3.6332,3.6332,3.6332,3.6332,3.6332,3.6332,3.6332,3.6332,3.6277,3.6223,3.6168,3.6168,3.6114,3.6114,3.6114,3.6114,3.5895,3.5808,3.5808,3.573,3.5588,3.5423,3.5423,3.5423,3.5478,3.5643,3.5808,3.5895,3.6114,3.6223,3.6332,3.6332,3.6495,3.6766,0.0,0.0,0.0,0.0,0.0,0.0,0.0,0.0,1.6931,1.6867,1.6825,1.6782,1.6714,1.6714,0.0,0.0,1.6633,1.6568,1.6568,1.6414,1.6744,1.761,1.8635,1.9304,1.9574,1.9006,1.8659,1.8633,1.9809,2.042,2.0498,2.2031,2.2725,2.2754,2.3233,2.2419,2.0604,1.9757,1.9315,1.9175,1.9051,1.8989,1.891,1.8425,1.7713,1.6862,1.6566,0.0,0.0,0.0,0.0,0.0,0.0,0.0,1.5046,1.555,1.7265,1.9374,0.0,0.0,0.0,2.8888,0.0,0.0,3.6028,3.6631,3.6983,3.7487,3.7941,3.7917,3.6799,3.7167,3.7207,3.5821,3.6038,3.6273,3.5949,3.6094,3.6332,3.6332,3.6332,3.6332,3.6332,3.6332,3.6332,3.6332,3.6332,3.6332,3.6332,3.6332,3.6332,3.6332,3.6332,3.6332,3.6332,3.6332,3.6332,3.6332,3.6114,3.595,3.5808,3.5698,3.5533,3.5423,3.5423,3.5478,3.5588,3.5588,3.5785,3.6059,3.6059,3.6168,3.6332,3.6332,3.6549,3.6904,0.0,0.0,0.0,0.0,0.0,0.0,0.0,0.0,0.0,1.6675,1.6755,1.669,1.6482,1.651,1.6535,0.0,0.0,0.0,1.6371,1.6438,1.6939,1.7995,1.8804,1.8902,1.8167,1.8216,1.8167,1.802,1.8191,1.9005,2.0405,2.1927,2.298,2.3633,2.3867,2.2778,2.0702,2.0118,1.9579,1.9059,1.8947,1.9094,1.9237,1.8324,1.7329,1.6362,1.6153,1.5859,1.55,1.55,0.0,0.0,0.0,0.0,1.3865,1.5247,1.6494,1.8045,0.0,0.0,0.0,0.0,0.0,0.0,3.6053,3.6405,3.6483,3.6912,3.7487,3.7592,3.6748,3.6945,3.6988,3.6322,3.6326,3.6373,3.6256,3.6263,3.6332,3.6332,3.6332,3.6332,3.6332,3.6332,3.6332,3.6332,3.6332,3.6332,3.6332,3.6332,3.6332,3.6332,3.6332,3.6332,3.6332,3.6185,3.614,3.614,3.614,3.6031,3.5727,3.5598,3.5533,3.5423,3.5423,3.5533,3.5753,3.5533,3.573,3.6168,3.595,3.6059,3.6332,3.6332,3.6712,3.7143,0.0,0.0,0.0,0.0,0.0,0.0,0.0,0.0,0.0,0.0,1.6885,1.6921,1.6315,1.6663,1.6737,1.6268,1.6244,1.6244,1.6244,0.0,0.0,1.8967,1.8701,1.8844,1.9537,1.7798,1.7533,1.8835,1.763,1.8995,2.2756,2.272,2.3046,2.3667,2.3243,2.1963,2.0067,1.9076,1.8124,1.7377,1.7878,1.7839,1.7486,1.6879,1.6539,1.6258,1.5231,1.5108,1.55,1.5424,1.5045,0.0,0.0,0.0,1.365,1.3882,1.5041,1.6602,0.0,0.0,0.0,0.0,0.0,0.0,0.0,0.0,3.6335,0.0,3.6766,3.7016,3.5964,3.6554,3.6795,3.553,3.5958,3.6309,3.5985,3.6141,3.6332,3.6332,3.6332,3.6332,3.6332,3.6332,3.6332,3.6332,3.6332,3.6332,3.6332,3.6332,3.6332,3.6332,3.6332,3.6332,3.6332,3.5841,3.5611,3.5611,3.5611,3.5558,3.5527,3.5962,3.5895,3.5423,3.5423,3.5423,3.5478,3.5698,3.5785,3.5895,3.6114,3.6277,3.6332,3.6526,3.6874,3.7143,0.0,0.0,0.0,0.0,0.0,0.0,0.0,0.0,0.0,0.0,0.0,1.7304,1.6716,1.6864,1.679,1.6249,1.6132,1.6044,1.5981,1.6684,1.7315,1.7726,1.7798,1.7894,1.8013,1.6787,1.6643,1.7676,1.6713,1.8426,2.266,2.2795,2.3904,2.5733,2.4255,2.2669,2.0982,1.9032,1.7888,1.7324,1.6978,1.7889,1.9222,1.6772,1.6656,1.7512,1.5369,1.4523,1.447,1.479,1.4505,1.4107,1.4391,0.0,0.0,0.0,1.4338,0.0,1.9357,0.0,0.0,0.0,0.0,0.0,0.0,0.0,3.5959,3.6166,3.6511,3.6468,3.5573,3.5868,3.6039,3.5294,3.5497,3.5718,3.5765,3.6074,3.6347,3.6347,3.6347,3.6347,3.6347,3.6091,3.5928,3.5928,3.6184,3.6347,3.6347,3.6603,3.6742,3.6742,3.6742,3.6626,3.6347,3.6114,3.5881,3.5579,3.5579,3.5742,3.6021,3.6254,3.6187,3.5895,3.5895,3.5895,3.5895,3.6004,3.6059,3.6114,3.644,3.6526,3.6549,3.682,3.7143,3.7411,0.0,0.0,0.0,0.0,0.0,0.0,0.0,0.0,0.0,0.0,0.0,0.0,1.6773,0.0,0.0,0.0,1.6001,1.5939,1.6018,1.6379,1.6667,1.6811,1.7051,1.7003,1.6619,1.5924,1.5852,1.6403,1.6018,1.8132,2.2606,2.3135,2.5126,2.8187,2.5784,2.3756,2.1992,1.9654,1.8556,1.827,1.7368,1.8603,2.0733,1.8203,1.8303,1.9486,1.6627,1.5186,1.4585,1.4511,1.4072,1.3675,1.4098,1.3709,0.0,0.0,0.0,0.0,0.0,0.0,0.0,0.0,0.0,0.0,0.0,0.0,3.5282,0.0,3.6157,3.6018,3.55,3.5524,3.5502,3.5254,3.5272,3.536,3.5561,3.6095,3.6444,3.6391,3.6391,3.6391,3.6391,3.5921,3.5686,3.5803,3.6062,3.632,3.6579,3.6814,3.7002,3.7066,3.7089,3.6885,3.6391,3.6132,3.5733,3.5239,3.5357,3.5686,3.6203,3.6344,3.646,3.6495,3.6495,3.6495,3.6495,3.6495,3.6495,3.6526,3.6688,3.6796,3.6874,3.7143,3.7382,3.7596,0.0,0.0,0.0,0.0,0.0,0.0,0.0,0.0,0.0,0.0,0.0,0.0,1.5993,1.6329,1.6402,1.585,1.5802,1.6018,1.6523,1.6595,1.6835,1.7339,1.6907,0.0,1.6595,1.5564,1.5301,1.5828,1.5804,1.8542,2.3722,2.4194,2.6671,3.0585,2.7545,2.4828,2.2463,2.093,2.0298,2.033,1.9938,1.9991,2.0399,2.1725,2.2283,2.2056,1.9373,0.0,0.0,0.0,0.0,0.0,0.0,0.0,0.0,0.0,0.0,0.0,0.0,0.0,0.0,0.0,0.0,0.0,0.0,0.0,3.4299,3.5332,3.5533,3.5615,3.5904,3.5764,3.5524,3.526,3.5403,3.5567,3.5615,3.6248,3.663,3.6391,3.6391,3.6391,3.6391,3.5921,3.5827,3.632,3.5921,3.6033,3.6996,3.6673,3.665,3.7066,3.7089,3.6885,3.6391,3.5404,3.4651,3.4158,3.4628,3.5121,3.5639,3.6156,3.662,3.7089,3.7089,3.7089,3.7089,3.7089,3.7089,3.7089,3.7066,3.7089,3.7143,3.7435,3.7596,3.7649,0.0,0.0,0.0,0.0,0.0,0.0,0.0,0.0,0.0,0.0,0.0,0.0,0.0,1.6527,1.6218,1.5785,1.5782,1.5876,1.6068,1.609,1.6164,1.6379,1.6211,1.609,1.609,1.4973,1.469,1.5236,1.4881,1.6764,2.0672,2.2262,2.4025,2.5865,2.6058,2.5538,2.4268,2.1389,2.0256,2.0422,2.0305,2.1501,2.3196,2.1919,2.2865,2.4433,2.1215,0.0,0.0,0.0,0.0,0.0,0.0,0.0,0.0,0.0,0.0,0.0,0.0,0.0,0.0,0.0,0.0,0.0,0.0,3.2215,3.3696,3.4801,3.5257,3.559,3.5951,3.5908,3.5764,3.5524,3.5526,3.5551,3.5356,3.5887,3.6144,3.5941,3.589,3.589,3.589,3.5413,3.5199,3.5365,3.5532,3.5771,3.6129,3.6319,3.6629,3.7154,3.6844,3.6415,3.589,3.5175,3.4722,3.4555,3.4722,3.5079,3.5604,3.6357,3.6833,3.7178,3.7724,3.7601,3.7089,3.7089,3.7089,3.7143,3.7358,3.7518,3.7708,3.7838,3.7945,3.8104,0.0,0.0,0.0,1.7339,0.0,1.6835,1.6812,1.6956,1.7123,1.7242,0.0,0.0,0.0,0.0,1.6338,1.5912,1.5766,1.5714,1.576,1.5782,1.5782,1.5804,1.5804,1.5804,1.5804,1.4878,1.4571,1.4928,1.4761,1.612,1.8994,2.0966,2.2486,2.3544,2.441,2.5022,2.5261,2.2761,2.1761,2.1849,2.206,2.324,2.4829,2.4299,2.5297,2.6688,2.4075,0.0,0.0,0.0,0.0,0.0,0.0,0.0,0.0,0.0,0.0,0.0,0.0,0.0,0.0,0.0,0.0,0.0,2.8811,0.0,3.1888,3.3545,3.4324,3.4911,3.5697,3.5824,3.5779,3.574,3.5668,3.5572,3.5476,3.5795,3.5915,3.5766,3.5667,3.5617,3.5617,3.5087,3.4847,3.5039,3.5256,3.5497,3.5857,3.605,3.6386,3.6916,3.6411,3.5978,3.5617,3.5039,3.4775,3.4775,3.4775,3.5208,3.5881,3.6495,3.7052,3.7469,3.8146,3.8027,3.7388,3.7388,3.7388,3.7388,3.7625,3.7892,3.8133,3.8027,3.8185,3.8368,1.7291,1.7411,1.7435,1.7435,1.7459,1.741,1.724,1.7667,1.7759,1.7114,0.0,0.0,0.0,0.0,0.0,1.6291,1.5821,1.5583,1.5717,1.5693,1.5738,1.5804,1.5804,1.5804,1.5804,1.5277,1.5013,1.5013,1.5516,1.6859,1.8927,2.0562,2.239,2.429,2.2847,2.3304,2.5155,2.4944,2.4798,2.4759,2.5319,2.5178,2.5095,2.905,2.9866,2.885,2.7904,2.6795,0.0,2.2795,0.0,0.0,0.0,0.0,0.0,0.0,0.0,0.0,0.0,0.0,0.0,0.0,0.0,0.0,2.7794,0.0,2.875,3.1537,3.2566,3.3495,3.5132,3.5483,3.559,3.5951,3.5764,3.5716,3.5955,3.5966,3.5989,3.594,3.5742,3.5569,3.5593,3.5112,3.4967,3.5545,3.5063,3.5231,3.6314,3.5881,3.5833,3.6338,3.5881,3.5617,3.5593,3.5039,3.4775,3.4775,3.4775,3.5376,3.6386,3.6715,3.7245,3.8003,3.8291,3.8262,3.7974,3.7974,3.7974,3.7974,3.7974,3.8133,3.8368,3.808,3.8185,3.8368,1.7146,1.7759,1.8227,1.8256,1.8561,1.8534,1.7753,1.7702,1.7723,0.0,0.0,0.0,1.7454,1.7431,1.7385,1.7219,1.6829,1.6432,1.6079,1.5725,1.5603,1.5715,1.5738,1.576,1.5804,1.5234,1.4928,1.4928,1.5071,1.5666,1.6669,1.8324,1.96,2.0562,2.1813,2.2387,2.2414,2.1566,2.2907,2.5512,2.4904,2.6124,2.8399,2.9113,2.9955,3.0608,2.9969,2.9328,2.8596,0.0,2.5496,2.3007,0.0,0.0,0.0,0.0,0.0,0.0,1.4778,0.0,0.0,0.0,0.0,0.0,2.2463,2.3784,2.5502,2.9063,3.0306,3.1461,3.3897,3.4956,3.5558,3.5615,3.5802,3.586,3.5716,3.5695,3.5551,3.5186,3.4921,3.4824,3.5016,3.451,3.4414,3.4967,3.4847,3.4895,3.5256,3.5497,3.5497,3.528,3.5497,3.5425,3.504,3.4847,3.4775,3.4775,3.4775,3.5184,3.5857,3.6746,3.7232,3.7473,3.8303,3.8421,3.7974,3.7974,3.7974,3.7974,3.7974,3.8133,3.8368,3.808,3.8185,3.8368,1.7686,1.8363,1.8873,1.8901,1.946,1.9708,1.9048,1.8764,1.869,0.0,0.0,0.0,1.8432,1.864,1.8501,1.7878,1.7215,1.6638,1.6197,1.5706,1.5563,1.5889,1.5889,1.603,1.6289,1.6005,1.5766,1.5528,1.5572,1.5642,1.5784,1.6955,1.77,1.8061,1.9392,2.0141,2.0322,1.9239,2.1214,2.5066,2.5728,2.7124,2.8923,2.9849,3.0678,3.1411,3.1587,0.0,3.1155,3.0324,2.786,0.0,0.0,0.0,0.0,0.0,0.0,0.0,0.0,0.0,0.0,0.0,0.0,0.0,2.1557,2.248,2.3797,2.7494,2.8875,3.0131,3.2441,3.3771,3.46,3.4781,3.5098,3.5335,3.5536,3.5473,3.5282,3.4871,3.4654,3.4631,3.4799,3.451,3.4438,3.4751,3.4775,3.4775,3.4775,3.5112,3.5136,3.4799,3.5087,3.5136,3.4775,3.4775,3.4775,3.4775,3.4775,3.5232,3.5954,3.6871,3.726,3.728,3.8334,3.8404,3.7661,3.7878,3.7974,3.7974,3.7974,3.8133,3.8368,3.808,3.8185,3.8368,0.0,1.894,1.9357,1.9357,2.0217,2.088,2.0765,2.0347,2.0195,0.0,1.9884,1.9539,2.0136,2.0412,2.0037,1.873,1.7538,1.6742,1.6427,1.5753,1.5614,1.615,1.6174,1.6432,1.6901,1.707,1.693,1.6361,1.6502,1.6308,1.5804,1.626,1.6523,1.6523,1.6594,1.7436,1.8782,1.8133,2.0181,2.4044,2.6785,2.7913,2.8234,3.0951,3.1838,3.1847,3.285,3.3294,3.3169,3.1989,2.8925,0.0,0.0,0.0,0.0,0.0,1.8556,0.0,0.0,0.0,0.0,0.0,1.9121,0.0,2.2683,2.269,2.2849,2.5988,2.7419,2.8649,3.0407,3.1763,3.2742,3.3093,3.3651,3.4359,3.5261,3.5223,3.5014,3.4738,3.4653,3.4631,3.4655,3.4607,3.4558,3.4655,3.4607,3.4679,3.4679,3.4631,3.4655,3.4775,3.4727,3.4727,3.4775,3.4775,3.4775,3.4775,3.4775,3.5352,3.6314,3.6869,3.7112,3.7184,3.8209,3.8108,3.7228,3.7757,3.7974,3.7974,3.7974,3.8133,3.8315,3.808,3.8133,3.8315,1.7781,1.8788,1.9627,1.9627,2.0772,2.1661,2.1661,2.1256,2.1256,2.2144,2.2065,2.2328,2.3213,2.2317,2.1675,0.0,1.9746,1.8414,1.8377,1.674,1.5891,1.6103,1.6126,1.6196,1.6338,1.6808,1.6761,1.6244,1.6385,1.6193,1.5715,1.5878,0.0,1.5994,1.6517,1.7122,1.7845,1.9903,2.1958,2.389,2.5036,2.7604,3.0876,3.1835,3.2846,3.3787,3.401,3.4495,3.4781,3.3269,3.1407,2.9088,0.0,0.0,0.0,2.1466,0.0,0.0,0.0,0.0,0.0,0.0,0.0,0.0,1.9056,1.9208,2.0211,2.2221,2.2799,2.3728,2.6264,2.8373,2.9478,2.8699,3.0869,3.3089,3.4334,3.4495,3.4407,3.417,3.3784,3.3622,3.3805,3.3281,3.314,3.3549,3.3597,3.3765,3.4126,3.3813,3.3958,3.4751,3.4366,3.4342,3.4823,3.4775,3.4775,3.4775,3.4775,3.516,3.5761,3.611,3.6351,3.6579,3.7494,3.7612,3.7228,3.7757,3.7974,3.7974,3.7974,3.8027,3.808,3.8027,3.8027,3.808,1.822,1.9229,2.0136,2.0419,2.1468,2.2478,2.2983,2.2639,2.2754,2.4016,2.4407,2.4476,2.4223,0.0,0.0,0.0,0.0,0.0,0.0,1.708,1.628,1.6353,1.6353,1.6493,1.6797,1.7385,1.7293,1.6499,1.6716,1.6432,1.5693,1.5782,0.0,0.0,1.6785,1.7557,1.9047,1.9924,2.1517,2.3625,2.6202,2.8973,3.173,3.2901,3.3995,3.4898,3.4898,3.5165,3.5207,3.3294,3.1779,0.0,2.7496,2.6645,2.6215,0.0,2.4146,2.4558,0.0,0.0,0.0,2.1451,0.0,0.0,0.0,1.961,2.0037,2.2272,2.2297,2.2648,2.5134,2.6289,2.6967,2.7243,2.89,3.0518,3.1456,3.2717,3.3355,3.2995,3.3059,3.3195,3.3329,3.3196,3.3134,3.326,3.3284,3.3404,3.3645,3.3669,3.3909,3.4366,3.439,3.451,3.4775,3.4775,3.4775,3.4775,3.4775,3.5161,3.5815,3.5988,3.6084,3.6251,3.6935,3.7052,3.6843,3.7372,3.7733,3.7974,3.7974,3.7974,3.7974,3.7838,3.7892,3.7974,1.8925,1.9739,2.0549,2.0963,2.195,2.2983,2.3902,2.3682,2.3957,2.5509,2.6404,2.6513,0.0,0.0,0.0,0.0,0.0,0.0,0.0,1.802,1.7149,1.7034,1.6759,1.6853,1.7384,1.7835,1.756,1.6632,1.6878,1.6551,1.5671,0.0,0.0,0.0,0.0,0.0,0.0,0.0,0.0,2.4396,2.8208,3.0171,3.1104,3.3291,3.4487,3.5115,3.5533,3.5734,3.5483,3.3294,3.2039,3.1009,2.8798,2.8483,0.0,0.0,0.0,0.0,0.0,0.0,0.0,0.0,0.0,2.1923,0.0,0.0,0.0,2.2623,0.0,0.0,0.0,0.0,0.0,2.5845,0.0,0.0,0.0,2.9735,0.0,3.1299,3.2154,3.2695,3.2695,3.2739,3.2783,3.294,3.2629,3.2632,3.3208,3.3428,3.367,3.3982,3.4318,3.4583,3.4775,3.4775,3.4775,3.4775,3.4775,3.521,3.5915,3.5891,3.5891,3.5939,3.6375,3.6517,3.6435,3.6964,3.7517,3.7974,3.7974,3.7974,3.7892,3.7732,3.7785,3.7892,1.9206,1.9931,2.0373,2.0318,2.1655,2.2868,2.3407,0.0,2.3957,2.5509,0.0,0.0,2.8861,2.8149,0.0,0.0,0.0,2.3879,2.4131,2.1123,1.9126,1.8667,1.7335,1.6853,1.7384,1.7016,1.6531,1.598,1.6196,1.6033,0.0,0.0,0.0,0.0,1.7869,0.0,0.0,0.0,2.4169,2.7969,2.9213,2.9052,2.8481,3.1734,3.3195,3.3711,3.559,3.6584,3.6659,0.0,3.3947,3.3796,0.0,3.0934,3.1411,2.9767,0.0,0.0,0.0,0.0,0.0,0.0,2.5586,0.0,0.0,0.0,2.0966,1.981,0.0,0.0,0.0,0.0,0.0,0.0,0.0,0.0,2.3898,2.4868,2.6571,2.895,3.0468,3.1315,3.1315,3.0294,3.0204,3.1583,3.0153,3.0271,3.2713,3.2288,3.2587,3.3958,3.3669,3.3909,3.4775,3.4775,3.4775,3.4775,3.4775,3.5112,3.5643,3.5185,3.5233,3.5667,3.5739,3.5978,3.6435,3.6964,3.7517,3.7974,3.7974,3.7838,3.7649,3.7892,3.7838,3.7702,1.8825,1.9335,1.9765,2.0028,2.0969,2.2023,2.3119,0.0,0.0,0.0,0.0,0.0,2.9894,2.9297,2.9114,0.0,2.7966,2.6267,2.5004,2.2972,0.0,2.0281,1.8759,1.8047,1.8281,1.7473,1.683,1.63,1.6242,1.5963,0.0,0.0,0.0,0.0,1.9654,0.0,2.4121,0.0,2.493,0.0,0.0,2.8192,2.8201,3.2723,3.4588,3.4991,3.6198,3.6889,3.6935,3.5378,3.4756,0.0,0.0,0.0,0.0,3.1386,0.0,0.0,0.0,0.0,0.0,0.0,0.0,0.0,2.1666,0.0,2.0489,0.0,0.0,0.0,0.0,0.0,0.0,0.0,2.2322,0.0,0.0,0.0,2.4725,2.7193,2.7473,2.8038,2.9518,2.8856,2.9086,3.0883,2.9144,2.9099,3.1714,3.1889,3.2409,3.3573,3.3693,3.4078,3.4775,3.4775,3.4775,3.4775,3.5136,3.545,3.5815,3.545,3.545,3.5815,3.5667,3.5905,3.6435,3.6964,3.7517,3.7974,3.7974,3.7945,3.7785,3.7572,3.7625,3.7838,1.8153,0.0,0.0,1.9619,2.0326,2.1471,2.3309,2.6148,2.8107,2.8379,2.9596,3.0652,3.118,3.095,3.095,0.0,3.0583,2.9068,2.6932,2.521,2.3649,2.2282,2.0343,1.931,1.931,1.8074,1.7085,1.6466,1.6149,1.5915,0.0,0.0,0.0,0.0,0.0,2.3236,2.6093,0.0,2.6545,2.7584,2.8619,2.946,3.0465,3.3942,3.5816,3.6601,3.6898,3.7268,3.734,3.616,3.5604,3.5278,3.4575,3.3796,3.3075,0.0,0.0,0.0,3.0658,0.0,0.0,0.0,0.0,0.0,0.0,0.0,0.0,0.0,0.0,0.0,0.0,0.0,0.0,0.0,0.0,2.1669,0.0,2.1823,0.0,0.0,0.0,2.5995,2.7852,2.7243,2.7692,3.0013,2.8111,2.8169,3.1223,3.1674,3.2317,3.325,3.376,3.422,3.4703,3.4848,3.4872,3.4775,3.5208,3.5572,3.5865,3.5522,3.5572,3.5865,3.5667,3.5905,3.6435,3.6964,3.7517,3.7974,3.7945,3.7945,3.7921,3.7495,3.7495,3.7761,1.7328,1.8356,0.0,0.0,1.9937,2.1587,2.4263,2.5597,2.7026,2.9162,3.0354,3.1731,3.366,3.3866,3.4647,3.6567,3.4555,3.2673,3.1664,2.833,2.5938,2.4843,2.195,2.0366,2.0366,1.8391,1.6975,1.6126,1.5728,0.0,0.0,0.0,0.0,0.0,2.1765,2.4097,2.619,2.7753,3.0206,3.2996,3.2539,3.3861,3.5978,3.4896,3.5893,3.7882,3.7642,3.7891,3.8165,3.6814,3.6709,3.691,3.5784,3.5433,3.5382,0.0,0.0,0.0,3.3897,3.3746,3.2717,2.8348,2.6876,2.5569,0.0,0.0,2.2719,0.0,0.0,0.0,0.0,0.0,0.0,0.0,0.0,0.0,0.0,0.0,0.0,0.0,0.0,0.0,2.6575,2.5084,2.5452,2.8712,2.6756,2.7295,3.1638,3.1649,3.2037,3.3142,3.3707,3.4154,3.4386,3.492,3.5066,3.4775,3.4799,3.5112,3.5593,3.5088,3.5136,3.5617,3.5617,3.5905,3.6435,3.6964,3.7517,3.7974,3.7702,3.7785,3.7974,3.7974,3.7601,3.7227,1.7824,0.0,0.0,0.0,1.8784,2.066,2.3936,2.6134,2.8202,3.0466,3.1629,3.3119,3.529,3.5497,3.591,3.6888,3.6254,3.506,3.3361,3.1227,2.9504,2.8471,2.5187,2.3397,0.0,0.0,0.0,0.0,0.0,0.0,0.0,0.0,0.0,0.0,0.0,2.5254,0.0,0.0,0.0,0.0,0.0,3.4316,3.661,3.5954,3.6351,3.7209,3.7506,3.7959,3.8388,3.8315,3.8041,3.7739,3.7739,3.6734,3.5583,3.5981,3.5429,3.4675,3.45,3.4449,3.3646,3.0306,2.8247,2.6373,2.3728,2.3452,0.0,0.0,0.0,0.0,0.0,0.0,0.0,0.0,0.0,0.0,0.0,0.0,0.0,0.0,0.0,0.0,0.0,0.0,2.4165,2.6288,2.5283,2.6107,2.9665,3.0423,3.1241,3.218,3.3077,3.3712,3.4125,3.4655,3.4872,3.4799,3.5545,3.5785,3.5617,3.5785,3.5785,3.5617,3.5617,3.5905,3.6435,3.6964,3.7517,3.7974,3.7892,3.7785,3.7732,3.7732,3.7732,3.7708,1.837,1.8632,1.8763,1.8152,1.9368,2.1395,2.4292,2.6984,2.9417,3.1472,3.2864,3.4448,3.6457,3.675,3.7081,3.7793,3.7678,3.6645,3.444,3.3384,3.2144,3.056,2.8126,2.6634,0.0,0.0,0.0,0.0,0.0,1.874,0.0,0.0,0.0,0.0,0.0,2.578,2.8338,3.0372,3.1666,0.0,0.0,3.5559,0.0,3.7056,3.7067,3.727,3.7737,3.8093,3.8452,3.8978,3.8734,3.8365,3.8739,3.7642,3.6318,3.6716,3.6088,3.5253,3.5031,3.4981,3.4354,3.1813,2.9955,2.8122,2.5711,2.5485,2.5402,0.0,0.0,0.0,0.0,0.0,0.0,0.0,0.0,0.0,0.0,1.8454,0.0,0.0,0.0,0.0,0.0,0.0,0.0,0.0,0.0,0.0,0.0,2.9691,3.0681,3.1622,3.2883,3.3661,3.3859,3.4559,3.4872,3.4799,3.5713,3.5954,3.5617,3.5978,3.593,3.5617,3.5617,3.5905,3.6435,3.6964,3.7517,3.7974,3.7974,3.7892,3.7732,3.7732,3.7838,3.7974,1.8938,1.9222,1.9584,1.9627,2.1494,2.3558,2.5315,2.8033,3.047,3.2275,3.4042,3.5695,3.7212,3.7634,3.8217,3.9262,3.8918,3.7632,3.5175,3.4969,3.3866,3.141,3.0698,2.9894,2.8907,0.0,0.0,0.0,0.0,0.0,0.0,0.0,0.0,0.0,2.3295,0.0,2.7858,3.1028,3.3622,3.5687,3.672,3.7464,3.7974,3.7974,3.7974,3.8027,3.8315,3.8421,3.8473,3.8684,3.8764,3.8764,3.8792,3.8232,3.7593,3.7593,3.7092,3.6332,3.5759,3.5608,3.5056,3.2968,3.1913,3.0758,2.8122,2.8348,2.8737,2.767,0.0,0.0,0.0,0.0,0.0,0.0,0.0,0.0,0.0,0.0,0.0,0.0,0.0,0.0,0.0,0.0,0.0,0.0,0.0,0.0,0.0,2.9229,3.0335,3.1515,3.3068,3.386,3.3608,3.4653,3.5066,3.4799,3.54,3.5641,3.5617,3.5665,3.5689,3.5665,3.5665,3.5954,3.6483,3.6988,3.7517,3.7974,3.7974,3.7974,3.7974,3.7974,3.7974,3.7974,1.9867,2.1013,2.2324,2.3067,2.2805,2.346,2.6364,2.8116,3.0207,3.3404,3.4791,3.6206,3.796,3.8177,3.8602,3.9454,3.9408,3.9026,3.8206,3.7448,3.6576,3.5543,3.3568,3.219,3.1525,2.8595,0.0,2.5075,0.0,0.0,2.1404,0.0,0.0,0.0,0.0,0.0,2.7282,2.9899,3.2769,3.5656,3.6318,3.6909,3.7388,3.7814,3.7892,3.7732,3.7998,3.8262,3.8421,3.8473,3.8414,3.8327,3.8483,3.8114,3.7618,3.7593,3.7568,3.7514,3.7144,3.6941,3.6533,3.5529,3.3646,3.1813,3.111,3.116,3.1019,2.976,3.1079,3.1696,2.9424,2.8149,0.0,0.0,0.0,0.0,0.0,0.0,0.0,1.9208,0.0,0.0,0.0,0.0,0.0,0.0,0.0,0.0,2.596,2.6735,2.8164,3.0398,3.2043,3.3206,3.3884,3.4535,3.4872,3.4799,3.5761,3.6002,3.5641,3.6435,3.6579,3.6194,3.6194,3.6507,3.7012,3.7132,3.7517,3.7974,3.7974,3.7974,3.7974,3.7974,3.7974,3.7974,2.1416,2.311,2.488,2.5863,2.571,2.6081,2.7981,2.927,3.098,3.3756,3.5324,3.6538,3.7442,3.8171,3.8799,3.9356,3.9522,3.9325,3.8775,3.879,0.0,3.7025,3.5887,3.49,3.4165,3.1666,0.0,2.7445,0.0,0.0,2.2266,0.0,0.0,0.0,0.0,2.4715,2.6651,3.0209,3.3102,3.531,3.6085,3.675,0.0,3.7679,3.7785,3.7785,3.7945,3.808,3.8262,3.8262,3.8174,3.8087,3.8322,3.8032,3.7613,3.7739,3.7817,3.7767,3.7643,3.7592,3.7462,3.7016,3.5637,3.4154,3.3296,3.3032,3.2724,3.2039,3.2181,3.2223,3.1464,2.9351,2.6942,0.0,0.0,0.0,0.0,0.0,0.0,0.0,1.9962,0.0,0.0,0.0,0.0,0.0,0.0,2.1813,2.4169,2.5661,2.7584,3.0013,3.1649,3.2996,3.3982,3.451,3.4895,3.5184,3.6002,3.6242,3.5978,3.6819,3.6916,3.6411,3.6309,3.6597,3.7204,3.7048,3.7359,3.7838,3.7838,3.7838,3.7838,3.7998,3.7974,3.8022,2.3351,2.5273,2.713,2.7936,2.903,2.9886,3.0149,3.1199,3.249,3.3879,3.5789,3.6907,3.6625,3.7851,3.883,3.9232,3.9482,3.9281,3.8399,3.9528,3.9387,3.7496,3.7759,3.754,3.6599,3.486,3.2453,0.0,0.0,0.0,0.0,0.0,0.0,0.0,0.0,0.0,0.0,3.1264,3.385,3.4953,3.601,3.6873,3.7489,3.7542,3.7732,3.7868,3.7974,3.7974,3.7974,3.7974,3.7926,3.793,3.8247,3.8035,3.7721,3.7927,3.7962,3.7817,3.7643,3.7767,3.7866,3.7494,3.7242,3.6636,3.4931,3.437,3.4223,3.4223,3.2641,3.1913,3.4098,3.0658,2.6615,0.0,0.0,0.0,0.0,0.0,0.0,0.0,0.0,0.0,1.7052,1.7591,1.8536,1.9529,1.9155,2.0041,2.2758,2.5059,2.7464,3.0013,3.1577,3.2996,3.4198,3.4655,3.516,3.5617,3.6218,3.6435,3.6314,3.6916,3.6916,3.6411,3.6176,3.6514,3.7204,3.6987,3.7191,3.7649,3.7596,3.7596,3.7702,3.7892,3.8022,3.8142,2.5229,2.6998,2.8464,2.8639,3.0078,3.1885,3.3754,3.394,3.4273,3.5465,3.6854,3.7768,3.7802,3.806,3.8706,3.98,4.0015,4.0052,4.0078,4.057,4.053,3.9734,3.9245,3.878,3.8206,3.5195,3.2524,0.0,0.0,0.0,0.0,0.0,0.0,0.0,0.0,0.0,2.8621,3.167,0.0,3.5235,3.6207,3.6727,3.6928,3.7435,3.7465,3.7334,3.7814,3.7974,3.7974,3.7974,3.7685,3.7429,3.7919,3.8025,3.8003,3.7978,3.866,3.9042,3.764,3.7618,3.774,3.6573,3.6393,3.6386,3.5827,3.5818,3.5977,3.5977,3.5253,3.4379,3.352,3.0783,2.7835,0.0,0.0,0.0,0.0,0.0,0.0,0.0,0.0,2.202,0.0,1.9008,1.8834,1.7698,1.7872,1.9312,2.2279,2.2853,2.5261,2.9941,3.1216,3.2947,3.5328,3.5425,3.5521,3.5617,3.6603,3.6603,3.5785,3.6747,3.6916,3.6435,3.6582,3.6872,3.7228,3.7392,3.766,3.7892,3.7702,3.7732,3.7945,3.7974,3.8286,3.8623,2.761,2.8899,3.0149,3.0915,3.2372,3.4021,3.5637,3.6272,3.6515,3.6597,3.7274,3.765,3.7413,3.8152,3.9001,3.9748,4.0005,4.0243,4.0657,4.0751,4.0779,4.0717,3.9947,3.9291,3.8964,3.634,3.3769,3.1298,0.0,0.0,0.0,0.0,0.0,0.0,0.0,2.5858,0.0,0.0,3.3192,3.4647,3.5686,3.6295,3.6766,3.7197,3.7358,3.7459,3.815,3.8407,3.8407,3.8407,3.8238,3.8147,3.8839,3.8794,3.8469,3.8603,3.8918,3.9055,3.8253,3.8264,3.8241,3.732,3.6945,3.6689,3.6281,3.6297,3.6405,3.6405,3.5705,3.4525,3.2566,3.0407,2.8537,2.7494,2.6364,2.5812,0.0,0.0,2.4632,0.0,0.0,0.0,0.0,0.0,1.9233,0.0,1.7332,1.8824,2.1364,2.2249,2.4816,2.9532,3.0754,3.2515,3.5184,3.5208,3.5617,3.6435,3.6675,3.6675,3.6459,3.6964,3.706,3.6819,3.6796,3.7111,3.7613,3.7583,3.7702,3.7785,3.7649,3.7702,3.7785,3.7945,3.8142,3.8431,2.9816,3.0777,3.1913,3.3158,3.4644,3.5976,3.6969,3.8028,3.8498,3.7641,3.7681,3.7703,3.7325,3.8539,3.9481,3.9732,3.9968,4.0314,4.069,4.0657,4.0774,4.1049,4.0225,3.9681,3.951,3.7404,3.4992,0.0,0.0,2.5808,2.3293,0.0,0.0,0.0,0.0,2.7082,2.954,3.1296,3.2948,3.4395,3.5313,3.6071,3.6657,3.6982,3.7251,3.759,3.8395,3.8647,3.8671,3.8912,3.8984,3.911,3.977,3.9498,3.8924,3.9169,3.8994,3.8764,3.8589,3.8658,3.8591,3.7936,3.7469,3.7064,3.6479,3.6349,3.6405,3.6405,3.5579,3.4223,3.1989,3.0708,2.9765,2.9164,2.772,2.6942,2.7695,0.0,0.0,0.0,0.0,0.0,2.0614,2.0239,1.9284,1.7112,1.7206,1.8386,2.075,2.2037,2.4647,2.8915,3.0248,3.2082,3.4583,3.4847,3.5737,3.718,3.6771,3.6723,3.7036,3.7156,3.7132,3.7036,3.6868,3.7202,3.7892,3.7702,3.7649,3.7702,3.7596,3.7649,3.7702,3.7945,3.8118,3.8455,3.1258,3.2547,3.3704,3.4294,3.5932,3.7473,3.8304,3.8896,3.9081,3.8703,3.8579,3.8684,3.925,3.9469,3.9732,4.017,4.0279,4.0301,4.0344,4.0884,4.1097,4.0839,4.045,4.0218,4.0234,3.7826,3.5435,0.0,0.0,2.752,2.4232,0.0,0.0,2.4835,2.6526,2.8595,3.0905,3.2466,3.4004,3.5428,3.5979,3.6286,3.6386,3.6928,3.7143,3.7251,3.7833,3.8046,3.8214,3.92,3.9537,3.9592,3.9892,3.9582,3.9169,3.9199,3.8994,3.8638,3.7916,3.8054,3.8139,3.6875,3.6873,3.7012,3.6202,3.6218,3.6405,3.6405,3.5881,3.4731,3.2541,3.2842,3.2616,3.0105,2.9955,3.0005,2.9603,0.0,2.7494,2.6474,0.0,0.0,2.2196,1.9861,1.8506,1.8733,1.7407,1.7937,2.0986,2.1575,2.3766,2.7975,2.9946,3.1913,3.4054,3.5015,3.6098,3.7204,3.7156,3.6892,3.6483,3.6964,3.694,3.6507,3.6701,3.712,3.7649,3.7596,3.7732,3.7945,3.7702,3.7732,3.7974,3.7974,3.8599,3.9465,3.3289,3.3595,3.4316,3.5954,3.6653,3.7588,3.9333,3.9572,3.9553,3.9668,3.9528,3.95,3.9579,4.0083,4.0498,4.0694,4.0978,4.1,4.0738,4.0979,4.1021,4.0777,4.0367,4.0065,4.0,3.8331,3.6463,0.0,0.0,2.9088,2.6569,2.5701,2.6184,2.7819,2.904,3.0629,3.2466,3.3683,3.4693,3.5566,3.6071,3.6332,3.6332,3.6712,3.706,3.7395,3.7993,3.8616,3.9244,3.9866,3.9874,3.9705,4.0499,4.0113,3.9437,3.9437,3.9048,3.8477,3.8153,3.812,3.8033,3.7513,3.7221,3.6894,3.6525,3.6466,3.6405,3.6405,3.5931,3.5031,3.352,3.3319,3.3144,3.239,3.1587,3.1009,3.0783,0.0,0.0,2.8021,0.0,2.541,0.0,2.1619,2.0413,2.0939,1.8182,1.7688,2.0568,2.1416,2.3487,2.7127,2.9723,3.1922,3.3665,3.4968,3.6314,3.7661,3.7348,3.7252,3.7348,3.7252,3.7084,3.6916,3.734,3.7647,3.7838,3.7838,3.7892,3.7974,3.7892,3.7892,3.7974,3.7974,3.8262,3.8719,3.5081,3.4993,3.5517,3.7636,3.7876,3.8313,4.0017,4.006,3.9951,4.0236,4.0299,4.0232,4.0038,4.0585,4.1066,4.1197,4.1371,4.135,4.1022,4.0935,4.0891,4.0777,4.0312,4.0018,3.9976,3.8897,3.7562,3.5954,3.3668,3.1593,2.9734,2.8605,2.8904,3.0422,3.1295,3.2535,3.3981,3.4693,3.5382,3.6002,3.6346,3.6484,3.6562,3.6997,3.7385,3.7766,3.8375,3.9046,3.9769,4.0218,4.0042,3.9753,4.0667,4.0331,3.9585,3.9417,3.8827,3.8315,3.8315,3.8233,3.8199,3.8103,3.7741,3.7319,3.7019,3.6789,3.6606,3.643,3.6056,3.5504,3.455,3.4073,3.3822,3.3897,3.2893,3.2014,3.1687,3.0834,0.0,2.9277,2.777,2.6389,2.541,2.3125,2.2096,2.2975,2.031,1.9582,2.1819,2.1951,2.3638,2.7385,2.9911,3.203,3.3778,3.4993,3.6411,3.7974,3.7445,3.7469,3.7974,3.7589,3.7421,3.7445,3.7829,3.7974,3.7974,3.7974,3.7974,3.7974,3.7974,3.7974,3.7974,3.7974,3.819,3.8551,3.6391,3.7025,3.7789,3.9338,3.9908,4.0236,4.0279,4.0279,4.0279,4.0279,4.0694,4.1,4.0978,4.1,4.1197,4.1634,4.1262,4.1022,4.1,4.0869,4.0777,4.0777,4.0334,4.0237,4.0531,3.9568,3.8702,3.796,0.0,3.5428,3.3889,3.2397,3.2009,3.2466,3.3017,3.4096,3.5497,3.5497,3.6094,3.6956,3.6956,3.6979,3.7081,3.7868,3.8166,3.8278,3.8895,3.9118,3.9268,4.0098,4.0042,3.9705,4.0234,4.0042,3.9513,3.8984,3.8431,3.7974,3.7974,3.8396,3.8641,3.8126,3.8438,3.8567,3.7437,3.7186,3.701,3.6531,3.6405,3.6182,3.5583,3.5483,3.5107,3.4073,3.3872,3.347,3.2365,3.1712,0.0,2.9905,2.7318,2.5837,2.6424,2.3929,2.297,2.4625,2.423,2.4381,2.5485,2.3293,2.4293,2.9308,3.058,3.2224,3.4337,3.5186,3.6411,3.7974,3.7445,3.7469,3.7974,3.7974,3.7974,3.7974,3.7974,3.7974,3.7974,3.7974,3.7974,3.7974,3.7974,3.7974,3.7974,3.7974,3.8671,3.9513,3.8073,3.827,3.8619,3.9469,3.9732,3.9951,4.0236,4.0279,4.0279,4.0279,4.0694,4.1131,4.1437,4.1765,4.2027,4.218,4.2376,4.2201,4.1524,4.1661,4.1353,4.0496,4.0493,4.0401,3.9919,3.9989,3.9652,3.8724,3.7816,3.653,3.5014,3.4555,3.4785,3.5588,3.5772,3.63,3.7058,3.7058,3.7242,3.754,3.754,3.754,3.7563,3.7837,3.8136,3.8504,3.8756,3.9231,3.9935,4.0281,4.0523,4.0643,4.0451,4.0042,3.9585,3.9417,3.9224,3.8936,3.819,3.8369,3.8752,3.8561,3.8403,3.8213,3.7816,3.7161,3.6458,3.5931,3.6107,3.6207,3.5608,3.5855,3.5855,3.5082,3.4655,3.4073,3.2968,3.2315,3.1562,3.0482,2.9227,2.8373,2.8172,2.6314,2.5544,2.644,2.4582,2.4023,2.5511,2.5834,2.6849,2.8746,3.1076,3.2953,3.4314,3.5547,3.6771,3.7974,3.7805,3.7805,3.7974,3.7974,3.7974,3.7974,3.7974,3.7974,3.8022,3.8383,3.8551,3.8551,3.8551,3.8551,3.8503,3.8118,3.819,3.8575,3.9078,3.91,3.9253,3.9797,3.9885,3.9994,4.0236,4.0279,4.0345,4.052,4.0956,4.1437,4.1918,4.2535,4.2842,4.2704,4.2813,4.262,4.1945,4.1815,4.1419,4.0691,4.0647,4.045,4.0078,4.044,4.0293,3.9635,3.9172,3.8252,3.6943,3.6943,3.7081,3.7311,3.7311,3.7609,3.8068,3.7885,3.7907,3.8091,3.8091,3.8091,3.8114,3.8298,3.855,3.8919,3.9148,3.9682,4.0234,4.0559,4.0787,4.086,4.0739,4.0331,3.9874,3.9657,3.9609,3.9417,3.8527,3.8605,3.8887,3.8701,3.8491,3.8253,3.804,3.7344,3.6547,3.6093,3.6291,3.6413,3.5909,3.6132,3.6304,3.5906,3.5228,3.4474,3.3796,3.2842,3.1888,3.1009,3.0432,2.9779,2.8963,2.8549,2.8373,2.8387,2.7598,2.7337,2.7791,2.7568,2.8213,2.9915,3.2206,3.3997,3.5211,3.6199,3.7132,3.7974,3.7974,3.7974,3.7998,3.819,3.8286,3.831,3.8503,3.8599,3.8623,3.896,3.9128,3.9104,3.8888,3.8936,3.9032,3.8262,3.8359,3.8881,3.9579,3.9666,3.9797,4.0192,4.0279,4.0301,4.0323,4.0366,4.0541,4.1,4.1504,4.1942,4.2423,4.3203,4.358,4.3254,4.2817,4.245,4.2214,4.1506,4.1155,4.1209,4.0669,4.0453,4.0777,4.0777,4.0726,4.0531,4.0682,4.0258,3.9295,3.9249,3.8803,3.7885,3.7885,3.816,3.8596,3.8114,3.8183,3.8642,3.8642,3.8665,3.8734,3.9147,3.9331,3.9413,4.0013,4.0223,4.0281,4.0942,4.086,4.0547,4.1028,4.0836,4.0355,3.9826,3.9681,3.9585,3.9032,3.9026,3.9072,3.8591,3.8579,3.8592,3.8101,3.7561,3.7145,3.6899,3.6849,3.6747,3.6508,3.6455,3.6455,3.6405,3.5429,3.468,3.468,3.3345,3.2114,3.1562,3.111,3.0407,2.9289,3.0608,3.1179,3.0338,3.2464,3.3102,3.1497,2.8853,2.8878,3.2326,3.3747,3.5187,3.6741,3.7043,3.7469,3.7974,3.7974,3.7998,3.8046,3.8575,3.8839,3.8888,3.9393,3.9609,3.9609,3.9657,3.9657,3.9609,3.9128,3.9224,3.9537,3.8479,3.9056,4.0154,4.0083,4.0105,4.0148,4.0257,4.0279,4.041,4.0782,4.0759,4.1021,4.186,4.2327,4.2705,4.3173,4.3822,4.3997,4.365,4.3747,4.3394,4.2325,4.2349,4.1816,4.0583,4.0647,4.0582,4.0409,4.0647,4.0854,4.0954,4.062,4.0114,3.9522,3.9112,3.8794,3.8566,3.8824,3.901,3.9124,3.901,3.901,3.9124,3.9124,3.9354,3.9735,3.94,3.9538,3.9933,4.013,4.0223,4.0281,4.0942,4.11,4.1028,4.1148,4.11,4.0884,4.0355,4.0499,4.0595,3.9681,3.9472,3.9437,3.9097,3.8631,3.815,3.8027,3.7561,3.7244,3.737,3.7394,3.7319,3.7038,3.6985,3.6908,3.648,3.5429,3.468,3.468,3.4022,3.3294,3.2742,3.2943,3.2842,3.2164,3.2441,3.2181,3.0893,3.1897,3.2105,3.0974,3.1368,3.1969,3.2654,3.4002,3.5257,3.6488,3.6991,3.7469,3.7974,3.7974,3.819,3.8623,3.8767,3.9032,3.9417,3.9561,3.9609,3.9633,4.0042,4.021,4.0186,4.0066,4.009,4.0138,3.9465,3.9275,3.9387,4.0279,4.0279,4.0279,4.0279,4.0279,4.0432,4.0826,4.1022,4.1462,4.2438,4.2839,4.3287,4.3802,4.4094,4.4204,4.3974,4.3997,4.3594,4.2635,4.2437,4.1839,4.0891,4.0649,4.0453,4.0279,4.0474,4.0708,4.0976,4.081,4.0378,3.9679,3.9611,3.9266,3.8812,3.924,3.9396,3.9308,3.9308,3.9446,3.9652,3.9652,3.9951,4.0364,4.0112,4.002,4.014,4.0457,4.0434,4.0281,4.0769,4.0942,4.0942,4.0769,4.0826,4.0894,4.0607,4.0841,4.1004,4.0186,3.9801,3.9472,3.8838,3.8291,3.7983,3.7983,3.7764,3.7575,3.7762,3.7814,3.7741,3.7565,3.7362,3.701,3.6505,3.5429,3.4625,3.4374,3.4098,3.3796,3.3495,3.3947,3.4104,3.367,3.412,3.3811,3.2302,3.341,3.3469,3.1952,3.3503,3.4137,3.3536,3.4824,3.593,3.6771,3.73,3.7685,3.7974,3.8238,3.8527,3.8839,3.932,3.9705,3.997,4.021,4.0331,4.0355,4.0643,4.0763,4.0739,4.0499,4.0547,4.0667,3.9898,3.9786,4.0025,4.0279,4.0279,4.0279,4.0279,4.0344,4.0496,4.0865,4.1307,4.197,4.2883,4.331,4.3758,4.4343,4.4342,4.4273,4.4204,4.3861,4.3388,4.2879,4.2188,4.166,4.1353,4.0694,4.0301,4.0388,4.0454,4.0605,4.0777,4.1033,4.0692,3.9824,4.0137,3.9809,3.8979,3.9492,3.965,3.9538,3.9538,3.979,4.0241,4.0241,4.0479,4.0915,4.0846,4.0594,4.0393,4.0748,4.0657,4.0282,4.0561,4.0619,4.0595,4.0363,4.0479,4.0735,4.0792,4.0966,4.1076,4.0643,4.0066,3.9393,3.8455,3.8166,3.8118,3.8214,3.8238,3.8253,3.8341,3.8347,3.8356,3.8291,3.7814,3.7211,3.6531,3.5504,3.4625,3.3997,3.4048,3.4148,3.4148,3.47,3.499,3.4835,3.5583,3.5542,3.4165,3.5502,3.5673,3.3908,3.526,3.577,3.4895,3.5933,3.6771,3.73,3.7757,3.7974,3.7998,3.8551,3.8864,3.896,3.9946,4.0451,4.0547,4.098,4.1172,4.1172,4.1172,4.1172,4.1124,4.0691,4.0787,4.1076,4.0186,4.0427,4.1009,4.0279,4.0279,4.0279,4.0279,4.0517,4.0845,4.133,4.1987,4.2786,4.3691,4.3962,4.4188,4.4686,4.4457,4.4135,4.3858,4.339,4.2879,4.2414,4.2236,4.1661,4.0563,4.0388,4.0476,4.0891,4.1133,4.1132,4.0777,4.0443,4.024,4.0021,3.9645,3.9543,3.9652,4.0027,4.0334,4.0594,4.0594,4.064,4.0709,4.0709,4.1007,4.142,4.0984,4.103,4.1299,4.0787,4.0535,4.0478,4.0329,4.0281,4.0305,4.0537,4.0677,4.0735,4.1024,4.1172,4.1172,4.1076,4.0355,3.9561,3.9393,3.9008,3.8815,3.9248,3.9345,3.9485,4.0011,4.0119,3.996,3.9519,3.8969,3.8165,3.6656,3.583,3.5006,3.4048,3.4655,3.5232,3.5232,3.6182,3.6889,3.7096,3.6824,3.6579,3.6305,3.6333,3.6358,3.6255,3.6498,3.6816,3.7108,3.7094,3.7324,3.7853,3.795,3.7974,3.7998,3.8551,3.9056,3.9513,4.0114,4.0643,4.1076,4.1148,4.1172,4.1172,4.1172,4.1172,4.1172,4.11,4.1124,4.1172,4.1004,4.088,4.0769,4.0279,4.0279,4.0344,4.0517,4.0712,4.1061,4.1965,4.2607,4.3235,4.3894,4.4301,4.4483,4.4503,4.4181,4.3927,4.3719,4.3049,4.2496,4.2012,4.1749,4.133,4.0694,4.041,4.0388,4.0607,4.0738,4.0759,4.0517,4.032,4.0078,3.9814,3.9836,3.9699,3.9588,4.0145,4.0434,4.0555,4.0701,4.0984,4.1237,4.1237,4.1535,4.1948,4.1719,4.1604,4.1529,4.1098,4.0778,4.0453,4.0118,4.0141,4.0363,4.0223,4.0516,4.0892,4.0922,4.1057,4.1124,4.0836,4.0403,3.997,3.9681,3.9417,3.932,3.9561,3.9609,3.972,4.0135,4.0379,4.0449,4.0358,3.9769,3.9069,3.8291,3.6684,3.5433,3.5253,3.5403,3.5562,3.5722,3.6744,3.7345,3.7218,3.7217,3.7066,3.6614,3.6763,3.6763,3.6614,3.688,3.7146,3.7387,3.781,3.831,3.8839,3.8575,3.8575,3.8864,3.9128,3.9513,4.0042,4.0571,4.0956,4.1172,4.1172,4.1172,4.1172,4.1172,4.1172,4.1172,4.1172,4.1172,4.1196,4.1024,4.0966,4.0966,4.0279,4.0279,4.0409,4.0712,4.0777,4.1213,4.2314,4.2854,4.3351,4.3782,4.4278,4.4457,4.4204,4.3858,4.358,4.358,4.2842,4.2201,4.1721,4.1262,4.0956,4.0847,4.0585,4.0454,4.0454,4.0454,4.0454,4.0454,4.0323,4.0147,3.9797,4.0105,4.0057,3.967,4.0364,4.0698,4.0649,4.1044,4.1397,4.1742,4.1742,4.1994,4.2275,4.2275,4.2086,4.1736,4.1476,4.1098,4.0704,4.0194,4.0287,4.0518,4.0326,4.0703,4.1152,4.1068,4.1119,4.11,4.0691,4.0499,4.0331,4.0042,3.9874,3.9826,3.9946,3.997,4.0026,4.0335,4.0556,4.0807,4.1067,4.0461,3.9896,3.9572,3.7539,3.6088,3.6332,3.606,3.5943,3.6326,3.7196,3.7665,3.7402,3.774,3.7709,3.6988,3.7445,3.7469,3.6819,3.7397,3.7805,3.7926,3.8503,3.908,3.9609,3.92,3.92,3.9609,3.9729,3.9994,4.0427,4.1076,4.1293,4.1196,4.1317,4.1293,4.1057,4.1057,4.1057,4.0942,4.0942,4.0942,4.0942,4.0792,4.085,4.1057,4.0279,4.0279,4.0409,4.0712,4.0777,4.1061,4.1922,4.248,4.304,4.3466,4.3685,4.3767,4.3789,4.3441,4.3254,4.3254,4.2704,4.2201,4.1721,4.1262,4.0804,4.0345,4.0738,4.0956,4.0956,4.0956,4.0956,4.0956,4.0498,4.0257,4.0236,4.0257,4.0431,4.0731,4.1097,4.1418,4.1693,4.2034,4.2184,4.2229,4.2229,4.2229,4.2275,4.2275,4.2252,4.2224,4.1758,4.1552,4.1437,4.0892,4.0732,4.0877,4.1462,4.1667,4.1777,4.1886,4.1557,4.1172,4.1124,4.0763,4.0499,4.0956,4.0691,4.0475,4.0956,4.1076,4.1167,4.1428,4.1485,4.1565,4.1632,4.1171,4.0383,3.917,3.8091,3.7169,3.6483,3.6568,3.6873,3.7394,3.8016,3.8504,3.8985,3.9077,3.897,3.8647,3.9128,3.896,3.7926,3.8864,3.9657,4.0138,3.9296,3.908,3.9609,3.9561,3.9561,3.9609,4.009,4.0355,4.0427,4.1461,4.1653,4.122,4.1701,4.1455,4.0735,4.0735,4.0537,4.0281,4.0281,4.0281,4.0281,4.0595,4.0735,4.0792,4.0279,4.0279,4.0409,4.0712,4.102,4.1528,4.2369,4.2929,4.3354,4.3572,4.3656,4.365,4.3441,4.3254,4.3184,4.3184,4.2704,4.2333,4.2158,4.1437,4.0782,4.0301,4.0738,4.1,4.1,4.1,4.1,4.1,4.0825,4.0585,4.0279,4.0847,4.0934,4.0841,4.1357,4.1678,4.1806,4.2148,4.2275,4.2275,4.2275,4.2275,4.2275,4.2275,4.2275,4.227,4.1765,4.1581,4.1489,4.0984,4.103,4.1299,4.1466,4.1705,4.1859,4.1757,4.1705,4.1605,4.1268,4.1028,4.0932,4.1124,4.1028,4.0932,4.1124,4.1172,4.123,4.1344,4.1492,4.159,4.1622,4.1379,4.1101,4.0938,3.9173,3.7961,3.8335,3.7616,3.7293,3.8025,3.8589,3.9043,3.9443,3.9461,3.9406,3.9296,3.9489,3.9417,3.9008,3.9393,3.985,4.0379,4.0018,4.0042,4.0571,4.0258,4.0258,4.0595,4.0451,4.0739,4.1389,4.1798,4.2038,4.2158,4.1862,4.1518,4.1186,4.0854,4.0619,4.0537,4.0769,4.0826,4.0826,4.0735,4.085,4.1024,4.0279,4.0279,4.0409,4.0712,4.111,4.1618,4.2505,4.295,4.3235,4.3514,4.3511,4.3441,4.3254,4.3184,4.3184,4.3184,4.2704,4.2354,4.2201,4.1437,4.0847,4.052,4.0825,4.1066,4.1219,4.1219,4.1219,4.1219,4.1219,4.1044,4.0716,4.1155,4.1199,4.1063,4.1489,4.1678,4.1806,4.2148,4.2275,4.2275,4.2275,4.2275,4.2275,4.2275,4.2275,4.2316,4.2132,4.1948,4.1788,4.1604,4.165,4.1804,4.1769,4.204,4.2286,4.2005,4.2114,4.2193,4.1774,4.1677,4.1629,4.1485,4.1317,4.122,4.1389,4.1293,4.1172,4.1172,4.1402,4.1655,4.194,4.1833,4.1836,4.2319,4.0458,3.922,4.0014,3.8948,3.8325,3.8969,3.9355,3.9685,3.9944,3.9905,3.9905,3.9961,4.005,4.009,4.009,3.9946,4.009,4.0619,4.0643,4.0812,4.1172,4.0836,4.0836,4.1172,4.098,4.1268,4.199,4.2303,4.2567,4.2795,4.2138,4.178,4.1472,4.1115,4.0914,4.0856,4.1256,4.1386,4.1386,4.1269,4.1327,4.1503,4.0279,4.0279,4.0409,4.0712,4.0935,4.1308,4.2037,4.2318,4.2617,4.3119,4.3184,4.3184,4.3184,4.3184,4.3184,4.3184,4.2704,4.2201,4.1721,4.1262,4.1022,4.1022,4.1022,4.124,4.1677,4.1699,4.1699,4.1699,4.1699,4.1699,4.1677,4.1219,4.1199,4.1485,4.141,4.1486,4.1806,4.2148,4.2275,4.2275,4.2275,4.2275,4.2275,4.2275,4.2298,4.2344,4.2913,4.2775,4.2431,4.2913,4.2752,4.2339,4.2696,4.2911,4.298,4.298,4.2927,4.2819,4.276,4.276,4.2699,4.211,4.1581,4.1341,4.1846,4.1581,4.1196,4.1196,4.1402,4.1891,4.2741,4.2683,4.2594,4.293,4.1863,4.1085,4.13,4.0586,4.0195,4.0493,4.0488,4.0599,4.0755,4.0548,4.0515,4.0748,4.1031,4.1172,4.1172,4.0691,4.0643,4.1172,4.1196,4.1196,4.1172,4.1172,4.1172,4.1196,4.1725,4.1966,4.2014,4.3048,4.3241,4.2843,4.2819,4.2293,4.1519,4.1519,4.1318,4.1046,4.1623,4.1835,4.1835,4.216,4.228,4.234,4.0279,4.0279,4.0344,4.0388,4.1023,4.1591,4.1812,4.2489,4.301,4.3163,4.3184,4.3184,4.3184,4.3184,4.3184,4.3184,4.2704,4.2201,4.1721,4.1874,4.2005,4.2005,4.2005,4.207,4.2201,4.2201,4.2201,4.2201,4.2201,4.2027,4.1699,4.2144,4.2015,4.1507,4.1941,4.1995,4.1829,4.2578,4.266,4.2344,4.3096,4.3165,4.2913,4.3234,4.3372,4.3349,4.3165,4.2982,4.2844,4.2637,4.239,4.2339,4.2402,4.2667,4.2771,4.242,4.2456,4.2489,4.2194,4.21,4.2196,4.2508,4.2458,4.2289,4.2073,4.1846,4.1725,4.1725,4.1842,4.1948,4.2234,4.2195,4.2068,4.1793,4.1272,4.0863,4.0949,4.0452,4.0196,4.0678,4.0529,4.058,4.1055,4.0989,4.1013,4.1046,4.1133,4.1172,4.1172,4.1389,4.1413,4.1196,4.1557,4.1557,4.1172,4.1172,4.1172,4.1196,4.1725,4.2217,4.2602,4.3216,4.3649,4.3805,4.3238,4.2853,4.2566,4.2209,4.1983,4.1947,4.2329,4.252,4.252,4.264,4.264,4.264,4.0453,4.0517,4.0583,4.0977,4.1662,4.2236,4.2345,4.2983,4.3372,4.3372,4.3302,4.3184,4.3184,4.3184,4.3184,4.3184,4.2704,4.2201,4.1721,4.2136,4.2507,4.2704,4.2726,4.2617,4.242,4.2617,4.2617,4.242,4.2617,4.2573,4.2289,4.256,4.25,4.206,4.2281,4.2364,4.2418,4.2997,4.3081,4.2982,4.3556,4.3625,4.3395,4.3693,4.3808,4.3762,4.3487,4.3257,4.3051,4.2729,4.25,4.2275,4.2275,4.2529,4.2776,4.2388,4.2545,4.2723,4.248,4.2409,4.247,4.2899,4.271,4.2377,4.2257,4.2067,4.1923,4.2101,4.2219,4.2386,4.2721,4.2718,4.2666,4.2545,4.2175,4.1875,4.1655,4.1338,4.1111,4.112,4.0975,4.0982,4.1296,4.123,4.1172,4.1172,4.1389,4.1509,4.1509,4.2049,4.2193,4.1822,4.1918,4.1822,4.1509,4.1509,4.1509,4.1509,4.2038,4.2567,4.3072,4.3601,4.3973,4.4261,4.3586,4.3225,4.3201,4.289,4.2747,4.2831,4.3252,4.3385,4.3385,4.3385,4.3385,4.3385,4.0712,4.0777,4.1061,4.1965,4.2524,4.2951,4.3421,4.364,4.3767,4.3767,4.3441,4.3232,4.3232,4.3254,4.3163,4.3119,4.2682,4.2223,4.1786,4.2223,4.2704,4.3163,4.3184,4.2966,4.2485,4.2944,4.2944,4.2485,4.2944,4.3184,4.3163,4.266,4.2535,4.2855,4.2391,4.2572,4.3237,4.3348,4.3524,4.3742,4.39,4.3923,4.3877,4.3923,4.3946,4.3923,4.3831,4.3533,4.3142,4.3051,4.2706,4.2275,4.2275,4.2529,4.2759,4.2759,4.2949,4.32,4.32,4.32,4.32,4.32,4.2497,4.1935,4.2395,4.2136,4.1929,4.2291,4.2568,4.3012,4.3772,4.3804,4.3811,4.4252,4.3993,4.3477,4.2913,4.2888,4.2601,4.1785,4.1704,4.1695,4.1695,4.1489,4.1317,4.1317,4.1832,4.2038,4.2038,4.2543,4.2867,4.2819,4.241,4.2086,4.2038,4.2038,4.2073,4.199,4.2602,4.3072,4.3529,4.4021,4.4285,4.4261,4.3818,4.3577,4.3577,4.3577,4.3577,4.3649,4.4093,4.4285,4.4285,4.4285,4.4285,4.4285,4.0712,4.0777,4.1061,4.1965,4.2524,4.2951,4.3421,4.3868,4.4204,4.4204,4.3858,4.358,4.358,4.3372,4.301,4.2617,4.2485,4.2376,4.2267,4.2726,4.3053,4.3163,4.3184,4.3141,4.301,4.3119,4.3119,4.301,4.3119,4.3184,4.3163,4.266,4.242,4.2535,4.2323,4.2304,4.246,4.3444,4.3666,4.3504,4.4637,4.4796,4.4474,4.4864,4.5025,4.491,4.4107,4.3739,4.3533,4.2752,4.2431,4.2275,4.2275,4.2339,4.2402,4.2402,4.2466,4.2529,4.2529,4.2529,4.2529,4.2529,4.2368,4.224,4.2435,4.2395,4.2447,4.2814,4.2875,4.3081,4.3566,4.3554,4.3446,4.3216,4.3249,4.31,4.2598,4.2856,4.293,4.2287,4.2428,4.2517,4.2517,4.2482,4.2482,4.2482,4.2578,4.2651,4.2651,4.3072,4.3168,4.2843,4.3024,4.2976,4.2651,4.2651,4.2434,4.199,4.2904,4.3409,4.3529,4.4021,4.4285,4.4285,4.4165,4.4117,4.4117,4.4117,4.4117,4.4117,4.4237,4.4285,4.4285,4.4285,4.4285,4.4285,4.0971,4.1365,4.1938,4.2761,4.3326,4.3848,4.4324,4.4505,4.4526,4.4526,4.4043,4.3697,4.3697,4.3152,4.2617,4.2114,4.2289,4.242,4.242,4.3097,4.3403,4.3184,4.3381,4.3403,4.3184,4.3184,4.3184,4.3184,4.3184,4.3184,4.3163,4.29,4.2769,4.2769,4.2735,4.2877,4.324,4.3894,4.4188,4.4411,4.5072,4.5209,4.5002,4.5255,4.5438,4.53,4.4176,4.351,4.3028,4.2459,4.2275,4.2275,4.2275,4.25,4.2637,4.2408,4.25,4.2637,4.2344,4.2275,4.2344,4.2637,4.2706,4.2632,4.2418,4.2427,4.2552,4.3027,4.3151,4.3274,4.3791,4.3914,4.3818,4.3553,4.3626,4.3578,4.2998,4.3167,4.3167,4.2635,4.271,4.2819,4.2819,4.2819,4.2819,4.2819,4.2976,4.312,4.312,4.3625,4.3794,4.3529,4.3505,4.3385,4.312,4.312,4.2976,4.2711,4.3241,4.3649,4.3853,4.4141,4.4285,4.4285,4.4285,4.4285,4.4285,4.4285,4.4285,4.4285,4.4285,4.4285,4.4285,4.4285,4.4285,4.4285,4.1164,4.1849,4.2671,4.3476,4.4045,4.4571,4.5142,4.4937,4.4732,4.4732,4.4112,4.3697,4.3697,4.2845,4.2158,4.1852,4.2114,4.2376,4.2529,4.3294,4.3578,4.3184,4.3534,4.3578,4.3184,4.3184,4.3184,4.3184,4.3184,4.3184,4.3184,4.3097,4.3167,4.3302,4.3214,4.3584,4.4273,4.4342,4.4732,4.5278,4.5347,4.5438,4.5438,4.5438,4.5438,4.53,4.429,4.3303,4.2454,4.2298,4.2344,4.2477,4.2517,4.2862,4.3119,4.277,4.2885,4.3005,4.2683,4.2522,4.2591,4.3096,4.3211,4.3096,4.2683,4.2459,4.2622,4.3161,4.3326,4.3514,4.4161,4.4357,4.4429,4.4429,4.4429,4.4237,4.3721,4.3649,4.3457,4.3012,4.2976,4.3024,4.3024,4.3024,4.3024,4.3024,4.3409,4.3649,4.3649,4.4045,4.4285,4.4285,4.389,4.3649,4.3649,4.3649,4.3649,4.3649,4.3649,4.389,4.4285,4.4285,4.4285,4.4285,4.4285,4.4285,4.4285,4.4285,4.4285,4.4285,4.4285,4.4285,4.4285,4.4285,4.4285,4.4285,4.0777,4.1306,4.1926,4.2749,4.3332,4.3826,4.4389,4.4411,4.4342,4.4342,4.3997,4.3697,4.3697,4.2538,4.1939,4.2289,4.1983,4.2158,4.301,4.3206,4.325,4.3184,4.3228,4.3228,4.3184,4.3184,4.3184,4.3184,4.3184,4.3184,4.3163,4.2726,4.2886,4.3628,4.3186,4.3527,4.4342,4.4594,4.48,4.4937,4.5278,4.5438,4.5438,4.5438,4.5438,4.5346,4.4704,4.3854,4.2913,4.2477,4.2637,4.3046,4.3368,4.3563,4.3759,4.404,4.3632,4.3165,4.351,4.3303,4.3096,4.3602,4.3716,4.3693,4.3625,4.328,4.306,4.3294,4.3326,4.3514,4.4161,4.4669,4.4957,4.4957,4.4957,4.4789,4.4261,4.4165,4.4034,4.3481,4.3842,4.4069,4.4069,4.4069,4.4069,4.4069,4.4141,4.4165,4.4165,4.4237,4.4285,4.4285,4.4213,4.4165,4.4165,4.4165,4.4165,4.4165,4.4165,4.4213,4.4285,4.4285,4.4285,4.4285,4.4285,4.4285,4.4285,4.4285,4.4285,4.4285,4.4285,4.4285,4.4285,4.4285,4.4285,4.4285,4.0777,4.1371,4.2058,4.2704,4.3197,4.369,4.4183,4.4273,4.4273,4.4273,4.3927,4.3609,4.3321,4.2318,4.1896,4.2376,4.2223,4.2507,4.349,4.3556,4.3556,4.3556,4.3556,4.3447,4.3184,4.3184,4.3184,4.3184,4.3184,4.3302,4.3441,4.32,4.3429,4.4043,4.382,4.4049,4.4594,4.4732,4.4937,4.5142,4.5347,4.5438,4.5438,4.5438,4.5438,4.5323,4.4451,4.3877,4.3418,4.2913,4.3226,4.3813,4.4007,4.4421,4.486,4.4687,4.4389,4.4142,4.4352,4.4026,4.384,4.4654,4.4708,4.451,4.451,4.4216,4.3913,4.3746,4.3773,4.3962,4.4592,4.4909,4.5077,4.5077,4.5077,4.4885,4.4357,4.4285,4.4127,4.374,4.3869,4.4013,4.4013,4.4013,4.4075,4.4285,4.4285,4.4285,4.4285,4.4285,4.4285,4.4285,4.4285,4.4429,4.4717,4.4429,4.4429,4.4717,4.4429,4.4285,4.4285,4.4285,4.4285,4.4285,4.4285,4.4285,4.4285,4.4285,4.4285,4.4285,4.4285,4.4285,4.4285,4.4285,4.4285,4.4285]}]]